[[{"header":{"parameterUnit":"m.s-1","parameterCategory":1,"la1":30.6,"la2":28.766,"lo1":-90.7593,"lo2":-88.6598,"dy":0.0162,"dx":0.0183,"nx":116,"ny":114,"refTime":"2023-06-09T12:00:00:Z","depth":0,"parameterNumber":2,"parameterNumberName":"U-component_of_WINDS"},"data":[0.0,0.0,0.0,0.0,0.0,0.0,0.0,0.0,0.0,0.0,0.0,0.0,0.0,0.0,0.0,0.0,0.0,0.0,0.0,0.0,0.0,0.0,0.0,0.0,0.0,0.0,0.0,0.0,0.0,0.0,0.0,0.0,0.0,0.0,0.0,0.0,0.0,0.0,0.0,0.0,0.0,0.0,0.0,0.0,0.0,0.0,0.0,0.0,0.0,0.0,0.0,0.0,0.0,0.0,0.0,0.0,0.0,0.0,0.0,0.0,0.0,0.0,0.0,0.0,0.0,0.0,0.0,0.0,0.0,0.0,0.0,0.0,0.0,0.0,0.0,0.0,0.0,0.0,0.0,0.0,0.0,0.0,0.0,0.0,0.0,0.0,0.0,0.0,0.0,0.0,0.0,0.0,0.0,0.0,0.0,0.0,0.0,0.0,0.0,0.0,0.0,0.0,0.0,0.0,0.0,0.0,0.0,0.0,0.0,0.0,0.0,0.0,0.0,0.0,0.0,0.0,0.0,0.0,0.0,0.0,0.0,0.0,0.0,0.0,0.0,0.0,0.0,0.0,0.0,0.0,0.0,0.0,0.0,0.0,0.0,0.0,0.0,0.0,0.0,0.0,0.0,0.0,0.0,0.0,0.0,0.0,0.0,0.0,0.0,0.0,0.0,0.0,0.0,0.0,0.0,0.0,0.0,0.0,0.0,0.0,0.0,0.0,0.0,0.0,0.0,0.0,0.0,0.0,0.0,0.0,0.0,0.0,0.0,0.0,0.0,0.0,0.0,0.0,0.0,0.0,0.0,0.0,0.0,0.0,0.0,0.0,0.0,0.0,0.0,0.0,0.0,0.0,0.0,0.0,0.0,0.0,0.0,0.0,0.0,0.0,0.0,0.0,0.0,0.0,0.0,0.0,0.0,0.0,0.0,0.0,0.0,0.0,0.0,0.0,0.0,0.0,0.0,0.0,0.0,0.0,0.0,0.0,0.0,0.0,0.0,0.0,0.0,0.0,0.0,0.0,0.0,0.0,0.0,0.0,0.0,0.0,0.0,0.0,0.0,0.0,0.0,0.0,0.0,0.0,0.0,0.0,0.0,0.0,0.0,0.0,0.0,0.0,0.0,0.0,0.0,0.0,0.0,0.0,0.0,0.0,0.0,0.0,0.0,0.0,0.0,0.0,0.0,0.0,0.0,0.0,0.0,0.0,0.0,0.0,0.0,0.0,0.0,0.0,0.0,0.0,0.0,0.0,0.0,0.0,0.0,0.0,0.0,0.0,0.0,0.0,0.0,0.0,0.0,0.0,0.0,0.0,0.0,0.0,0.0,0.0,0.0,0.0,0.0,0.0,0.0,0.0,0.0,0.0,0.0,0.0,0.0,0.0,0.0,0.0,0.0,0.0,0.0,0.0,0.0,0.0,0.0,0.0,0.0,0.0,0.0,0.0,0.0,0.0,0.0,0.0,0.0,0.0,0.0,0.0,0.0,0.0,0.0,0.0,0.0,0.0,0.0,0.0,0.0,0.0,0.0,0.0,0.0,0.0,0.0,0.0,0.0,0.0,0.0,0.0,0.0,0.0,0.0,0.0,0.0,0.0,0.0,0.0,0.0,0.0,0.0,0.0,0.0,0.0,0.0,0.0,0.0,0.0,0.0,0.0,0.0,0.0,0.0,0.0,0.0,0.0,0.0,0.0,0.0,0.0,0.0,0.0,0.0,0.0,0.0,0.0,0.0,0.0,0.0,0.0,0.0,0.0,0.0,0.0,0.0,0.0,0.0,0.0,0.0,0.0,0.0,0.0,0.0,0.0,0.0,0.0,0.0,0.0,0.0,0.0,0.0,0.0,0.0,0.0,0.0,0.0,0.0,0.0,0.0,0.0,0.0,0.0,0.0,0.0,0.0,0.0,0.0,0.0,0.0,0.0,0.0,0.0,0.0,0.0,0.0,0.0,0.0,0.0,0.0,0.0,0.0,0.0,0.0,0.0,0.0,0.0,0.0,0.0,0.0,0.0,0.0,0.0,0.0,0.0,0.0,0.0,0.0,0.0,0.0,0.0,0.0,0.0,0.0,0.0,0.0,0.0,0.0,0.0,0.0,0.0,0.0,0.0,0.0,0.0,0.0,0.0,0.0,0.0,0.0,0.0,0.0,0.0,0.0,0.0,0.0,0.0,0.0,0.0,0.0,0.0,0.0,0.0,0.0,0.0,0.0,0.0,0.0,0.0,0.0,0.0,0.0,0.0,0.0,0.0,0.0,0.0,0.0,0.0,0.0,0.0,0.0,0.0,0.0,0.0,0.0,0.0,0.0,0.0,0.0,0.0,0.0,0.0,0.0,0.0,0.0,0.0,0.0,0.0,0.0,0.0,0.0,0.0,0.0,0.0,0.0,0.0,0.0,0.0,0.0,0.0,0.0,0.0,0.0,0.0,0.0,0.0,0.0,0.0,0.0,0.0,0.0,0.0,0.0,0.0,0.0,0.0,0.0,0.0,0.0,0.0,0.0,0.0,0.0,0.0,0.0,0.0,0.0,0.0,0.0,0.0,0.0,0.0,0.0,0.0,0.0,0.0,0.0,0.0,0.0,0.0,0.0,0.0,0.0,0.0,0.0,0.0,0.0,0.0,0.0,0.0,0.0,0.0,0.0,0.0,0.0,0.0,0.0,0.0,0.0,0.0,0.0,0.0,0.0,0.0,0.0,0.0,0.0,0.0,0.0,0.0,0.0,0.0,0.0,0.0,0.0,0.0,0.0,0.0,0.0,0.0,0.0,0.0,0.0,0.0,0.0,0.0,0.0,0.0,0.0,0.0,0.0,0.0,0.0,0.0,0.0,0.0,0.0,0.0,0.0,0.0,0.0,0.0,0.0,0.0,0.0,0.0,0.0,0.0,0.0,0.0,0.0,0.0,0.0,0.0,0.0,0.0,0.0,0.0,0.0,0.0,0.0,0.0,0.0,0.0,0.0,0.0,0.0,0.0,0.0,0.0,0.0,0.0,0.0,0.0,0.0,0.0,0.0,0.0,0.0,0.0,0.0,0.0,0.0,0.0,0.0,0.0,0.0,0.0,0.0,0.0,0.0,0.0,0.0,0.0,0.0,0.0,0.0,0.0,0.0,0.0,0.0,0.0,0.0,0.0,0.0,0.0,0.0,0.0,0.0,0.0,0.0,0.0,0.0,0.0,0.0,0.0,0.0,0.0,0.0,0.0,0.0,0.0,0.0,0.0,0.0,0.0,0.0,0.0,0.0,0.0,0.0,0.0,0.0,0.0,0.0,0.0,0.0,0.0,0.0,0.0,0.0,0.0,0.0,0.0,0.0,0.0,0.0,0.0,0.0,0.0,0.0,0.0,0.0,0.0,0.0,0.0,0.0,0.0,0.0,0.0,0.0,0.0,0.0,0.0,0.0,0.0,0.0,0.0,0.0,0.0,0.0,0.0,0.0,0.0,0.0,0.0,0.0,0.0,0.0,0.0,0.0,0.0,0.0,0.0,0.0,0.0,0.0,0.0,0.0,0.0,0.0,0.0,0.0,0.0,0.0,0.0,0.0,0.0,0.0,0.0,0.0,0.0,0.0,0.0,0.0,0.0,0.0,0.0,0.0,0.0,0.0,0.0,0.0,0.0,0.0,0.0,0.0,0.0,0.0,0.0,0.0,0.0,0.0,0.0,0.0,0.0,0.0,0.0,0.0,0.0,0.0,0.0,0.0,0.0,0.0,0.0,0.0,0.0,0.0,0.0,0.0,0.0,0.0,0.0,0.0,0.0,0.0,0.0,0.0,0.0,0.0,0.0,0.0,0.0,0.0,0.0,0.0,0.0,0.0,0.0,0.0,0.0,0.0,0.0,0.0,0.0,0.0,0.0,0.0,0.0,0.0,0.0,0.0,0.0,0.0,0.0,0.0,0.0,0.0,0.0,0.0,0.0,0.0,0.0,0.0,0.0,0.0,0.0,0.0,0.0,0.0,0.0,0.0,0.0,0.0,0.0,0.0,0.0,0.0,0.0,0.0,0.0,0.0,0.0,0.0,0.0,0.0,0.0,0.0,0.0,0.0,0.0,0.0,0.0,0.0,0.0,0.0,0.0,0.0,0.0,0.0,0.0,0.0,0.0,0.0,0.0,0.0,0.0,0.0,0.0,0.0,0.0,0.0,0.0,0.0,0.0,0.0,0.0,0.0,0.0,0.0,0.0,0.0,0.0,0.0,0.0,0.0,0.0,0.0,0.0,0.0,0.0,0.0,0.0,0.0,0.0,0.0,0.0,0.0,0.0,0.0,0.0,0.0,0.0,0.0,0.0,0.0,0.0,0.0,0.0,0.0,0.0,0.0,0.0,0.0,0.0,0.0,0.0,0.0,0.0,0.0,0.0,0.0,0.0,0.0,0.0,0.0,0.0,0.0,0.0,0.0,0.0,0.0,0.0,0.0,0.0,0.0,0.0,0.0,0.0,0.0,0.0,0.0,0.0,0.0,0.0,0.0,0.0,0.0,0.0,0.0,0.0,0.0,0.0,0.0,0.0,0.0,0.0,0.0,0.0,0.0,0.0,0.0,0.0,0.0,0.0,0.0,0.0,0.0,0.0,0.0,0.0,0.0,0.0,0.0,0.0,0.0,0.0,0.0,0.0,0.0,0.0,0.0,0.0,0.0,0.0,0.0,0.0,0.0,0.0,0.0,0.0,0.0,0.0,0.0,0.0,0.0,0.0,0.0,0.0,0.0,0.0,0.0,0.0,0.0,0.0,0.0,0.0,0.0,0.0,0.0,0.0,0.0,0.0,0.0,0.0,0.0,0.0,0.0,0.0,0.0,0.0,0.0,0.0,0.0,0.0,0.0,0.0,0.0,0.0,0.0,0.0,0.0,0.0,0.0,0.0,0.0,0.0,0.0,0.0,0.0,0.0,0.0,0.0,0.0,0.0,0.0,0.0,0.0,0.0,0.0,0.0,0.0,0.0,0.0,0.0,0.0,0.0,0.0,0.0,0.0,0.0,0.0,0.0,0.0,0.0,0.0,0.0,0.0,0.0,0.0,0.0,0.0,0.0,0.0,0.0,0.0,0.0,0.0,0.0,0.0,0.0,0.0,0.0,0.0,0.0,0.0,0.0,0.0,0.0,0.0,0.0,0.0,0.0,0.0,0.0,0.0,0.0,0.0,0.0,0.0,0.0,0.0,0.0,0.0,0.0,0.0,0.0,0.0,0.0,0.0,0.0,0.0,0.0,0.0,0.0,0.0,0.0,0.0,0.0,0.0,0.0,0.0,0.0,0.0,0.0,0.0,0.0,0.0,0.0,0.0,0.0,0.0,0.0,0.0,0.0,0.0,0.0,0.0,0.0,0.0,0.0,0.0,0.0,0.0,0.0,0.0,0.0,0.0,0.0,0.0,0.0,0.0,0.0,0.0,0.0,0.0,0.0,0.0,0.0,0.0,0.0,0.0,0.0,0.0,0.0,0.0,0.0,0.0,0.0,0.0,0.0,0.0,0.0,0.0,0.0,0.0,0.0,0.0,0.0,0.0,0.0,0.0,0.0,0.0,0.0,0.0,0.0,0.0,0.0,0.0,0.0,0.0,0.0,0.0,0.0,0.0,0.0,0.0,0.0,0.0,0.0,0.0,0.0,0.0,0.0,0.0,0.0,0.0,0.0,0.0,0.0,0.0,0.0,0.0,0.0,0.0,0.0,0.0,0.0,0.0,0.0,0.0,0.0,0.0,0.0,0.0,0.0,0.0,0.0,0.0,0.0,0.0,0.0,0.0,0.0,0.0,0.0,0.0,0.0,0.0,0.0,0.0,0.0,0.0,0.0,0.0,0.0,0.0,0.0,0.0,0.0,0.0,0.0,0.0,0.0,0.0,0.0,0.0,0.0,0.0,0.0,0.0,0.0,0.0,0.0,0.0,0.0,0.0,0.0,0.0,0.0,0.0,0.0,0.0,0.0,0.0,0.0,0.0,0.0,0.0,0.0,0.0,0.0,0.0,0.0,0.0,0.0,0.0,0.0,0.0,0.0,0.0,0.0,0.0,0.0,0.0,0.0,0.0,0.0,0.0,0.0,0.0,0.0,0.0,0.0,0.0,0.0,0.0,0.0,0.0,0.0,0.0,0.0,0.0,0.0,0.7442,0.0,0.0,0.0,0.0,0.0,0.0,0.0,0.0,0.0,0.0,0.0,0.0,0.0,0.0,0.0,0.0,0.0,0.0,0.0,0.0,0.0,0.0,0.0,0.0,0.0,0.0,0.0,0.0,0.0,0.0,0.0,0.0,0.0,0.0,0.0,0.0,0.0,0.0,0.0,0.4986,0.5165,0.5307,0.5212,0.4833,0.4242,0.0,0.0,0.0,0.0,0.0,0.0,0.0,0.0,0.0,0.0,0.0,0.0,0.0,0.0,0.0,0.0,0.0,0.0,0.0,0.0,0.0,0.0,0.0,0.0,0.0,0.0,0.0,0.0,0.0,0.0,0.0,0.0,0.0,0.0,0.0,0.0,0.0,0.0,0.0,0.0,0.0,0.0,0.0,0.0,0.0,0.0,0.0,0.0,0.0,0.0,0.0,0.0,0.0,0.0,0.0,0.0,0.0,0.0,0.0,0.0,0.0,0.0,0.0,0.0,0.0,0.0,0.0,0.0,0.0,0.0,0.0,0.789,0.0,0.0,0.0,0.0,0.0,0.0,0.0,0.0,0.0,0.0,0.0,0.0,0.0,0.0,0.0,0.0,0.0,0.0,0.0,0.0,0.0,0.0,0.0,0.0,0.3675,0.409,0.4039,0.4001,0.0,0.0,0.0,0.0,0.0,0.0,0.0,0.4264,0.4734,0.5279,0.5219,0.5328,0.5622,0.6103,0.6246,0.6069,0.5465,0.0,0.0,0.0,0.0,0.0,0.0,0.0,0.0,0.0,0.0,0.0,0.0,0.0,0.0,0.0,0.0,0.0,0.0,0.0,0.0,0.0,0.0,0.0,0.0,0.0,0.0,0.0,0.0,0.0,0.0,0.0,0.0,0.0,0.0,0.0,0.0,0.0,0.0,0.0,0.0,0.0,0.0,0.0,0.0,0.0,0.0,0.0,0.0,0.0,0.0,0.0,0.0,0.0,0.0,0.0,0.0,0.0,0.0,0.0,0.0,0.0,0.0,0.0,0.508,0.5056,0.5323,0.6045,0.6197,0.5937,0.6943,0.7315,0.7246,0.7144,0.0,0.0,0.0,0.0,0.0,0.0,0.0,0.0,0.0,0.0,0.0,0.0,0.0,0.0,0.0,0.0,0.0,0.0,0.0,0.0,0.0,0.3251,0.3687,0.4138,0.4068,0.4057,0.4155,0.0,0.0,0.0,0.0,0.0,0.4406,0.4855,0.4984,0.4782,0.5584,0.6372,0.7215,0.7787,0.8088,0.8016,0.601,0.5298,0.5564,0.0,0.0,0.0,0.0,0.0,0.0,0.0,0.0,0.0,0.0,0.0,0.0,0.0,0.0,0.0,0.0,0.0,0.0,0.0,0.0,0.0,0.0,0.0,0.0,0.0,0.0,0.0,0.0,0.0,0.0,0.0,0.0,0.0,0.0,0.0,0.0,0.0,0.0,0.0,0.0,0.0,0.5245,0.571,0.0,0.0,0.0,0.0,0.0,0.0,0.0,0.0,0.0,0.0,0.0,0.0,0.0,0.4079,0.3888,0.422,0.424,0.3978,0.4735,0.504,0.4972,0.5299,0.5602,0.5855,0.6297,0.0,0.6556,0.5873,0.0,0.0,0.0,0.0,0.0,0.0,0.0,0.0,0.0,0.0,0.0,0.0,0.0,0.0,0.0,0.0,0.0,0.0,0.0,0.0,0.0,0.3356,0.3675,0.3943,0.3948,0.4108,0.4449,0.4411,0.0,0.0,0.0,0.4961,0.5118,0.5201,0.5177,0.5032,0.5721,0.6232,0.6617,0.7416,0.7792,0.7782,0.7125,0.6701,0.6421,0.565,0.0,0.0,0.0,0.0,0.0,0.0,0.0,0.0,0.0,0.0,0.0,0.0,0.0,0.0,0.0,0.0,0.0,0.0,0.0,0.0,0.0,0.0,0.0,0.0,0.0,0.0,0.0,0.0,0.0,0.0,0.0,0.0,0.0,0.0,0.0,0.0,0.0,0.0,0.0,0.4884,0.5311,0.5251,0.5388,0.5302,0.0,0.0,0.0,0.0,0.0,0.0,0.0,0.0,0.0,0.435,0.4006,0.3789,0.3713,0.3869,0.3912,0.388,0.4448,0.4724,0.4737,0.5248,0.55,0.559,0.5942,0.6142,0.6195,0.5856,0.5817,0.5956,0.0,0.0,0.0,0.0,0.497,0.4748,0.0,0.0,0.0,0.0,0.0,0.0,0.0,0.0,0.0,0.0,0.0,0.0,0.3051,0.3402,0.3667,0.3856,0.3938,0.4245,0.4881,0.4834,0.0,0.0,0.5642,0.5613,0.5613,0.538,0.5303,0.5408,0.5658,0.5874,0.6022,0.6834,0.7234,0.7308,0.7858,0.7826,0.7317,0.6511,0.5808,0.5185,0.0,0.0,0.0,0.0,0.0,0.0,0.0,0.0,0.0,0.0,0.0,0.0,0.0,0.0,0.0,0.0,0.0,0.0,0.0,0.0,0.0,0.0,0.0,0.0,0.0,0.0,0.0,0.0,0.0,0.0,0.0,0.0,0.0,0.0,0.0,0.0,0.0,0.5496,0.5544,0.5033,0.5274,0.5258,0.0,0.0,0.0,0.0,0.0,0.0,0.4612,0.4118,0.3968,0.4157,0.3817,0.3621,0.373,0.3588,0.3611,0.3842,0.4202,0.4466,0.4633,0.5235,0.5499,0.5451,0.5737,0.5832,0.5851,0.5893,0.58,0.5608,0.5332,0.5101,0.4965,0.4863,0.4653,0.4446,0.0,0.0,0.0,0.0,0.0,0.0,0.0,0.0,0.0,0.0,0.0,0.2226,0.2755,0.3285,0.3732,0.4068,0.4147,0.4587,0.5499,0.5025,0.5047,0.5837,0.5751,0.5705,0.5705,0.5304,0.5303,0.5683,0.5378,0.5583,0.6293,0.6705,0.7057,0.733,0.768,0.8047,0.8366,0.7357,0.662,0.6099,0.5608,0.0,0.0,0.0,0.0,0.0,0.0,0.0,0.0,0.0,0.0,0.0,0.0,0.0,0.0,0.0,0.0,0.0,0.0,0.0,0.0,0.0,0.0,0.0,0.0,0.0,0.0,0.0,0.0,0.0,0.0,0.0,0.0,0.0,0.0,0.0,0.0,0.0,0.0,0.5491,0.4975,0.0,0.0,0.0,0.0,0.4314,0.4703,0.4784,0.4425,0.433,0.4214,0.4121,0.3427,0.3119,0.3238,0.3109,0.3135,0.3337,0.3993,0.4418,0.4632,0.5087,0.5389,0.5503,0.5653,0.5605,0.5436,0.5573,0.598,0.6496,0.5948,0.6046,0.6412,0.5861,0.55,0.53,0.0,0.0,0.0,0.0,0.0,0.0,0.0,0.0,0.125,0.1669,0.1956,0.2369,0.2991,0.3062,0.3176,0.343,0.3401,0.3588,0.4096,0.4515,0.5075,0.5737,0.6012,0.5919,0.5458,0.5019,0.4953,0.5314,0.5143,0.538,0.5972,0.642,0.6734,0.6926,0.7517,0.7749,0.7641,0.7278,0.6842,0.6344,0.5986,0.5378,0.0,0.0,0.0,0.0,0.0,0.0,0.0,0.0,0.0,0.0,0.0,0.0,0.0,0.0,0.0,0.0,0.0,0.0,0.0,0.0,0.0,0.0,0.0,0.0,0.0,0.0,0.0,0.0,0.0,0.0,0.0,0.0,0.0,0.0,0.0,0.0,0.0,0.519,0.5216,0.0,0.4507,0.4668,0.4683,0.4433,0.4385,0.4408,0.4506,0.4189,0.4004,0.4085,0.3626,0.3329,0.3197,0.3253,0.319,0.3098,0.3672,0.4049,0.431,0.4661,0.4973,0.52,0.5234,0.5144,0.4985,0.4865,0.5155,0.5685,0.5407,0.5386,0.5473,0.5317,0.4974,0.4588,0.0,0.0,0.0,0.0,0.0,0.0,0.0,0.0,0.107,0.1424,0.1766,0.2182,0.2755,0.2732,0.276,0.2941,0.2814,0.3044,0.3853,0.436,0.5072,0.6055,0.6125,0.5758,0.5014,0.4725,0.4675,0.4793,0.4788,0.4981,0.5344,0.5824,0.6058,0.6178,0.6778,0.6979,0.6779,0.6741,0.6537,0.6271,0.5867,0.5535,0.5238,0.0,0.0,0.0,0.0,0.0,0.0,0.0,0.0,0.0,0.0,0.0,0.0,0.0,0.0,0.0,0.0,0.0,0.0,0.0,0.0,0.0,0.0,0.0,0.0,0.0,0.0,0.0,0.0,0.0,0.0,0.0,0.0,0.0,0.0,0.0,0.5904,0.5292,0.5439,0.5386,0.4836,0.4832,0.4783,0.462,0.4275,0.4211,0.4506,0.4053,0.3811,0.3882,0.3534,0.322,0.2948,0.3038,0.3038,0.2903,0.3301,0.3565,0.3829,0.4136,0.4401,0.4624,0.4792,0.4794,0.4672,0.4585,0.4639,0.4828,0.4717,0.4712,0.4761,0.4839,0.4372,0.3617,0.0,0.0,0.0,0.0,0.0,0.0,0.0,0.038,0.0647,0.0784,0.1181,0.1631,0.2047,0.2242,0.2469,0.2645,0.2432,0.3042,0.4881,0.4559,0.5041,0.6755,0.6006,0.5188,0.4401,0.451,0.4433,0.4211,0.4323,0.4394,0.4436,0.4887,0.5086,0.5119,0.5434,0.5749,0.5946,0.5768,0.5755,0.5828,0.5346,0.5317,0.5543,0.0,0.0,0.0,0.0,0.0,0.0,0.0,0.0,0.0,0.0,0.0,0.0,0.0,0.0,0.0,0.0,0.0,0.0,0.0,0.0,0.0,0.0,0.0,0.0,0.0,0.0,0.0,0.0,0.0,0.0,0.0,0.0,0.0,0.612,0.6204,0.6222,0.5953,0.5618,0.5445,0.5479,0.4974,0.464,0.4791,0.4469,0.428,0.428,0.3884,0.3621,0.3411,0.31,0.2787,0.2515,0.2515,0.2561,0.2696,0.2915,0.3046,0.3182,0.3535,0.3753,0.3922,0.4368,0.4508,0.4426,0.4646,0.4508,0.4106,0.4092,0.4212,0.4372,0.4539,0.3818,0.2516,0.0,0.0,0.0,0.0,0.0,0.0,0.0,0.0179,0.0549,0.058,0.0832,0.1195,0.1747,0.1762,0.1851,0.2103,0.189,0.2097,0.2946,0.3554,0.4366,0.5466,0.4957,0.44,0.3823,0.3892,0.4017,0.413,0.4269,0.4448,0.4681,0.4963,0.5077,0.5035,0.5379,0.5498,0.5397,0.5153,0.5047,0.506,0.561,0.5752,0.553,0.0,0.0,0.0,0.0,0.0,0.0,0.0,0.0,0.0,0.0,0.0,0.0,0.0,0.0,0.0,0.0,0.0,0.0,0.0,0.0,0.0,0.0,0.0,0.0,0.0,0.0,0.0,0.0,0.0,0.0,0.0,0.0,0.6619,0.6518,0.6751,0.6746,0.6267,0.6012,0.5836,0.5601,0.5026,0.4662,0.4593,0.4075,0.382,0.3867,0.3544,0.3404,0.3598,0.3264,0.2974,0.2874,0.2825,0.2684,0.24,0.2687,0.273,0.2675,0.2771,0.3108,0.3641,0.3895,0.409,0.4225,0.3892,0.3894,0.4065,0.3832,0.3514,0.3197,0.2754,0.1771,0.0486,0.0,0.0,0.0,0.0,0.0,0.0,0.0,-0.0157,0.0116,0.0125,0.0429,0.0834,0.1318,0.1409,0.1533,0.1693,0.1688,0.1961,0.2586,0.3618,0.428,0.4452,0.4169,0.3835,0.3488,0.3522,0.3655,0.3908,0.4031,0.4213,0.4414,0.4678,0.4759,0.4692,0.4828,0.4849,0.4863,0.4661,0.4541,0.4555,0.5284,0.5476,0.5207,0.4865,0.4904,0.5093,0.4495,0.4228,0.4179,0.4201,0.0,0.0,0.0,0.0,0.0,0.0,0.0,0.0,0.0,0.0,0.0,0.0,0.0,0.0,0.0,0.0,0.0,0.0,0.0,0.0,0.0,0.0,0.0,0.0,0.6642,0.6672,0.6629,0.6658,0.6578,0.6304,0.596,0.571,0.5689,0.4941,0.4443,0.4373,0.3772,0.34,0.3449,0.3257,0.3194,0.3315,0.3118,0.287,0.2568,0.2618,0.2419,0.197,0.2017,0.2065,0.2162,0.1808,0.1958,0.251,0.3016,0.3568,0.4165,0.3717,0.3669,0.0,0.0,0.0,0.0,0.0,-0.0133,-0.1069,0.0,0.0,0.0,0.0,0.0,0.0,0.0,-0.0582,-0.0439,-0.045,-0.0,0.0436,0.0789,0.1094,0.1295,0.1379,0.1736,0.2297,0.3114,0.4102,0.4347,0.366,0.36,0.345,0.3243,0.3308,0.3389,0.3584,0.371,0.3797,0.3851,0.4199,0.4262,0.4181,0.4,0.409,0.4316,0.41,0.4069,0.4136,0.4517,0.4723,0.4749,0.457,0.4853,0.5245,0.5085,0.4748,0.4375,0.4365,0.0,0.0,0.0,0.0,0.0,0.0,0.0,0.0,0.0,0.0,0.0,0.0,0.0,0.0,0.0,0.0,0.0,0.0,0.0,0.0,0.0,0.0,0.0,0.0,0.7063,0.6734,0.6524,0.6087,0.5889,0.6179,0.5572,0.5293,0.5575,0.4679,0.4055,0.4064,0.3395,0.2985,0.2985,0.0,0.0,0.0,0.0,0.2503,0.2045,0.22,0.1943,0.1379,0.1073,0.1073,0.1328,0.0612,0.051,0.1021,0.1882,0.2947,0.402,0.3761,0.3556,0.335,0.2676,0.1868,0.0897,-0.073,-0.171,-0.22,0.0,0.0,0.0,0.0,0.0,0.0,0.0,-0.098,-0.0667,-0.0723,-0.0409,-0.0027,0.0309,0.0449,0.0727,0.127,0.1496,0.1949,0.2824,0.3022,0.3167,0.331,0.3276,0.3177,0.3004,0.3244,0.3457,0.3598,0.3622,0.3618,0.3585,0.3803,0.3764,0.3489,0.351,0.3579,0.3712,0.3319,0.322,0.3298,0.3302,0.3745,0.4383,0.4171,0.4292,0.4598,0.4688,0.4729,0.4848,0.5281,0.5024,0.4563,0.4626,0.468,0.0,0.0,0.0,0.0,0.0,0.0,0.0,0.0,0.0,0.0,0.0,0.0,0.0,0.0,0.0,0.0,0.0,0.0,0.0,0.655,0.622,0.5975,0.6243,0.5584,0.5195,0.5441,0.5199,0.4826,0.4558,0.4019,0.3524,0.3185,0.2743,0.242,0.2314,0.2212,0.2243,0.2525,0.2527,0.2417,0.2308,0.2036,0.1486,0.0605,0.0,0.0,-0.0715,-0.066,-0.033,0.0275,0.1096,0.2133,0.3223,0.323,0.3071,0.273,0.1702,0.0738,-0.019,-0.1224,-0.1978,-0.2474,0.0,0.0,0.0,0.0,0.0,0.0,0.0,-0.1295,-0.106,-0.0976,-0.0729,-0.041,-0.0029,0.0147,0.0416,0.086,0.1227,0.1799,0.259,0.2565,0.2554,0.2647,0.2861,0.2942,0.2907,0.3108,0.3249,0.3422,0.3487,0.3535,0.3572,0.3663,0.3613,0.3399,0.3137,0.3131,0.3244,0.274,0.2573,0.2629,0.2577,0.2881,0.3423,0.3629,0.3827,0.4009,0.4201,0.4239,0.4317,0.4739,0.4659,0.4437,0.4718,0.4826,0.4859,0.0,0.0,0.0,0.0,0.0,0.0,0.0,0.0,0.0,0.0,0.0,0.0,0.0,0.0,0.4734,0.0,0.0,0.5658,0.6408,0.587,0.5395,0.5437,0.4895,0.462,0.512,0.4736,0.4348,0.4015,0.3627,0.3273,0.3165,0.2618,0.2238,0.2293,0.2076,0.2037,0.2295,0.2239,0.209,0.1839,0.1414,0.0905,0.0403,-0.0339,-0.0785,-0.1122,-0.1403,-0.157,-0.1457,0.0056,0.1339,0.239,0.2561,0.2399,0.1837,0.0485,-0.0156,-0.0502,-0.1723,-0.2177,-0.2244,0.0,0.0,0.0,0.0,0.0,0.0,0.0,-0.1587,-0.1462,-0.1207,-0.1032,-0.0767,-0.0356,-0.0115,0.0146,0.0477,0.0838,0.1402,0.2199,0.2159,0.2072,0.2095,0.2476,0.2768,0.2932,0.3008,0.3124,0.329,0.3334,0.3387,0.3401,0.3377,0.3299,0.3163,0.2704,0.2571,0.2683,0.2239,0.2072,0.2127,0.2127,0.2239,0.2409,0.2855,0.3246,0.351,0.3655,0.3782,0.385,0.4026,0.4109,0.4195,0.4495,0.4639,0.4723,0.473,0.4722,0.0,0.0,0.0,0.0,0.0,0.0,0.0,0.0,0.0,0.4803,0.4395,0.4337,0.4634,0.5396,0.5307,0.5336,0.6071,0.549,0.4891,0.4728,0.4231,0.4121,0.4625,0.4185,0.3687,0.3519,0.3187,0.3077,0.3134,0.2518,0.2184,0.2298,0.2017,0.1904,0.196,0.1802,0.1605,0.1414,0.0803,0.0287,-0.0059,-0.0684,-0.1009,-0.1121,-0.1964,-0.2582,-0.2973,-0.0671,0.0837,0.1609,0.1944,0.1779,0.1058,-0.0724,-0.1206,-0.1012,-0.2113,-0.2284,-0.1921,0.0,0.0,0.0,0.0,0.0,0.0,0.0,0.0,-0.1696,-0.1474,-0.1396,-0.1148,-0.0687,-0.0666,-0.0342,0.0501,0.0094,0.0273,0.1373,0.1325,0.1511,0.2056,0.244,0.2778,0.3147,0.3149,0.3312,0.3543,0.3276,0.2999,0.2771,0.2511,0.229,0.2169,0.1846,0.1849,0.207,0.1794,0.1738,0.1846,0.1846,0.1846,0.1847,0.1794,0.2296,0.3004,0.3062,0.3765,0.4575,0.414,0.4311,0.4644,0.4347,0.4353,0.4298,0.3522,0.0,0.4445,0.4032,0.4302,0.4883,0.5627,0.5097,0.4525,0.0,0.0,0.3843,0.3441,0.3519,0.368,0.3779,0.3994,0.428,0.4669,0.45,0.4413,0.4688,0.4072,0.357,0.3352,0.3129,0.2851,0.2406,0.2576,0.2633,0.2351,0.2015,0.1792,0.1684,0.1459,0.1402,0.1572,0.0923,0.0939,0.1711,0.0646,-0.047,-0.1532,-0.1369,-0.1458,-0.1903,-0.2516,-0.2911,-0.286,-0.0279,0.0834,0.0887,0.1446,0.1447,0.089,-0.1719,-0.2824,-0.2915,-0.2512,-0.2179,-0.1978,0.0,0.0,0.0,0.0,0.0,0.0,0.0,0.0,0.0,-0.1661,-0.1705,-0.1598,-0.1158,-0.0917,-0.0459,0.0413,-0.0032,-0.0035,0.0719,0.0874,0.1179,0.1716,0.2386,0.2841,0.2962,0.31,0.3283,0.347,0.3414,0.3245,0.291,0.2685,0.2405,0.2127,0.1739,0.157,0.1457,0.129,0.1234,0.1289,0.1345,0.1457,0.1513,0.1459,0.1751,0.2321,0.2809,0.3405,0.0,0.4244,0.4334,0.4232,0.3492,0.3775,0.4314,0.3947,0.4422,0.0,0.4431,0.4572,0.4844,0.0,0.4801,0.4646,0.4469,0.4273,0.4047,0.359,0.3584,0.3627,0.3542,0.3653,0.3819,0.0,0.3629,0.3577,0.3523,0.3188,0.274,0.2128,0.2238,0.2293,0.2014,0.2465,0.2712,0.2476,0.2132,0.1902,0.1673,0.1175,0.0824,0.0578,0.0357,0.0183,0.0124,-0.0183,-0.0733,-0.1677,-0.1807,-0.2136,-0.261,-0.2608,-0.2663,-0.2713,-0.1751,-0.0729,0.0228,0.0168,0.0556,0.0831,-0.3159,-0.4778,-0.4842,-0.4483,-0.3778,-0.3054,0.0,0.0,0.0,0.0,0.0,0.0,0.0,0.0,0.0,0.0,-0.1923,-0.1899,-0.1559,-0.111,-0.0616,-0.0031,-0.0195,-0.0175,0.0191,0.0556,0.0926,0.1285,0.2165,0.2703,0.2777,0.2969,0.3139,0.3301,0.336,0.3247,0.2965,0.2796,0.2462,0.2073,0.174,0.1403,0.1066,0.0954,0.0897,0.0897,0.101,0.1122,0.1177,0.1166,0.1448,0.1899,0.255,0.302,0.3408,0.3891,0.3988,0.381,0.2952,0.3341,0.4138,0.4146,0.4807,0.538,0.4783,0.4811,0.4838,0.4131,0.4126,0.422,0.3595,0.356,0.3593,0.3161,0.3185,0.3195,0.2768,0.2969,0.3111,0.2841,0.2812,0.2806,0.2721,0.2479,0.2073,0.1402,0.1626,0.1736,0.1567,0.2241,0.2604,0.2376,0.2165,0.1822,0.1351,0.0606,-0.0,-0.0358,-0.0553,-0.0757,-0.1097,-0.0948,-0.1199,-0.1803,-0.2253,-0.2653,-0.2902,-0.2835,-0.3011,-0.348,-0.348,-0.281,-0.1752,-0.2046,-0.1622,-0.1272,-0.5505,-0.724,-0.7377,-0.7641,-0.6561,-0.4877,0.0,0.0,0.0,0.0,0.0,0.0,0.0,0.0,0.0,0.0,0.0,0.0,0.0,-0.1322,-0.0986,-0.0955,-0.0618,-0.0379,-0.0291,0.0329,0.0727,0.0839,0.1553,0.2185,0.2775,0.2756,0.285,0.3131,0.2857,0.2747,0.2691,0.2353,0.2073,0.1797,0.1684,0.1403,0.1066,0.0954,0.0897,0.0897,0.0897,0.0897,0.0894,0.0919,0.133,0.1902,0.2092,0.2608,0.314,0.2689,0.3114,0.3697,0.3094,0.3169,0.0,0.3503,0.4498,0.5462,0.4852,0.4962,0.4935,0.3587,0.2872,0.2427,0.2259,0.2092,0.1909,0.1537,0.1862,0.1825,0.0765,0.1376,0.2038,0.1927,0.2115,0.2377,0.2742,0.2225,0.1679,0.1346,0.1291,0.1235,0.0,0.1736,0.2128,0.1849,0.179,0.1351,0.0411,-0.0545,-0.1046,-0.1045,-0.1965,-0.1997,-0.1095,-0.1545,-0.1932,-0.2256,-0.2756,-0.2902,-0.2715,-0.3384,-0.442,-0.5759,-0.5123,-0.5201,-0.573,-0.5413,-0.5646,-0.6421,-0.9146,-1.043,-1.0882,-1.2072,-1.0641,-0.752,0.0,0.0,0.0,0.0,0.0,0.0,0.0,0.0,0.0,0.0,0.0,0.0,0.0,0.0,0.0,0.0,-0.0753,-0.0397,-0.0072,-0.0339,-0.0158,0.0587,0.1021,0.1445,0.1844,0.2239,0.2601,0.2927,0.2785,0.271,0.2656,0.2494,0.2184,0.1793,0.1514,0.1235,0.0954,0.0897,0.0897,0.0896,0.0876,0.1191,0.1513,0.1069,0.1067,0.143,0.0,0.3027,0.3458,0.255,0.2736,0.3149,0.176,0.2205,0.3303,0.3376,0.4289,0.493,0.3362,0.3252,0.3438,0.275,0.2342,0.2081,0.1949,0.1765,0.156,0.1529,0.2168,0.2573,0.1948,0.3239,0.3964,0.2472,0.3531,0.3958,0.2045,0.1724,0.1492,0.1068,0.1259,0.0,0.0,0.0,0.0,0.133,0.1251,0.0788,-0.0121,-0.0763,-0.1295,-0.1778,-0.2091,-0.2123,-0.1857,-0.199,-0.2254,-0.2583,-0.3214,-0.3395,-0.3261,-0.4212,-0.5288,-0.6381,-0.6655,-0.6818,-0.6947,-0.6538,-0.612,-0.6032,-0.9285,-1.0967,-1.2121,-1.6563,-1.4923,-0.9826,0.0,0.0,0.0,0.0,0.0,0.0,0.0,0.0,0.0,0.0,0.0,0.0,0.0,0.0,0.0,0.0,0.0,-0.0293,-0.0137,-0.0398,-0.0419,-0.008,0.0502,0.0924,0.1163,0.1722,0.2185,0.2521,0.2399,0.2275,0.2152,0.2045,0.176,0.1349,0.1189,0.0926,0.0605,0.0761,0.0926,0.0987,0.0901,0.1262,0.1748,0.1138,0.1085,0.0,0.2296,0.2985,0.3395,0.2697,0.2789,0.2941,0.1589,0.2138,0.3282,0.3394,0.4393,0.5249,0.4134,0.3677,0.3249,0.2138,0.1784,0.167,0.1768,0.148,0.138,0.1909,0.2327,0.2644,0.275,0.3954,0.4328,0.2573,0.3543,0.3743,0.1499,0.1111,0.0938,0.0756,0.0888,0.1011,0.0,0.0,0.0,0.1001,0.0918,0.0438,-0.0625,-0.1179,-0.1799,-0.2488,-0.2664,-0.2622,-0.2353,-0.2488,-0.269,-0.2889,-0.349,-0.3823,-0.3818,-0.4796,-0.5834,-0.6945,-0.7889,-0.8493,-0.8757,-0.8948,-0.8593,-0.8262,-1.1069,-1.2533,-1.3559,-1.8298,-1.7719,-1.3636,0.0,0.0,0.0,0.0,0.0,0.0,0.0,0.0,0.0,0.0,0.0,0.0,0.0,0.0,0.0,0.0,0.0,0.0,-0.0463,0.0032,-0.0069,-0.1015,-0.0038,0.0571,0.0664,0.1155,0.159,0.1891,0.1642,0.1463,0.1378,0.1096,0.0779,0.0504,0.0756,0.0565,0.0053,0.0563,0.0873,0.1055,0.0867,0.1128,0.1572,0.1076,0.1312,0.1933,0.2165,0.2463,0.2815,0.3037,0.313,0.2981,0.2506,0.2716,0.3206,0.3549,0.4818,0.6183,0.6578,0.5623,0.4069,0.1857,0.1215,0.1191,0.154,0.1344,0.1404,0.2452,0.227,0.2174,0.0,0.0,0.3159,0.2295,0.2208,0.1972,0.1091,0.0361,0.006,0.0,0.0,0.0,0.0,0.0,0.0,0.0833,0.0,0.0257,-0.1095,-0.1787,-0.2487,-0.3227,-0.3629,-0.3494,-0.282,-0.3091,-0.3293,-0.3293,-0.3692,-0.409,-0.442,-0.5158,-0.6207,-0.7493,-0.891,-1.0062,-1.108,-1.2232,-1.2723,-1.2839,-1.4163,-1.4761,-1.5243,-1.7472,-1.894,-1.8386,0.0,0.0,0.0,0.0,0.0,0.0,0.0,0.0,0.0,0.0,0.0,0.0,0.0,0.0,0.0,0.0,0.0,0.0,-0.043,-0.0281,-0.0323,-0.0582,-0.0362,-0.015,-0.0039,0.0439,0.0696,0.0745,0.1092,0.117,0.1002,0.0725,0.055,0.0504,0.0353,0.0304,0.0307,0.0455,0.0659,0.0866,0.0836,0.1167,0.1659,0.0816,0.0988,0.1706,0.1862,0.1494,0.0,0.0,0.0,0.0,0.0,0.125,0.1344,0.2799,0.4053,0.4299,0.1297,0.1327,0.2057,0.145,0.143,0.1464,0.0958,0.1455,0.2079,0.1974,0.2651,0.3403,0.0,0.0,0.0,0.2806,0.3159,0.0,0.0592,-0.0062,0.0,0.0371,0.0,0.0522,0.0576,0.0531,0.0,0.0,-0.0065,-0.0709,-0.1804,-0.2363,-0.3019,-0.3627,-0.4106,-0.4175,-0.3888,-0.3955,-0.4155,-0.4418,-0.4824,-0.5155,-0.5542,-0.6214,-0.6999,-0.7892,-0.8935,-0.9952,-1.1017,-1.1479,-1.2,-1.2542,-1.2728,-1.3463,-1.4577,-1.6059,-1.6775,-1.6606,0.0,0.0,0.0,0.0,0.0,0.0,0.0,0.0,0.0,0.0,0.0,0.0,0.0,0.0,0.0,0.0,0.0,0.0,0.0,-0.0347,-0.0325,-0.0302,-0.0416,-0.0356,-0.0146,0.011,0.0298,0.0494,0.051,0.0564,0.0576,0.0087,-0.0136,-0.0093,-0.014,-0.0143,-0.0147,0.0097,0.0339,0.0,0.0,0.0798,0.128,0.0561,0.0556,0.0966,0.1433,0.0,0.0,0.0,0.0,0.0833,0.0739,0.0471,0.0303,0.1113,0.0,0.3047,-0.0144,0.0147,0.126,0.126,0.1382,0.1413,0.1155,0.1499,0.2037,0.2323,0.2755,0.0,0.3705,0.0,0.0,0.0,0.0,0.0,0.006,-0.0502,-0.0516,0.0,0.0066,0.0,0.0201,0.0069,-0.007,0.0,-0.0476,-0.0999,-0.184,-0.2636,-0.3292,-0.3897,-0.4433,-0.4643,-0.4368,-0.4314,-0.4485,-0.4815,-0.5223,-0.5684,-0.6135,-0.6677,-0.7458,-0.8476,0.0,-0.9904,-1.1038,-1.0989,-1.1494,-1.2301,-1.193,-1.2777,-1.4213,-1.4984,-1.5565,-1.5965,0.0,0.0,0.0,0.0,0.0,0.0,0.0,0.0,0.0,0.0,0.0,0.0,0.0,0.0,0.0,0.0,0.0,0.0,0.0,0.0,-0.0233,-0.0269,-0.0403,-0.0344,-0.0036,-0.0138,0.0069,0.0505,-0.0035,-0.0174,0.0073,-0.0551,-0.0888,-0.0877,-0.0585,-0.0611,-0.0795,-0.0271,0.0091,0.0235,0.0046,0.0275,0.0659,0.0,0.0046,-0.0,0.0,0.0,0.0,0.0,-0.0823,0.0626,0.0183,-0.0,-0.0132,-0.063,0.0712,0.2018,0.0455,0.0613,0.1223,0.1219,0.1114,0.1216,0.1626,0.1536,0.1684,0.2912,0.0,0.2452,0.2891,0.2761,0.2151,0.0825,0.0,0.0341,-0.055,-0.0887,-0.0913,-0.0603,-0.0539,-0.041,-0.014,-0.0424,-0.0643,-0.0658,-0.0646,-0.098,-0.177,-0.2713,-0.357,-0.4237,-0.4748,-0.4936,-0.468,-0.4484,-0.4619,-0.5014,-0.5422,-0.5949,-0.6597,-0.694,-0.7782,-0.893,-0.9011,-0.9719,-1.0933,-1.0684,-1.1185,-1.1999,-1.1677,-1.2536,-1.3881,-1.4163,-1.4928,-1.5884,0.0,0.0,0.0,0.0,0.0,0.0,0.0,0.0,0.0,0.0,-0.0889,-0.0905,0.0,0.0,0.0,0.0,0.0,0.0,0.0,0.0,0.0,-0.0604,-0.074,-0.0777,-0.0716,-0.0947,-0.0879,-0.0443,-0.0424,-0.0397,-0.0474,-0.0609,-0.0705,-0.0836,-0.0796,-0.0656,-0.0387,-0.0299,-0.0131,0.0045,-0.009,-0.0045,0.0091,-0.0225,0.0,0.0,0.0,0.0,0.0,0.0,-0.2026,-0.118,-0.1096,-0.054,-0.0,-0.0151,0.0154,0.0389,0.0082,0.0326,0.08,0.1098,0.1114,0.1113,0.1117,0.1671,0.0,0.0,0.2614,0.2795,0.2804,0.2204,0.0,0.0276,0.0,0.0,0.0,0.0,-0.0913,0.0,0.0,0.0,0.0,0.0,0.0,0.0,0.0,-0.1551,-0.2728,-0.3299,-0.4207,-0.5577,-0.5454,-0.5324,-0.5378,-0.53,-0.5491,-0.6148,-0.6472,-0.6994,-0.7722,-0.8052,-0.8379,-0.8571,-0.8891,0.0,-1.0215,-1.0488,-1.1,-1.1689,-1.1934,-1.2478,-1.3195,-1.3563,-1.4455,-1.5581,0.0,0.0,0.0,0.0,0.0,0.0,0.0,-0.0895,-0.0808,-0.0811,-0.0558,-0.0451,-0.0618,-0.0683,-0.0627,0.0,0.0,0.0,0.0,0.0,0.0,0.0,0.0,0.0,-0.0739,-0.0997,-0.1111,-0.1009,0.0,-0.0734,-0.0875,-0.079,-0.0737,-0.0756,-0.087,-0.0817,-0.0692,-0.0626,-0.0554,-0.0479,-0.0535,-0.0539,-0.0494,0.0,0.0,0.0,0.0,0.0,0.0,0.0,-0.2282,-0.2151,-0.2196,-0.1818,-0.1152,-0.0224,-0.0,-0.0,-0.0,0.0325,0.0726,0.1089,0.1177,0.117,0.1344,0.0,0.0,0.0,0.2103,0.2004,0.1418,0.0,0.0,0.0,0.0,0.0,0.0,0.0,0.0,0.0,0.0,0.0,0.0,0.0,0.0,0.0,0.0,-0.2168,-0.2982,-0.4046,-0.5067,-0.5952,-0.582,-0.5775,-0.598,-0.5827,-0.6043,-0.6683,-0.6806,-0.7398,-0.8252,-0.8249,-0.8511,-0.9031,-0.921,-0.9649,-1.0355,-1.0491,-1.1125,-1.1872,-1.1996,-1.2662,-1.3567,-1.3928,-1.4583,-1.5444,0.0,0.0,0.0,0.0,0.0,0.0,0.0,-0.0696,-0.0585,-0.0698,-0.027,-0.0045,-0.0323,-0.043,-0.0446,0.0,0.0,0.0,0.0,0.0,0.0,0.0,0.0,0.0,0.0,0.0,0.0,0.0,-0.1003,0.0,0.0,0.0,0.0,0.0,0.0,-0.0923,-0.097,-0.0886,-0.0869,0.0,0.0,-0.0892,0.0,0.0,0.0,0.0,0.0,0.0,0.0,0.0,-0.2353,-0.2697,-0.3011,-0.2847,-0.2299,-0.095,-0.0383,-0.024,-0.008,0.0242,0.0563,0.1074,0.1161,0.1225,0.1569,0.1377,0.0,0.0,0.1572,0.1122,0.0168,0.0,0.0,0.0,0.0,0.0,0.0,0.0,0.0,0.0,0.0,0.0,0.0,0.0,0.0,0.0,0.0,-0.3088,-0.3446,-0.475,-0.5715,-0.6078,-0.5986,-0.6039,-0.6303,-0.6113,-0.6358,-0.6881,-0.7054,-0.76,-0.8589,-0.8388,-0.8777,-0.9562,-0.9618,-1.0037,-1.0684,-1.0684,-1.1251,-1.2062,-1.2054,-1.2711,-1.3757,-1.4088,-1.4643,-1.5311,0.0,0.0,0.0,0.0,0.0,0.0,0.0,-0.027,-0.0067,-0.009,-0.009,-0.0023,0.0124,-0.0024,-0.016,0.0,0.0,0.0,0.0,0.0,0.0,0.0,0.0,0.0,0.0,0.0,0.0,0.0,0.0,0.0,0.0,0.0,0.0,0.0,0.0,0.0,-0.0661,-0.0701,0.0,0.0,0.0,0.0,0.0,0.0,0.0,0.0,0.0,0.0,0.0,0.0,0.0,-0.3097,-0.304,-0.2984,-0.2894,-0.2369,0.0,0.0,-0.0247,-0.0,0.0241,0.0997,0.1145,0.1129,0.1375,0.0,0.0,0.1573,0.1403,0.0954,0.0168,-0.0,-0.0162,0.0,0.0,-0.0332,0.0,0.0,0.0,0.0,0.0,0.0,0.0,0.0,0.0,0.0,0.0,-0.4398,-0.4813,-0.5447,-0.595,-0.623,-0.5844,-0.5825,-0.6299,-0.6067,-0.6236,-0.6883,-0.746,-0.809,-0.8899,-0.91,-0.9438,-0.9889,-0.99,-1.0361,0.0,-1.1059,-1.1498,-1.2123,-1.2062,-1.2437,-1.2925,-1.3104,-1.386,-1.4896,0.0,0.0,0.0,0.0,0.0,0.0,-0.0459,-0.0326,-0.0135,0.0202,0.0225,0.0228,0.0306,0.0275,0.016,-0.012,0.0,0.0,0.0,0.0,0.0,0.0,0.0,0.0,0.0,0.0,0.0,-0.077,-0.0686,0.0,0.0,0.0,0.0,0.0,0.0,0.0,0.0,0.0,0.0,0.0,0.0,0.0,0.0,0.0,0.0,0.0,0.0,0.0,0.0,0.0,0.0,0.0,-0.2329,-0.2133,0.0,0.0,-0.214,-0.1976,-0.162,-0.0952,-0.0322,-0.0,0.0429,0.0796,0.1126,0.0,0.0766,0.1229,0.1159,0.0821,0.0112,-0.0111,-0.0331,-0.0503,-0.0327,0.0,0.0,0.0,0.0,0.0,0.0,0.0,0.0,0.0,0.0,0.0,-0.3883,-0.4604,-0.57,-0.5959,-0.6134,-0.6257,-0.6382,-0.6561,-0.682,-0.6865,-0.7029,-0.7458,-0.7672,-0.7981,-0.8388,-0.8794,-0.9114,-0.9426,-1.0094,-1.0495,0.0,-1.1247,-1.1743,-1.2382,-1.259,-1.3194,-1.3899,-1.417,-1.4644,-1.5255,0.0,0.0,0.0,0.0,0.0,-0.0424,-0.0357,-0.0319,-0.0157,0.0247,0.0315,0.0318,0.0349,0.0342,0.0209,-0.0151,-0.0182,0.0,0.0,0.0,0.0,0.0,0.0,0.0,0.0,0.0,-0.0612,-0.0599,-0.0421,-0.0538,0.0,0.0,0.0,0.0,0.0,0.0,0.0,0.0,0.0,0.0,0.0,0.0,0.0,0.0,0.0,0.0,0.0,0.0,0.0,0.0,0.0,0.0,0.0,0.0,0.0,0.0,-0.1965,-0.2219,-0.2427,-0.1491,-0.0541,-0.0666,-0.014,0.0525,0.0,0.0,0.0436,0.0837,0.088,0.0708,0.0056,-0.0393,-0.0617,-0.0505,-0.0436,-0.0546,-0.1051,0.0,0.0,0.0,0.0,0.0,0.0,0.0,0.0,0.0,-0.447,-0.4979,-0.6249,-0.6338,-0.6338,-0.6338,-0.6517,-0.6793,-0.7145,-0.7176,-0.7435,-0.778,-0.778,-0.7938,-0.8189,-0.8542,-0.8892,-0.9314,-1.0072,-1.0614,0.0,-1.1373,-1.1934,-1.2398,-1.2735,-1.3376,-1.4213,-1.4612,-1.4981,-1.5346,0.0,0.0,0.0,0.0,0.0,0.0,-0.0216,-0.0149,-0.0045,0.009,0.0112,0.0139,0.0201,0.0094,-0.0093,-0.0374,-0.04,0.0,0.0,0.0,0.0,0.0,0.0,0.0,0.0,0.0,-0.0418,-0.0391,-0.0127,-0.0101,-0.0302,-0.0302,-0.037,0.0,0.0,0.0,0.0,0.0,0.0,0.0,0.0,0.0,0.0,0.0,0.0,0.0,0.0,0.0,0.0,0.0,0.0,0.0,0.0,0.0,0.0,0.0,-0.1235,-0.1501,-0.219,-0.1443,-0.0418,-0.0678,-0.0132,0.0445,0.0,0.046,0.0336,0.0224,0.056,0.0673,-0.0168,-0.0841,-0.1179,-0.0953,-0.0436,-0.0491,-0.1519,0.0,0.0,0.0,0.0,0.0,0.0,0.0,0.0,0.0,-0.5164,0.0,-0.6261,-0.6338,-0.6338,-0.6338,-0.6112,-0.6327,-0.6881,-0.6698,-0.702,-0.778,-0.778,-0.8095,-0.8714,-0.8412,-0.8907,-0.9892,-0.9946,-1.0591,0.0,-1.1556,-1.1813,-1.2092,-1.224,-1.264,-1.3207,-1.3733,-1.4374,-1.5023,0.0,0.0,0.0,0.0,0.0,0.0,0.0,-0.0295,-0.021,0.0061,0.0062,0.0043,0.007,-0.0137,-0.0363,-0.0582,-0.0479,0.0,0.0,0.0,0.0,0.0,0.0,0.0,0.0,0.0,-0.0089,-0.0056,0.0381,0.0504,0.0235,-0.0,-0.0202,-0.037,-0.0672,0.0,0.0,0.0,0.0,0.0,0.0,0.0,0.0,0.0,0.0,0.0,0.0,0.0,0.0,0.0,0.0,0.0,0.0,0.0,0.0,-0.135,0.0,0.0,-0.201,-0.1852,-0.1652,-0.1509,-0.096,-0.0248,0.0595,0.0113,-0.0327,0.0167,-0.0055,-0.0382,-0.0558,-0.0953,-0.1225,-0.1142,-0.0644,-0.0376,0.0,0.0,0.0,0.0,0.0,0.0,0.0,0.0,0.0,-0.4649,-0.5257,-0.5811,-0.6251,-0.6412,-0.6412,-0.6338,-0.6512,-0.6785,-0.7068,-0.717,-0.7433,-0.778,-0.778,-0.7884,-0.8083,-0.8207,-0.8578,-0.917,-0.9756,-1.0345,-1.0933,-1.1373,-1.1813,-1.2158,-1.2567,-1.3172,-1.3903,-1.4475,-1.4992,-1.539,0.0,0.0,0.0,0.0,0.0,0.0,0.0,-0.0394,-0.0334,-0.0143,-0.0161,-0.0183,-0.0178,-0.0405,-0.063,-0.083,-0.0717,0.0,0.0,0.0,0.0,0.0,0.0,0.0,0.0,-0.0285,0.006,0.014,0.0635,0.0773,0.0504,0.0302,0.0067,-0.0168,-0.0403,0.0,0.0,0.0,0.0,0.0,0.0,0.0,-0.0847,0.0,0.0,0.0,0.0,0.0,0.0,0.0,0.0,0.0,0.0,0.0,0.0,0.0,-0.1539,-0.1779,0.0,-0.1796,-0.1813,-0.1715,-0.121,0.0,0.0,0.0112,-0.0109,0.0335,-0.0276,-0.0875,-0.0838,-0.1235,-0.1505,-0.1364,-0.0903,-0.0576,0.0,0.0,0.0,0.0,0.0,0.0,0.0,0.0,0.0,-0.4826,-0.5475,-0.5981,-0.6251,-0.6488,-0.6488,-0.6338,-0.6563,-0.6868,-0.7228,-0.7331,-0.7535,-0.7893,-0.7818,-0.778,-0.7777,-0.7956,-0.8317,-0.8912,-0.9397,-1.0098,0.0,-1.1247,-1.1626,-1.1983,-1.277,-1.3334,-1.3794,-1.4617,-1.5225,-1.5537,0.0,0.0,0.0,0.0,0.0,0.0,0.0,-0.0462,-0.0458,-0.0502,-0.0517,-0.053,-0.0512,-0.0698,-0.0876,-0.1073,0.0,0.0,0.0,0.0,0.0,0.0,0.0,0.0,-0.0971,-0.0335,0.006,0.0196,0.0667,0.0773,0.0538,0.0504,0.037,0.0134,0.0034,-0.0067,0.0,0.0,0.0,0.0,0.0,0.0,0.0,0.0,0.0,0.0,0.0,0.0,0.0,0.0,0.0,0.0,0.0,0.0,0.0,0.0,0.0,0.0,0.0,-0.1386,0.0,0.0,0.0,0.0,0.0,0.028,0.0,0.056,-0.0224,-0.0951,-0.1066,-0.1684,-0.2077,-0.1735,-0.1215,0.0,0.0,0.0,0.0,0.0,0.0,0.0,0.0,0.0,-0.4935,-0.4905,-0.5776,-0.6321,-0.6321,-0.647,-0.6544,-0.6306,-0.6306,-0.6623,-0.7228,-0.7212,-0.7477,-0.8054,-0.7853,-0.7766,-0.7773,-0.7624,-0.8052,0.0,-0.9025,-0.9783,-1.1062,-1.1062,-1.131,-1.1748,-1.2899,-1.3177,-1.3066,-1.44,-1.51,-1.5453,0.0,0.0,0.0,0.0,0.0,0.0,0.0,0.0,0.0,0.0,-0.0724,-0.0816,-0.0669,-0.0784,-0.0871,0.0,0.0,0.0,0.0,0.0,0.0,0.0,0.0,0.0,-0.0615,-0.0172,0.0119,0.0196,0.0763,0.0942,0.074,0.0672,0.0571,0.0403,0.0168,-0.0067,0.0,0.0,0.0,0.0,0.0,0.0,0.0,0.0,0.0,0.0,-0.0682,-0.0525,0.0,0.0,0.0,0.0,0.0,0.0,0.0,0.0,-0.1344,-0.144,-0.1697,0.0,-0.1353,-0.1318,-0.11,-0.0706,0.0,-0.033,-0.0272,0.0,0.0,0.0,-0.1228,-0.1628,-0.195,-0.217,0.0,0.0,0.0,0.0,0.0,0.0,0.0,0.0,0.0,0.0,-0.4798,-0.4771,-0.5849,-0.6459,-0.6303,-0.6457,-0.6477,-0.6279,-0.6271,-0.661,-0.7226,-0.7379,-0.7564,-0.7848,-0.7633,-0.7619,-0.7773,-0.7624,-0.8007,-0.8828,-0.897,-0.9594,-1.0495,-1.0933,-1.131,-1.1663,-1.2656,-1.3253,-1.3723,-1.4638,-1.5353,-1.5886,0.0,0.0,0.0,0.0,0.0,0.0,0.0,0.0,0.0,0.0,0.0,0.0,0.0,0.0,0.0,0.0,0.0,0.0,0.0,0.0,0.0,0.0,0.0,-0.0808,-0.0605,-0.0144,0.0121,0.0205,0.0837,0.1043,0.0841,0.0976,0.0942,0.0773,0.0571,0.0202,0.0,0.0,0.0,0.0,-0.0538,0.0,0.0,0.0,0.0,0.0,-0.0385,-0.022,0.0,-0.0088,-0.031,-0.0538,0.0,0.0,0.0,0.0,-0.1077,-0.1217,-0.1376,-0.1546,-0.1604,-0.1471,-0.1265,-0.0944,-0.0489,0.0,0.0,0.0,0.0,0.0,0.0,0.0,0.0,0.0,0.0,0.0,0.0,0.0,0.0,0.0,0.0,0.0,0.0,0.0,-0.4696,-0.4587,-0.5648,-0.622,-0.607,-0.6439,-0.6546,-0.6452,-0.6734,-0.6997,-0.7167,-0.7431,-0.7568,-0.7777,-0.7662,-0.7614,-0.7629,-0.7579,-0.7914,-0.8692,-0.8758,-0.9341,-1.0304,-1.0618,-1.0996,-1.1545,-1.2668,-1.3265,-1.3672,-1.474,-1.5491,-1.6035,0.0,0.0,0.0,0.0,0.0,0.0,0.0,0.0,0.0,0.0,0.0,0.0,0.0,0.0,0.0,0.0,0.0,0.0,0.0,0.0,0.0,0.0,0.0,-0.0682,-0.0654,-0.0173,0.0123,0.0246,0.085,0.1077,0.0976,0.1279,0.1314,0.1111,0.0976,0.0605,0.0,0.0,0.0,0.0,-0.0807,0.0,0.0,0.0,0.0,0.0,0.0,0.0,0.0,-0.0043,-0.0216,-0.0443,-0.0644,0.0,0.0,0.0,0.0,0.0,-0.0935,-0.1328,-0.1735,-0.1561,-0.1363,-0.1064,-0.0637,0.0,0.0,0.0,0.0,0.0,0.0,0.0,0.0,0.0,0.0,0.0,0.0,0.0,0.0,0.0,0.0,0.0,0.0,-0.4065,-0.451,-0.4375,-0.5333,-0.5855,-0.5704,-0.6199,-0.6485,-0.6558,-0.7028,-0.7234,-0.7114,-0.7405,-0.7608,-0.778,-0.7749,-0.7633,-0.7524,-0.7524,-0.7854,-0.8514,0.0,0.0,-1.0241,-1.0304,-1.0681,-1.1423,-1.2798,-1.3288,-1.3409,-1.4681,-1.5593,-1.6139,0.0,0.0,0.0,0.0,0.0,0.0,0.0,0.0,0.0,0.0,0.0,0.0,0.0,0.0,0.0,0.0,0.0,0.0,0.0,0.0,0.0,-0.0472,-0.0632,-0.0608,-0.0455,-0.0202,0.0123,0.0554,0.0817,0.1043,0.1246,0.1415,0.1415,0.1279,0.1144,0.0807,0.0302,-0.0302,-0.0504,-0.0471,-0.0639,0.0,0.0,0.0,0.0,0.0,0.0,0.0,0.0,0.0338,0.0169,-0.0342,-0.0617,0.0,0.0,0.0,0.0,0.0,-0.0679,-0.0883,-0.1212,-0.1195,-0.0957,-0.074,-0.0763,0.0,0.0,0.0,0.0,0.0,0.0,0.0,0.0,0.0,0.0,0.0,0.0,0.0,0.0,0.0,0.0,0.0,-0.306,-0.3625,-0.4129,-0.4368,-0.5028,-0.5415,-0.5345,-0.5611,-0.5887,-0.6235,-0.6441,-0.6638,-0.6783,-0.7411,-0.7742,-0.7777,-0.7593,-0.7555,-0.7524,-0.7524,-0.7854,-0.8514,0.0,-0.909,-1.005,-1.0241,-1.0681,-1.1401,-1.2534,-1.329,-1.3892,-1.485,-1.5627,-1.6397,0.0,0.0,0.0,0.0,0.0,0.0,0.0,0.0,0.0,0.0,0.0,0.0,0.0,0.0,0.0,0.0,0.0,0.0,0.0,0.0,-0.0436,-0.0407,-0.0413,-0.0349,-0.0134,-0.0,0.0291,0.0776,0.0963,0.1179,0.1415,0.1547,0.1548,0.1415,0.1279,0.0976,0.0538,0.0202,-0.0034,-0.0202,0.0,0.0,0.0,0.0,0.0,0.0,0.0,0.0,0.0,0.0,0.0379,0.0042,-0.0345,0.0,0.0,0.0,0.0,0.0,-0.0449,-0.041,-0.0565,-0.0813,-0.0554,-0.0349,-0.0576,0.0,0.0,0.0,0.0,0.0,0.0,0.0,0.0,0.0,0.0,0.0,0.0,0.0,0.0,0.0,0.0,-0.2723,-0.2991,-0.3387,-0.3734,-0.3922,-0.4552,-0.4849,-0.4787,-0.5047,-0.5384,-0.573,-0.5924,-0.6117,-0.6396,-0.6804,-0.7143,-0.7345,-0.725,-0.7265,-0.7524,-0.7524,-0.7854,-0.8514,0.0,-0.909,-0.9986,-1.0114,-1.0491,-1.1146,-1.2281,-1.2962,-1.357,-1.4996,-1.5932,-1.6617,0.0,0.0,0.0,0.0,0.0,0.0,0.0,0.0,0.0,0.0,0.0,0.0,0.0,0.0,0.0,0.0,0.0,0.0,0.0,0.0,-0.0393,-0.0394,-0.0291,-0.0139,0.0115,0.0319,0.0605,0.1009,0.1179,0.138,0.1617,0.1711,0.1712,0.1616,0.1415,0.1144,0.0807,0.0639,0.037,0.0067,0.0,0.0,0.0,0.0,0.0,0.0,0.0,0.0,0.0,0.0,0.0,0.0,0.0,0.0,0.0,-0.0315,-0.045,-0.045,-0.0135,-0.0,-0.0,-0.0291,-0.0196,-0.0,0.0051,0.0,0.0,0.0,0.0,0.0,0.0,0.0,0.0,0.0,0.0,0.0,0.0,0.0,0.0,0.0,-0.2333,-0.2538,-0.2857,-0.3086,-0.3361,-0.3501,-0.3892,-0.4183,-0.4095,-0.442,-0.4835,-0.5343,-0.5507,-0.5701,-0.6072,-0.6238,-0.6484,-0.6881,-0.6881,-0.7138,-0.7524,-0.7524,-0.7854,-0.8514,-0.8514,-0.909,-0.9986,-0.9986,-1.0301,-1.0887,-1.2004,-1.2789,-1.3457,-1.5032,-1.5945,-1.6469,0.0,0.0,0.0,0.0,0.0,0.0,0.0,0.0,0.0,0.0,0.0,0.0,0.0,0.0,0.0,0.0,0.0,0.0,0.0,0.0,-0.0406,-0.0408,-0.0392,-0.0217,0.0183,0.0749,0.1111,0.1279,0.1415,0.1649,0.1948,0.1913,0.1913,0.1947,0.1548,0.1314,0.1144,0.0807,0.0571,0.0336,0.0067,0.0,0.0,0.0,0.0,0.0,0.0,0.0,0.0,0.0,0.0,0.0,0.0,0.0,-0.0,0.0135,0.0045,-0.0,0.027,0.037,0.0425,0.0549,0.0317,0.0,0.1407,0.103,0.0,0.0,0.0,0.0,0.0,0.0,0.0,0.0,0.0,0.0,0.0,0.0,0.0,-0.1882,-0.214,-0.2348,-0.2414,-0.2534,-0.274,-0.3081,-0.3215,-0.3368,-0.3565,-0.3894,-0.4411,-0.5074,-0.5297,-0.5561,-0.5908,-0.59,-0.6286,-0.6881,-0.6881,-0.7138,-0.7524,-0.7524,-0.7854,-0.8514,-0.8514,-0.909,-0.9986,-0.9986,-1.0301,-1.0867,-1.17,-1.2903,-1.4271,-1.5005,-1.5377,-1.5595,0.0,0.0,0.0,0.0,0.0,0.0,0.0,0.0,0.0,0.0,0.0,0.0,0.0,0.0,0.0,0.0,0.0,0.0,0.0,-0.0608,-0.0575,-0.0532,-0.0473,-0.0344,-0.0058,0.0432,0.072,0.0873,0.1375,0.1718,0.1946,0.1946,0.1946,0.1913,0.1645,0.1412,0.1246,0.0942,0.0841,0.0807,0.0403,0.0235,0.0,0.0,0.0,0.0,0.0,0.0,0.0,0.0,0.05,0.0498,0.0662,0.0584,0.045,0.0494,0.0494,0.045,0.0539,0.0324,0.0238,0.0938,0.0793,0.0,0.0,0.1192,0.0,0.0,0.0,0.0,0.0,0.0,0.0,0.0,0.0,0.0,0.0,0.0,-0.2188,-0.2136,-0.1925,-0.1964,-0.2449,-0.2377,-0.246,-0.2799,-0.2906,-0.2889,-0.3024,-0.3225,-0.3642,-0.4288,-0.4582,-0.4914,-0.5371,-0.5521,-0.5824,-0.6286,-0.6484,-0.6745,-0.7138,-0.7396,-0.7854,-0.8514,-0.8514,-0.909,-0.9986,-0.9986,-1.0241,-1.0747,-1.1553,-1.2875,-1.4416,-1.4624,-1.5091,-1.5629,0.0,0.0,0.0,0.0,0.0,0.0,0.0,0.0,0.0,0.0,0.0,0.0,0.0,0.0,0.0,0.0,0.0,0.0,-0.0743,-0.0741,-0.0691,-0.0634,-0.0586,-0.05,-0.0367,-0.0,0.0315,0.0559,0.1253,0.1713,0.1913,0.1946,0.1981,0.1946,0.1777,0.1577,0.1378,0.121,0.1109,0.1111,0.0773,0.0639,0.0,0.0,0.0,0.0,0.0,0.0,0.0,0.0,0.0421,0.0509,0.0666,0.0719,0.0719,0.0719,0.0719,0.0764,0.0764,0.0514,0.0436,0.0,0.0,0.0,0.1377,0.14,0.0,0.0,0.0,0.0,0.0,0.0,0.0,0.0,0.0,0.0,0.0,-0.218,-0.2054,-0.1792,-0.173,-0.1836,-0.2169,-0.2172,-0.2265,-0.2551,-0.26,-0.2662,-0.2685,-0.3024,-0.3425,-0.3956,-0.4185,-0.4559,-0.5086,-0.5177,-0.535,-0.5608,-0.6057,-0.6505,-0.6946,-0.7398,-0.7987,-0.8517,-0.8644,-0.9151,-0.9986,-0.9986,-1.0301,-1.087,-1.1681,-1.2741,-1.3954,-1.4277,-1.4702,-1.5182,0.0,0.0,0.0,0.0,0.0,0.0,0.0,0.0,0.0,0.0,0.0,0.0,0.0,0.0,0.0,0.0,0.0,0.0,-0.0787,-0.0805,-0.0761,-0.0698,-0.0698,-0.0698,-0.0698,-0.0438,-0.0026,0.0503,0.1106,0.1558,0.1913,0.1913,0.1981,0.2082,0.1947,0.1777,0.1608,0.1608,0.1444,0.1212,0.1212,0.1144,0.1077,0.0,0.0,0.0,0.0,0.0,0.0,0.0,0.0337,0.068,0.071,0.0719,0.0719,0.0719,0.0809,0.0899,0.09,0.0953,0.11,0.0,0.0,0.0,0.0,0.0,0.0,0.0,0.0,0.0,0.0,0.0,0.0,0.0,0.0,0.0,-0.1808,-0.2018,-0.1766,-0.0628,-0.1504,-0.1971,-0.1536,-0.1799,-0.2022,-0.2215,-0.2425,-0.2611,-0.2682,-0.3226,-0.3761,-0.4285,-0.4298,-0.4553,-0.5065,-0.4989,-0.4919,-0.4919,-0.5584,-0.6262,-0.6944,-0.7657,-0.8179,-0.8514,-0.8826,-0.9402,-0.9986,-0.9986,-1.0551,-1.1365,-1.2058,-1.2478,-1.2891,-1.3954,-1.4139,-1.407,0.0,0.0,0.0,0.0,0.0,0.0,0.0,0.0,0.0,0.0,0.0,0.0,0.0,0.0,0.0,0.0,0.0,0.0,-0.0657,-0.0801,-0.0828,-0.0698,-0.0743,-0.072,-0.063,-0.0365,0.0027,0.0569,0.1069,0.1525,0.1913,0.1913,0.2045,0.231,0.2011,0.1913,0.1946,0.1709,0.1542,0.1408,0.1312,0.1212,0.1077,0.0,0.0,0.0,0.0,0.0,0.0,0.0,0.0,0.0,0.0716,0.0719,0.0719,0.0719,0.0809,0.095,0.1116,0.1069,0.0,0.0,0.0,0.0,0.0,0.0,0.0,0.0,0.0,0.0,0.0,0.0,0.0,-0.1919,-0.1928,-0.2018,-0.2085,-0.1713,-0.1272,-0.0834,-0.0701,-0.0953,-0.1794,-0.1833,-0.1884,-0.2025,-0.2178,-0.2329,-0.2414,-0.2805,-0.3323,-0.3906,-0.4113,-0.4485,-0.4982,-0.494,-0.4919,-0.4919,-0.5343,-0.5946,-0.6799,-0.7276,-0.7999,-0.8882,-0.8897,-0.9361,-1.0047,-1.0304,-1.0684,-1.1244,-1.1868,-1.2409,-1.3009,-1.3821,-1.4198,-1.4387,0.0,0.0,0.0,0.0,0.0,0.0,0.0,0.0,0.0,0.0,0.0,0.0,0.0,0.0,0.0,0.0,0.0,0.0,0.0,-0.0702,-0.0828,-0.0743,-0.0833,-0.0788,-0.0562,-0.0341,-0.0079,0.0286,0.0812,0.1272,0.1713,0.1744,0.1944,0.2242,0.1964,0.1939,0.2046,0.1833,0.174,0.1676,0.1578,0.1445,0.1276,0.0,0.0,0.0,0.0,0.0,0.0,0.0,0.0,0.0,0.0809,0.0764,0.0719,0.0898,0.0988,0.1132,0.1366,0.0,0.0,0.0,0.0,0.0,0.0,0.0,0.0,0.0,0.0,0.0,0.0,0.0,0.0,-0.1884,-0.1886,-0.1965,-0.2155,-0.1793,-0.1297,-0.0618,-0.0618,-0.0926,-0.148,-0.1649,-0.1829,-0.1971,-0.2108,-0.2189,-0.2343,-0.2721,-0.3224,-0.3791,-0.4051,-0.4409,-0.4828,-0.4769,-0.4738,-0.4738,-0.5029,-0.5642,-0.6538,-0.6997,-0.7825,-0.8815,-0.9069,-0.942,-0.9888,-1.026,-1.0701,-1.1185,-1.1915,-1.2466,-1.2899,-1.3825,-1.4258,-1.4323,0.0,0.0,0.0,0.0,0.0,0.0,0.0,0.0,0.0,0.0,0.0,0.0,0.0,0.0,0.0,0.0,0.0,0.0,0.0,0.0,-0.0784,-0.0788,-0.0879,-0.0811,-0.0495,-0.0341,-0.0228,-0.0152,0.0406,0.095,0.1436,0.1573,0.1772,0.2028,0.1901,0.1911,0.2058,0.2025,0.2047,0.2047,0.1991,0.1858,0.1655,0.1456,0.0,0.0,0.0,0.0,0.0,0.0,0.0,0.0,0.099,0.0854,0.0809,0.1166,0.1298,0.1356,0.0,0.0,0.0,0.0,0.0,0.0,0.0,0.0,0.0,0.0,0.0,0.0,0.0,0.0,-0.1208,-0.1769,-0.1799,-0.1839,-0.2138,-0.2147,-0.1655,-0.0184,-0.098,-0.147,-0.0919,-0.1433,-0.1841,-0.1952,-0.209,-0.2264,-0.2515,-0.2945,-0.3431,-0.3856,-0.4101,-0.4325,-0.467,-0.4589,-0.4517,-0.4517,-0.4736,-0.5316,-0.6125,-0.6826,-0.7611,-0.8531,-0.9263,-0.9602,-0.973,-0.9959,-1.0418,-1.11,-1.2058,-1.2428,-1.2635,-1.3952,-1.4246,-1.4091,0.0,0.0,0.0,0.0,0.0,0.0,0.0,0.0,0.0,0.0,0.0,0.0,0.0,0.0,0.0,0.0,0.0,0.0,0.0,0.0,-0.0651,-0.0653,-0.0562,-0.0495,-0.0427,-0.0195,-0.0,0.0127,0.0522,0.1022,0.1632,0.1775,0.1966,0.2233,0.2211,0.2266,0.2382,0.2333,0.2316,0.2318,0.2351,0.2319,0.2211,0.2004,0.2009,0.0,0.0,0.0,0.0,0.0,0.0,0.0,0.09,0.0899,0.0854,0.0944,0.1167,0.1356,0.0,0.0,0.0,0.0,0.0,0.0,0.0,0.0,0.0,0.0,0.0,0.0,0.0,0.0,-0.0644,-0.0772,-0.0985,-0.1251,-0.1834,-0.1894,-0.1434,-0.0172,-0.0229,-0.0516,-0.086,-0.1196,-0.1536,-0.1833,-0.2039,-0.2242,-0.2557,-0.297,-0.3441,-0.3911,-0.4021,-0.4179,-0.4567,-0.4534,-0.4517,-0.4517,-0.4572,-0.493,-0.5598,-0.6158,-0.7092,-0.8314,-0.8986,-0.9359,-0.9551,-0.9721,-0.9986,-1.0386,-1.1364,-1.1824,-1.2204,-1.3548,-1.3936,-1.3821,0.0,0.0,0.0,0.0,0.0,0.0,0.0,0.0,0.0,0.0,0.0,0.0,0.0,0.0,0.0,0.0,0.0,0.0,0.0,0.0,-0.0472,-0.036,-0.0324,-0.0237,-0.0112,-0.0,0.0184,0.0431,0.0885,0.1286,0.1665,0.1732,0.1916,0.2217,0.2159,0.2251,0.2462,0.2437,0.2521,0.2653,0.2658,0.2649,0.2628,0.2372,0.2329,0.2291,0.1956,0.0,0.0,0.0,0.0,0.0,0.0,0.0,0.0854,0.1077,0.1211,0.1266,0.0,0.0,0.0,0.0,0.0,0.0,0.0,0.0,0.0,0.0,0.0,0.0,0.0,-0.0058,-0.0288,-0.0288,-0.0397,-0.0561,-0.0897,-0.0953,-0.0729,-0.0056,-0.0,-0.0112,-0.0449,-0.0617,-0.0897,-0.1459,-0.171,-0.2013,-0.2414,-0.27,-0.3156,-0.3839,-0.3946,-0.4189,-0.4517,-0.4517,-0.4517,-0.4517,-0.4575,-0.5003,-0.5707,-0.6523,-0.7308,-0.8123,-0.8767,-0.9121,-0.9251,-0.9416,-0.9835,-1.0415,-1.1205,-1.1768,-1.2239,-1.3238,-1.364,-1.3763,0.0,0.0,0.0,0.0,0.0,0.0,0.0,0.0,0.0,0.0,0.0,0.0,0.0,0.0,0.0,0.0,0.0,0.0,0.0,0.0,0.0,-0.0067,-0.0063,0.0021,0.0224,0.0209,0.0379,0.0804,0.124,0.1566,0.1729,0.1699,0.1867,0.218,0.2152,0.2298,0.2535,0.2662,0.2849,0.3057,0.3009,0.3013,0.3037,0.2768,0.2649,0.257,0.2413,0.2286,0.2169,0.1912,0.0,0.0,0.0,0.0,0.0898,0.1255,0.1254,0.1217,0.0,0.0,0.0,0.0,0.0,0.0,0.0,0.0,0.0,0.0,0.0,0.0,0.0,0.0286,0.0112,-0.0,-0.0,-0.0,-0.0,-0.0,-0.0,-0.0,-0.0,-0.0,-0.0,-0.0056,-0.0336,-0.101,-0.1346,-0.1738,-0.2239,-0.2464,-0.2965,-0.3796,-0.3965,-0.4189,-0.4517,-0.4517,-0.4517,-0.4517,-0.4688,-0.5236,-0.6064,-0.7029,-0.7676,-0.7999,-0.8493,-0.8828,-0.8948,-0.9058,-0.9636,-1.0475,-1.1082,-1.1695,-1.2318,-1.2937,-1.3359,-1.358,0.0,0.0,0.0,0.0,0.0,0.0,0.0,0.0,0.0,0.0,0.0,0.0,0.0,0.0,0.0,0.0,0.0,0.0,0.0537,0.0,0.0,0.0157,0.0311,0.04,0.0382,0.049,0.0759,0.1217,0.1294,0.162,0.0,0.0,0.2189,0.2464,0.2671,0.2888,0.3127,0.3479,0.3663,0.3683,0.3802,0.3793,0.3645,0.3401,0.3331,0.3353,0.2702,0.2523,0.2576,0.218,0.1913,0.0,0.0,0.0,0.1299,0.1164,0.1254,0.1335,0.0,0.0,0.0,0.0,0.0,0.0,0.0,0.0,0.0,0.0,0.0,0.0,0.0846,0.0788,0.0617,0.0112,-0.0,-0.0,-0.0,-0.0,-0.0,-0.0,-0.0,-0.0,-0.0,-0.0224,-0.0393,-0.0505,-0.1176,-0.1847,-0.2409,-0.2685,-0.3186,-0.3965,-0.3967,-0.4189,-0.4517,-0.4517,-0.4517,-0.4517,-0.4849,-0.5452,-0.6211,-0.6716,-0.7274,-0.7776,-0.8262,-0.8532,-0.8688,-0.8805,-0.9196,-0.9795,-1.0306,-1.0935,-1.1563,-1.2461,-1.2898,-1.3056,0.0,0.0,0.0,0.0,0.0,0.0,0.0,0.0,0.0,0.0,0.0,0.0,0.0,0.0,0.0,0.1254,0.0926,0.0674,0.0518,0.0495,0.0472,0.0381,0.0602,0.0685,0.0562,0.0622,0.0848,0.1234,0.1433,0.0,0.0,0.2476,0.2684,0.0,0.0,0.3027,0.3265,0.3597,0.38,0.3876,0.406,0.415,0.4237,0.3985,0.3863,0.3699,0.332,0.3028,0.2854,0.266,0.2377,0.2081,0.1999,0.0,0.0,0.0,0.0,0.0,0.0,0.0,0.0,0.0,0.0,0.0,0.0,0.0,0.0,0.0,0.0,0.0,0.1174,0.101,0.0785,0.0561,0.0224,-0.0,-0.0,-0.0,-0.0,-0.0,-0.0,-0.0,-0.0,-0.0112,-0.0336,-0.0673,-0.1009,-0.1512,-0.2296,-0.2574,-0.3076,-0.3967,-0.4079,-0.4245,-0.4517,-0.4517,-0.4519,-0.4632,-0.5011,-0.5611,-0.6324,-0.6815,-0.7408,-0.8099,-0.8318,-0.853,-0.8742,-0.8956,-0.926,-0.9666,-1.0387,-1.0956,-1.1394,-1.2117,-1.2582,-1.291,0.0,0.0,0.0,0.0,0.0,0.0,0.0,0.0,0.0,0.0,0.0,0.0,0.0,0.0,0.0,0.0,0.1553,0.1424,0.1101,0.1046,0.1015,0.0975,0.0969,0.0967,0.0963,0.0864,0.0975,0.1296,0.0,0.0,0.2428,0.282,0.313,0.0,0.3205,0.3332,0.0,0.0,0.0,0.4132,0.4311,0.4448,0.4574,0.4403,0.4232,0.4014,0.3832,0.3537,0.3205,0.3181,0.2885,0.2526,0.2477,0.2101,0.0,0.0,0.0,0.0,0.0,0.0,0.0,0.0,0.0,0.0,0.0,0.0,0.0,0.0,0.0,0.0,0.154,0.1227,0.0954,0.0897,0.0449,0.0056,-0.0,-0.0,-0.0,-0.0,-0.0,-0.0,-0.0,-0.0056,-0.028,-0.0729,-0.0841,-0.1289,-0.2128,-0.2409,-0.2967,-0.3967,-0.4136,-0.4302,-0.4517,-0.4519,-0.4575,-0.4689,-0.5122,-0.5668,-0.6438,-0.6869,-0.7566,-0.8424,-0.8424,-0.8583,-0.8906,-0.911,-0.9413,-0.9877,-1.0608,-1.1124,-1.1477,-1.1977,-1.248,-1.2929,0.0,0.0,0.0,0.0,0.0,0.0,0.0,0.0,0.0,0.0,0.0,0.0,0.1696,0.2275,0.2373,0.166,0.2507,0.2973,0.2701,0.1868,0.166,0.2275,0.1589,0.0,0.1647,0.1266,0.1253,0.1592,0.0,0.0,0.2772,0.3041,0.3443,0.3848,0.3836,0.4087,0.443,0.0,0.0,0.0,0.0,0.47,0.4574,0.4497,0.4502,0.4412,0.4014,0.3875,0.3825,0.3619,0.3391,0.3117,0.2987,0.2724,0.2372,0.0,0.0,0.0,0.0,0.0,0.0,0.0,0.0,0.0,0.0,0.0,0.0,0.0,0.0,0.1432,0.1959,0.1645,0.1179,0.0953,0.0617,0.028,0.0056,-0.0,-0.0,-0.0,-0.0,-0.0,-0.0,-0.0224,-0.0393,-0.0449,-0.0729,-0.1289,-0.2128,-0.2409,-0.2967,-0.3967,-0.4136,-0.4302,-0.4517,-0.4632,-0.4689,-0.4689,-0.5132,-0.5677,-0.6438,-0.6869,-0.7566,-0.8424,-0.8424,-0.8685,-0.9159,-0.9211,-0.9677,-1.0399,-1.0769,-1.1221,-1.1723,-1.2278,-1.2681,-1.2925,0.0,0.0,0.0,0.0,0.0,0.0,0.0,0.0,0.0,0.0,0.0,0.0,0.0,0.2538,0.2506,0.2024,0.2457,0.258,0.2183,0.2164,0.2157,0.2135,0.1777,0.1603,0.1645,0.1505,0.1552,0.0,0.0,0.2506,0.2871,0.309,0.3456,0.3896,0.3909,0.4071,0.4392,0.4585,0.0,0.0,0.0,0.0,0.0,0.0,0.0,0.0,0.0,0.0,0.0,0.4414,0.4057,0.3524,0.3568,0.3216,0.2597,0.1792,0.1304,0.0,0.0,0.0,0.0,0.0,0.0,0.0,0.0,0.0,0.0,0.0,0.0,0.1916,0.1891,0.1537,0.1149,0.095,0.0785,0.0561,0.0056,-0.0,-0.0,-0.0,-0.0,-0.0,-0.0,-0.0449,-0.0729,-0.0729,-0.0841,-0.1289,-0.2128,-0.2462,-0.3073,-0.3967,-0.4244,-0.4408,-0.4517,-0.4632,-0.4689,-0.4689,-0.524,-0.5784,-0.6436,-0.6972,-0.7667,-0.8424,-0.8471,-0.8788,-0.9208,-0.9361,-0.9825,-1.0454,-1.0968,-1.1473,-1.1977,-1.2382,-1.2759,-1.3089,0.0,0.0,0.0,0.0,0.0,0.0,0.0,0.0,0.0,0.2839,0.0,0.0,0.0,0.0,0.2965,0.2942,0.2849,0.2783,0.2717,0.2821,0.2816,0.2617,0.2259,0.2019,0.1927,0.1812,0.1858,0.2092,0.0,0.0,0.0,0.3209,0.3513,0.3823,0.3986,0.417,0.0,0.0,0.0,0.4733,0.0,0.0,0.5193,0.0,0.0,0.0,0.0,0.0,0.0,0.0,0.4521,0.3866,0.4176,0.3703,0.2909,0.2149,0.1623,0.1336,0.1378,0.0,0.0,0.0,0.0,0.0,0.0,0.0,0.0,0.0,0.0,0.2077,0.1966,0.1617,0.1305,0.0985,0.0835,0.0617,0.0168,0.0056,-0.0,-0.0,-0.0,-0.0056,-0.028,-0.0561,-0.0785,-0.0897,-0.0897,0.0,-0.2071,-0.2516,-0.3126,-0.4132,-0.4406,-0.4517,-0.4517,-0.4686,-0.4798,-0.4853,-0.5456,-0.6003,-0.6603,-0.7187,-0.7777,-0.8421,-0.8682,-0.8998,-0.9361,-0.9614,-1.0135,-1.0757,-1.1217,-1.1773,-1.2278,-1.2529,-1.2852,-1.3213,0.0,0.0,0.0,0.0,0.0,0.0,0.0,0.0,0.2928,0.322,0.0,0.0,0.0,0.0,0.0,0.4329,0.3802,0.3728,0.4439,0.3893,0.361,0.3799,0.305,0.2606,0.2606,0.2228,0.2126,0.2307,0.2511,0.2712,0.2935,0.0,0.363,0.3737,0.4113,0.4435,0.4699,0.0,0.5109,0.5094,0.0,0.5193,0.5195,0.0,0.0,0.0,0.5087,0.5128,0.0,0.5324,0.0,0.0,0.0,0.0,0.0,0.3001,0.246,0.192,0.0,0.0,0.0,0.0,0.0,0.0,0.0,0.0,0.0,0.0,0.0,0.1903,0.2214,0.195,0.1563,0.1155,0.0711,0.0391,0.0391,0.0168,-0.0,-0.0,-0.0,-0.0224,-0.0841,-0.0617,-0.0561,-0.0897,-0.0897,-0.1233,-0.1958,-0.2458,-0.3293,-0.4462,-0.4517,-0.4517,-0.4517,-0.4789,-0.4956,-0.5126,-0.5727,-0.6332,-0.6933,-0.7458,-0.7937,-0.8424,-0.8949,-0.9361,-0.9614,-0.9865,-1.0486,-1.1326,-1.1623,-1.2022,-1.2529,-1.2827,-1.3055,-1.3266,0.0,0.0,0.0,0.0,0.0,0.0,0.3858,0.3757,0.3816,0.0,0.0,0.0,0.3732,0.3696,0.3754,0.4021,0.4185,0.4175,0.3931,0.4155,0.4146,0.3806,0.3305,0.2989,0.2888,0.265,0.2586,0.2721,0.2888,0.3103,0.3329,0.3514,0.3683,0.0,0.4101,0.4322,0.4513,0.4809,0.0,0.0,0.5154,0.5239,0.0,0.0,0.0,0.0,0.0,0.5901,0.5769,0.0,0.5612,0.4681,0.0,0.0,0.0,0.3217,0.2817,0.237,0.1927,0.0,0.0,0.0,0.0,0.0,0.0,0.0,0.0,0.0,0.2014,0.1865,0.1945,0.1868,0.168,0.1422,0.1015,0.0624,0.0156,0.0053,-0.0,-0.0,-0.0,-0.0224,-0.0841,-0.0841,-0.0785,0.0,-0.0897,-0.1233,-0.1958,-0.2961,-0.3795,-0.4462,-0.4517,-0.4517,-0.4517,-0.4789,-0.5009,-0.5228,-0.5882,-0.6485,-0.7087,-0.7613,-0.804,-0.8424,-0.8949,-0.9361,-0.9614,-0.9884,-1.0502,-1.1326,-1.1623,-1.213,-1.2827,-1.3045,-1.3276,-1.3515,0.0,0.0,0.0,0.0,0.0,0.3969,0.415,0.4269,0.4387,0.0,0.0,0.0,0.4086,0.4032,0.4019,0.4069,0.4498,0.4562,0.4097,0.4478,0.4567,0.4197,0.3922,0.3662,0.3382,0.3198,0.307,0.2953,0.308,0.3251,0.347,0.3661,0.3838,0.3951,0.0,0.0,0.0,0.0,0.0,0.0,0.5204,0.0,0.0,0.541,0.5496,0.0,0.0,0.0,0.5917,0.6387,0.6062,0.0,0.0,0.0,0.0,0.357,0.3307,0.2954,0.2506,0.2327,0.0,0.0,0.0,0.0,0.1884,0.1873,0.1893,0.0,0.1914,0.1791,0.1862,0.1784,0.1673,0.1486,0.1326,0.0972,0.0251,0.0051,-0.0,-0.0,-0.0,-0.0166,-0.0672,-0.0841,-0.0897,-0.0897,-0.101,-0.1457,-0.2405,-0.3241,-0.3965,-0.4462,-0.4517,-0.4519,-0.4575,-0.4847,-0.5173,-0.55,-0.6206,-0.681,-0.73,-0.7931,-0.8362,-0.8692,-0.9152,-0.9521,-0.9781,-1.0201,-1.0765,-1.1322,-1.1723,-1.2274,-1.2925,-1.3132,-1.3367,-1.3615,0.0,0.0,0.3786,0.3834,0.3924,0.4072,0.4313,0.4588,0.4721,0.0,0.4687,0.4637,0.409,0.4334,0.4521,0.443,0.4844,0.5021,0.4751,0.4929,0.4998,0.4884,0.4751,0.4477,0.4053,0.3839,0.3543,0.3126,0.3197,0.3317,0.3484,0.3868,0.4026,0.4026,0.0,0.0,0.0,0.0,0.0,0.5124,0.5287,0.5412,0.0,0.0,0.5412,0.5539,0.5563,0.5641,0.5825,0.6203,0.6203,0.0,0.0,0.0,0.4347,0.4083,0.381,0.3532,0.3306,0.3124,0.0,0.0,0.0,0.0,0.211,0.1943,0.182,0.1868,0.1744,0.1704,0.1989,0.1793,0.1568,0.1479,0.1568,0.1379,0.0542,0.015,-0.0,-0.0,-0.0053,-0.0161,-0.0389,-0.0669,-0.0894,-0.0953,-0.1234,-0.1905,-0.302,-0.3414,-0.3859,-0.4462,-0.4517,-0.4575,-0.4689,-0.4961,-0.5342,-0.583,-0.6701,-0.7244,-0.7571,-0.8256,-0.8735,-0.9008,-0.9413,-0.9777,-1.0102,-1.0718,-1.1124,-1.1423,-1.1923,-1.2475,-1.2968,-1.318,-1.3415,-1.3615,0.0,0.0,0.4187,0.4207,0.4386,0.4561,0.4622,0.4638,0.4763,0.509,0.5452,0.5463,0.4932,0.5219,0.5384,0.5205,0.5608,0.5818,0.5661,0.5827,0.5956,0.5978,0.5464,0.5091,0.4957,0.428,0.3949,0.396,0.3665,0.3674,0.3965,0.4202,0.4221,0.4034,0.4722,0.0,0.0,0.0,0.0,0.5265,0.5519,0.0,0.5494,0.5588,0.5634,0.5698,0.5839,0.6037,0.6266,0.6103,0.625,0.6318,0.0,0.0,0.0,0.4673,0.4158,0.3614,0.0,0.0,0.0,0.0,0.0,0.0,0.2544,0.2211,0.1926,0.0,0.1911,0.177,0.209,0.1839,0.1614,0.1703,0.1703,0.1398,0.0505,0.0189,-0.0,-0.0,-0.0351,-0.0517,-0.0429,-0.0645,-0.0926,-0.1176,-0.1737,-0.235,-0.3074,-0.3414,-0.3859,-0.4462,-0.4517,-0.4575,-0.4689,-0.5066,-0.5502,-0.5946,-0.6861,-0.7399,-0.767,-0.8309,-0.8735,-0.9008,-0.9413,-0.9877,-1.0352,-1.0968,-1.1372,-1.1673,-1.2224,-1.2706,-1.3175,-1.342,-1.3568,-1.3615,0.0,0.4236,0.4309,0.4309,0.4578,0.4756,0.4619,0.4949,0.5169,0.5052,0.5465,0.5708,0.5563,0.5808,0.591,0.5672,0.5899,0.5988,0.5862,0.5846,0.5919,0.61,0.57,0.5466,0.5401,0.4835,0.4486,0.4357,0.4106,0.4069,0.4208,0.4422,0.4376,0.4208,0.4714,0.0,0.0,0.0,0.5302,0.5332,0.5586,0.0,0.5758,0.5804,0.5804,0.5788,0.6031,0.6306,0.6459,0.5953,0.6017,0.0,0.0,0.5136,0.4929,0.0,0.455,0.4056,0.0,0.0,0.0,0.3311,0.0,0.0,0.0,0.2432,0.2205,0.2171,0.1896,0.1699,0.1861,0.0,0.1523,0.1569,0.1523,0.1345,0.0944,0.0373,-0.0,-0.0,-0.0401,-0.0674,-0.057,-0.1018,-0.1432,-0.1735,-0.2185,-0.2688,-0.3301,-0.3637,-0.4024,-0.4575,-0.4575,-0.4686,-0.4908,-0.534,-0.5719,-0.6105,-0.7074,-0.7613,-0.7824,-0.8573,-0.905,-0.9312,-0.9777,-1.0245,-1.071,-1.1423,-1.1877,-1.2126,-1.2505,-1.2885,-1.3213,-1.3515,-1.3621,-1.3721,0.4362,0.4382,0.4399,0.4449,0.4741,0.4885,0.4653,0.523,0.5508,0.5009,0.5497,0.5923,0.6015,0.6281,0.6341,0.6033,0.6015,0.6038,0.6022,0.5769,0.5706,0.5922,0.584,0.5714,0.5573,0.5264,0.497,0.4665,0.4508,0.442,0.44,0.454,0.4546,0.4496,0.4676,0.0,0.0,0.0,0.0,0.5415,0.0,0.5791,0.5916,0.5916,0.5867,0.5799,0.605,0.6325,0.6467,0.5844,0.595,0.618,0.5586,0.5234,0.0,0.0,0.0,0.0,0.0,0.0,0.0,0.0,0.0,0.3294,0.0,0.0,0.0,0.2214,0.1891,0.0,0.0,0.0,0.0,0.0,0.0,0.0,0.0,0.0419,0.0,-0.0236,-0.0598,-0.0821,-0.0758,-0.1393,-0.1944,-0.2273,-0.2552,-0.3003,-0.3638,-0.3914,-0.4245,-0.4689,-0.4745,-0.4908,-0.5181,-0.5668,-0.5991,-0.6317,-0.7345,-0.788,-0.8034,-0.8886,-0.9417,-0.9721,-1.019,-1.0659,-1.112,-1.1873,-1.2372,-1.2662,-1.2822,-1.3064,-1.3314,-1.3515,-1.3668,-1.3821,0.4374,0.4488,0.4731,0.4975,0.5101,0.5145,0.5044,0.5163,0.5302,0.5404,0.6294,0.6718,0.0,0.0,0.0,0.0,0.0,0.0,0.6821,0.0,0.5984,0.6068,0.6133,0.5914,0.5434,0.5271,0.5202,0.5211,0.4738,0.4584,0.4735,0.4657,0.4641,0.4757,0.4889,0.0,0.0,0.0,0.5582,0.0,0.5752,0.5746,0.0,0.5659,0.5659,0.5662,0.5919,0.6056,0.6074,0.0,0.6378,0.6547,0.0,0.5823,0.5692,0.5381,0.0,0.0,0.0,0.0,0.0,0.0,0.3619,0.0,0.0,0.0,0.2826,0.2647,0.0,0.0,0.0,0.0,0.0,0.0,0.0,0.0,0.0358,-0.0093,-0.0658,-0.1183,-0.1276,-0.1268,-0.1053,-0.1467,-0.193,-0.2516,-0.2832,-0.3248,-0.3906,-0.4081,-0.4359,-0.4689,-0.4906,-0.5236,-0.5565,-0.5941,-0.632,-0.6647,-0.7777,-0.8315,-0.8368,-0.9201,-0.9725,-0.9995,-1.0249,-1.0858,-1.1673,-1.2166,-1.2642,-1.3117,-1.3165,-1.3314,-1.3568,-1.3568,-1.3668,-1.3821,0.5365,0.5196,0.0,0.55,0.5761,0.5832,0.5637,0.5758,0.5969,0.6331,0.6752,0.0,0.0,0.0,0.0,0.0,0.0,0.6547,0.0,0.0,0.6069,0.6391,0.6207,0.601,0.5804,0.5608,0.5499,0.554,0.5191,0.504,0.509,0.502,0.4984,0.4997,0.5202,0.0,0.5278,0.0,0.565,0.0,0.0,0.0,0.0,0.5934,0.6151,0.6287,0.6188,0.6188,0.6113,0.0,0.5881,0.0,0.0,0.0,0.0,0.0,0.0,0.0,0.0,0.0,0.0,0.0,0.0,0.0,0.3544,0.0,0.326,0.0,0.0,0.0,0.0,0.0,0.0,0.0,0.0718,0.0,0.0,0.0,-0.1005,0.0,0.0,0.0,-0.2212,-0.2405,-0.2668,-0.2879,-0.3293,-0.3724,-0.4147,-0.4256,-0.4561,-0.5034,-0.5245,-0.5403,-0.5619,-0.6211,-0.6465,-0.6477,-0.7798,-0.8384,-0.8377,-0.9379,-0.983,-0.9953,-1.0764,-1.1338,-1.1627,-1.2493,-1.2977,-1.3213,-1.3467,-1.3568,-1.3621,-1.3673,-1.3815,-1.3962,0.6508,0.0,0.0,0.0,0.6362,0.6453,0.6302,0.6371,0.0,0.0,0.0,0.0,0.7248,0.7221,0.0,0.0,0.6525,0.6369,0.0,0.0,0.5883,0.6171,0.6123,0.0,0.0,0.5741,0.5759,0.5638,0.5508,0.5407,0.534,0.5364,0.534,0.5282,0.0,0.5493,0.556,0.0,0.0,0.5558,0.5379,0.5541,0.5871,0.6094,0.6375,0.6639,0.627,0.618,0.619,0.5538,0.5559,0.0,0.5647,0.0,0.0,0.0,0.0,0.0,0.4258,0.0,0.0,0.0,0.0,0.0,0.0,0.0,0.0,0.0,0.0,0.0,0.0,0.0,0.0,0.1164,0.0,-0.0,0.0,-0.1522,0.0,0.0,0.0,0.0,0.0,-0.3183,-0.327,-0.3498,-0.3817,-0.417,-0.4549,-0.466,-0.4871,-0.5266,-0.5468,-0.5671,-0.5826,-0.6439,-0.6746,-0.6823,-0.7954,-0.8547,-0.854,-0.9589,-0.9972,-0.9883,-1.1093,-1.1588,-1.171,-1.2752,-1.3223,-1.3314,-1.3615,-1.3721,-1.3663,-1.3821,-1.4004,-1.4228,0.7618,0.7114,0.0,0.0,0.0,0.0,0.6949,0.0,0.0,0.0,0.0,0.0,0.0,0.0,0.0,0.0,0.0,0.572,0.6643,0.0,0.5269,0.5165,0.5886,0.5728,0.0,0.5532,0.5904,0.5495,0.5491,0.5456,0.5393,0.5541,0.5647,0.5775,0.5522,0.5676,0.6126,0.5713,0.5565,0.5701,0.5754,0.6168,0.6681,0.0,0.5969,0.6369,0.5893,0.0,0.0,0.5729,0.5747,0.0,0.0,0.0,0.0,0.0,0.0,0.0,0.0,0.0,0.0,0.423,0.0,0.0,0.0,0.0,0.3656,0.0,0.0,0.0,0.0,0.0,0.1703,0.1433,0.0626,0.0,0.0,0.0,0.0,0.0,0.0,0.0,0.0,-0.3344,-0.3531,-0.4576,-0.4384,-0.4484,-0.5125,-0.5352,-0.5408,-0.5307,-0.5552,-0.5944,-0.6485,-0.663,-0.7135,-0.8027,-0.8593,-0.8944,-0.9078,-0.9901,-1.0153,-0.9948,-1.0899,-1.1574,-1.2032,-1.2719,-1.3243,-1.3568,-1.3615,-1.3668,-1.3821,-1.3921,-1.4274,-1.4658,0.0,0.0,0.0,0.0,0.0,0.0,0.0,0.7751,0.0,0.0,0.0,0.0,0.0,0.6553,0.6605,0.0,0.0,0.6087,0.6652,0.6225,0.0,0.0,0.0,0.6318,0.0,0.0,0.6073,0.5491,0.571,0.5791,0.5671,0.5848,0.6018,0.6123,0.0,0.6092,0.0,0.0,0.0,0.0,0.0,0.5905,0.6164,0.0,0.6477,0.6675,0.632,0.6026,0.0,0.5734,0.5657,0.5645,0.596,0.5863,0.5557,0.5448,0.5296,0.5067,0.0,0.0,0.448,0.426,0.0,0.0,0.0,0.0,0.0,0.0,0.0,0.0,0.0,0.0,0.1344,0.0985,0.0134,-0.0715,0.0,0.0,0.0,0.0,0.0,0.0,0.0,0.0,-0.5104,-0.5262,-0.5338,-0.5589,-0.6021,-0.5898,-0.592,-0.6074,-0.6274,-0.6463,-0.669,-0.7002,-0.7434,-0.7958,-0.8445,-0.8919,-0.9334,-0.9725,-1.0077,-1.0476,-1.1237,-1.1831,-1.2319,-1.2995,-1.343,-1.3721,-1.3815,-1.4062,-1.4343,-1.4326,-1.4496,-1.4789,0.8329,0.0,0.0,0.0,0.0,0.0,0.0,0.0,0.0,0.0,0.7209,0.0,0.642,0.0,0.6256,0.0,0.6011,0.6043,0.6521,0.6407,0.0,0.6501,0.6795,0.0,0.0,0.0,0.0,0.5564,0.6039,0.6226,0.6194,0.6414,0.6497,0.6514,0.0,0.6341,0.6133,0.0,0.5831,0.0,0.0,0.5916,0.0,0.0,0.6754,0.6715,0.0,0.6187,0.5873,0.5828,0.575,0.5724,0.5947,0.5856,0.5677,0.5644,0.5508,0.5333,0.5154,0.4962,0.0,0.4626,0.425,0.0,0.3955,0.0,0.3271,0.0,0.0,0.0,0.0,0.0,0.0804,0.0447,-0.0402,-0.1339,0.0,-0.3515,0.0,0.0,0.0,0.0,0.0,0.0,-0.6181,-0.6259,-0.6318,-0.6485,-0.68,-0.6589,-0.6459,-0.6505,-0.6694,-0.6827,-0.6944,-0.7218,-0.7684,-0.8327,-0.8535,-0.8902,-0.9444,-0.9758,-1.0153,-1.0673,-1.1429,-1.2056,-1.2599,-1.3184,-1.352,-1.3763,-1.3957,-1.4197,-1.4389,-1.4599,-1.4903,-1.535,0.0,0.0,0.0,0.0,0.8505,0.0,0.0,0.0,0.7412,0.0,0.6974,0.6458,0.6278,0.6147,0.5974,0.5691,0.5474,0.5587,0.6235,0.6351,0.0,0.0,0.6815,0.646,0.4704,0.0,0.0,0.0,0.6369,0.6782,0.691,0.7121,0.7119,0.6904,0.6776,0.0,0.5988,0.5837,0.5694,0.552,0.581,0.6299,0.6864,0.6864,0.6696,0.6367,0.6421,0.6423,0.6335,0.6027,0.6022,0.6095,0.5672,0.5872,0.6276,0.6286,0.6191,0.6096,0.6255,0.5627,0.5009,0.5129,0.4683,0.0,0.0,0.0,0.3648,0.0,0.0,0.0,0.0,0.0,0.0,-0.0223,-0.1069,-0.2183,-0.3563,0.0,0.0,0.0,0.0,0.0,0.0,-0.6306,-0.6787,-0.7498,-0.7241,-0.7198,0.0,-0.7346,-0.7066,-0.6627,-0.6833,-0.708,-0.7286,-0.7273,-0.7893,-0.9115,-0.8822,-0.8992,-0.9542,-0.998,-1.0289,-1.062,-1.1435,-1.2221,-1.2873,-1.3293,-1.3515,-1.371,-1.4082,-1.414,-1.4156,-1.4726,-1.5501,-1.6331,0.8745,0.9278,0.9695,0.0,0.9172,0.9103,0.0,0.0,0.0,0.0,0.726,0.6656,0.5923,0.5741,0.5584,0.5423,0.5575,0.0,0.0,0.0,0.0,0.5991,0.6514,0.6389,0.5523,0.6385,0.0,0.5709,0.0,0.6826,0.6846,0.7075,0.7158,0.71,0.0,0.0,0.5762,0.5788,0.576,0.5732,0.5922,0.6301,0.6722,0.0,0.6407,0.6203,0.6405,0.6353,0.6198,0.6187,0.5987,0.5821,0.6077,0.6047,0.5844,0.5775,0.5776,0.572,0.579,0.5373,0.4909,0.4768,0.4044,0.335,0.0,0.0,0.0,0.0,0.0,0.0,0.0,0.0,0.0,0.0,-0.2271,0.0,0.0,0.0,0.0,-0.5712,0.0,0.0,0.0,-0.7152,-0.7766,-0.8152,-0.8229,-0.8335,-0.8431,0.0,-0.8101,-0.8124,-0.7955,-0.8032,-0.8301,-0.8154,-0.8494,-0.931,-0.9006,-0.9269,-1.0031,-0.984,-1.0367,-1.1497,-1.186,-1.2616,-1.3554,-1.3768,-1.4057,-1.4337,-1.4482,-1.4789,-1.5232,-1.5361,-1.5988,-1.6754,0.9255,0.0,0.0,1.0478,0.0,0.0,0.9271,0.0,0.0,0.7784,0.728,0.0,0.6326,0.592,0.5644,0.5554,0.5742,0.0,0.5874,0.0,0.0,0.6082,0.6402,0.6128,0.526,0.6021,0.0,0.5564,0.0,0.6867,0.7206,0.7401,0.7495,0.7503,0.0,0.6733,0.0,0.5737,0.5786,0.6005,0.6101,0.6292,0.0,0.659,0.6416,0.6225,0.6261,0.6143,0.6019,0.6113,0.6074,0.5984,0.6058,0.604,0.597,0.5906,0.5803,0.5758,0.5786,0.5541,0.5141,0.4899,0.4343,0.3741,0.3543,0.2893,0.247,0.0,0.2007,0.1342,0.0,0.0,0.0,0.0,0.0,0.0,0.0,0.0,0.0,0.0,-0.6536,0.0,-0.7332,-0.7931,-0.8472,-0.885,-0.9047,-0.9128,-0.9011,0.0,-0.8737,-0.8597,-0.87,-0.8742,-0.8758,-0.878,-0.8994,-0.944,-0.9123,-0.9339,-1.0113,-1.0271,-1.0903,-1.193,-1.2548,-1.3228,-1.3915,-1.4156,-1.4395,-1.4627,-1.4702,-1.5238,-1.5944,-1.5863,-1.6269,-1.684,0.0,0.0,0.0,0.0,0.0,0.0,0.0,0.8141,0.0,0.7778,0.0,0.6877,0.693,0.6356,0.5983,0.5952,0.0,0.6068,0.6357,0.6282,0.6192,0.6144,0.6298,0.5801,0.4631,0.5369,0.5645,0.0,0.6085,0.6803,0.7625,0.7787,0.787,0.0,0.0,0.0,0.0,0.5679,0.5743,0.6242,0.6231,0.6304,0.6361,0.6515,0.6538,0.6409,0.611,0.5968,0.5919,0.5996,0.6145,0.6234,0.5844,0.5989,0.6264,0.6169,0.6001,0.587,0.5916,0.5656,0.533,0.5074,0.483,0.4501,0.4032,0.3626,0.3223,0.2982,0.216,0.1507,0.1657,0.0,0.0,0.0,0.0,0.0,0.0,0.0,0.0,0.0,0.0,0.0,0.0,-0.8537,-0.8981,-0.9411,-0.9651,-0.9651,-0.9362,0.0,-0.9129,-0.8745,-0.9232,-0.9321,-0.8941,-0.9195,-0.9383,-0.9483,-0.9252,-0.9524,-1.0189,-1.101,-1.1669,-1.2287,-1.3336,-1.3886,-1.4156,-1.4529,-1.4713,-1.48,-1.496,-1.5579,-1.6399,-1.6324,-1.6504,-1.6761,0.0,0.0,0.0,0.0,0.0,0.9662,0.8398,0.8522,0.8442,0.7653,0.7247,0.6946,0.6696,0.6519,0.6337,0.6245,0.6214,0.0,0.0,0.0,0.0,0.5802,0.5726,0.5525,0.5164,0.5432,0.5564,0.0,0.6072,0.6649,0.7311,0.7478,0.7614,0.0,0.0,0.0,0.6187,0.5753,0.0,0.5911,0.5999,0.6239,0.6424,0.6225,0.6292,0.6497,0.6154,0.6002,0.5985,0.5989,0.5925,0.5822,0.5927,0.589,0.5834,0.5783,0.5487,0.5162,0.5211,0.4716,0.4192,0.4145,0.3781,0.3414,0.3252,0.2934,0.2574,0.2245,0.2028,0.1607,0.0665,0.0,0.0,0.0,0.0,0.0,0.0,0.0,0.0,0.0,0.0,-0.7139,0.0,0.0,-0.9156,-0.9083,-0.9487,-0.9663,-0.9557,0.0,-0.944,0.0,-0.9677,-0.9554,0.0,0.0,-0.9363,-0.9515,-0.9774,-1.0335,-1.1105,-1.156,-1.2392,-1.3439,-1.3904,-1.435,-1.4772,-1.5074,-1.5334,-1.5617,-1.5762,-1.6076,-1.6522,-1.6705,-1.6797,-1.6882,0.0,0.0,0.0,0.0,0.0,0.0,0.0,0.8238,0.7994,0.7469,0.7349,0.7314,0.7292,0.7134,0.7032,0.7066,0.7119,0.703,0.6742,0.6375,0.6109,0.6016,0.5611,0.0,0.5365,0.5152,0.5251,0.5705,0.5701,0.6152,0.7027,0.7192,0.7363,0.7545,0.0,0.6742,0.0,0.0,0.0,0.6103,0.6189,0.6267,0.6346,0.6248,0.6199,0.6177,0.5926,0.5844,0.5844,0.5844,0.5771,0.572,0.5949,0.6032,0.6025,0.5923,0.5731,0.5472,0.5249,0.4735,0.4184,0.3968,0.3656,0.3301,0.2948,0.2683,0.2508,0.247,0.218,0.1583,0.044,-0.1028,0.0,0.0,0.0,0.0,0.0,0.0,0.0,0.0,0.0,0.0,0.0,0.0,0.0,0.0,0.0,-0.9929,-0.982,0.0,-0.9638,0.0,0.0,0.0,-0.9985,0.0,-0.9974,-0.9971,-1.0235,-1.073,-1.148,-1.2173,-1.297,-1.3845,-1.4494,-1.4878,-1.5051,-1.5345,-1.5703,-1.5994,-1.6094,-1.6355,-1.6742,-1.6833,-1.696,-1.708,0.0,1.0862,0.0,0.0,1.0084,0.0,0.847,0.783,0.7388,0.7209,0.7394,0.7602,0.7848,0.7776,0.7762,0.786,0.7929,0.7798,0.7357,0.6825,0.648,0.6312,0.5661,0.5399,0.5543,0.4983,0.506,0.0,0.5382,0.576,0.6822,0.6917,0.7115,0.0,0.0,0.0,0.0,0.0,0.621,0.6413,0.6367,0.6322,0.6251,0.628,0.6174,0.5908,0.5777,0.5753,0.5744,0.5696,0.5709,0.5777,0.5906,0.6069,0.6218,0.6041,0.5861,0.562,0.5329,0.4872,0.4358,0.3878,0.3612,0.3388,0.2818,0.2595,0.2552,0.2698,0.2134,0.1253,0.015,-0.0755,0.0,0.0,0.0,0.0,0.0,0.0,0.0,0.0,0.0,0.0,-0.8205,0.0,0.0,0.0,0.0,-1.0081,-0.9975,-0.9909,-0.9847,0.0,0.0,-1.0374,-1.0201,0.0,-1.049,-1.038,-1.075,-1.1271,-1.1895,-1.2896,-1.3647,-1.4238,-1.5043,-1.5345,-1.5379,-1.5703,-1.6019,-1.6281,-1.6324,-1.6577,-1.6924,-1.696,-1.708,-1.7199,0.0,0.0,0.0,0.0,0.0,0.0,0.8294,0.7666,0.7145,0.688,0.7282,0.764,0.7811,0.8173,0.8314,0.8105,0.8132,0.7965,0.7436,0.6938,0.6607,0.6394,0.5744,0.5598,0.6019,0.533,0.5265,0.0,0.559,0.5822,0.6547,0.6783,0.695,0.0,0.0,0.0,0.0,0.638,0.6392,0.637,0.6273,0.6276,0.6373,0.6134,0.6181,0.6279,0.5916,0.5848,0.5957,0.575,0.5817,0.5954,0.5771,0.5737,0.5777,0.5756,0.5246,0.4749,0.4775,0.4367,0.3836,0.3391,0.3258,0.3126,0.2773,0.2595,0.2462,0.2289,0.1342,0.0289,-0.0651,-0.1261,-0.1862,0.0,0.0,0.0,0.0,0.0,-0.5514,-0.694,0.0,0.0,0.0,-0.9036,0.0,0.0,-0.9993,-0.9894,-0.9838,-0.9861,-1.017,-1.0752,-1.0636,-1.0584,-1.0544,-1.0395,-1.0356,-1.0423,-1.1465,-1.2241,-1.2793,-1.3865,-1.4638,-1.5197,-1.5513,-1.5842,-1.6106,-1.6349,-1.6429,-1.6479,-1.6748,-1.6876,-1.6918,-1.7122,-1.7199,-1.7199,0.0,0.0,0.0,0.0,0.0,0.0,0.0,0.719,0.6748,0.6802,0.7094,0.7529,0.8167,0.8464,0.8521,0.8293,0.8475,0.8396,0.7895,0.7565,0.7307,0.7124,0.6569,0.6413,0.6797,0.6063,0.5989,0.0,0.0,0.0,0.6737,0.6765,0.682,0.0,0.0,0.6559,0.6605,0.6447,0.6496,0.6666,0.6407,0.6364,0.6444,0.6105,0.6082,0.6112,0.5837,0.5777,0.5801,0.5709,0.5739,0.5825,0.5871,0.5813,0.57,0.5726,0.5387,0.4968,0.4751,0.4329,0.3794,0.3303,0.2947,0.2593,0.2329,0.2151,0.2016,0.1973,0.0881,-0.0241,-0.0751,-0.1039,-0.1423,-0.2054,0.0,0.0,0.0,0.0,0.0,-0.7005,0.0,0.0,0.0,0.0,0.0,0.0,0.0,-0.9664,-1.0064,-0.9825,-1.0056,-1.0943,0.0,-1.0897,-1.1094,-1.0902,-1.0916,-1.1067,-1.1987,-1.2719,-1.3358,-1.4236,-1.4937,-1.5537,-1.5709,-1.5931,-1.6194,-1.6275,-1.6491,-1.6742,-1.6876,-1.696,-1.708,-1.7157,-1.7199,-1.7199,0.869,0.0,0.8454,0.0,0.7856,0.7357,0.7382,0.6767,0.6454,0.6829,0.6965,0.7395,0.8321,0.8636,0.8723,0.8522,0.8699,0.8663,0.8189,0.7923,0.7759,0.7675,0.7138,0.0,0.7303,0.6604,0.6508,0.7014,0.6292,0.0,0.0,0.0,0.0,0.0,0.6644,0.6641,0.6683,0.6526,0.6617,0.6826,0.6538,0.6407,0.6395,0.6142,0.6016,0.593,0.5801,0.5717,0.568,0.559,0.5636,0.5707,0.5779,0.5738,0.5636,0.5653,0.5358,0.5027,0.476,0.4274,0.3702,0.3171,0.2681,0.2281,0.2017,0.1839,0.1659,0.1435,0.0368,-0.057,-0.0838,-0.0873,-0.1152,-0.1872,0.0,0.0,0.0,-0.5046,0.0,0.0,-0.7865,-0.8359,-0.9083,-0.9925,0.0,0.0,0.0,-0.9772,-1.0225,-0.9961,-1.0239,0.0,0.0,0.0,-1.1467,-1.134,-1.1437,-1.1778,-1.2519,-1.3225,-1.3917,-1.465,-1.5265,-1.5754,-1.5842,-1.6063,-1.6275,-1.6368,-1.6583,-1.6924,-1.696,-1.7038,-1.7122,-1.7199,-1.7199,-1.7205,0.8295,0.8202,0.7912,0.7245,0.7166,0.7165,0.7119,0.6542,0.6348,0.6995,0.6983,0.7227,0.8092,0.8672,0.8901,0.8712,0.8719,0.853,0.8113,0.7914,0.7799,0.0,0.0,0.7033,0.7277,0.6851,0.6586,0.6593,0.0,0.0,0.6501,0.0,0.645,0.6523,0.6431,0.651,0.6683,0.6683,0.6683,0.6683,0.6492,0.6322,0.6181,0.6181,0.605,0.579,0.579,0.5755,0.568,0.5374,0.5461,0.5636,0.5376,0.5388,0.5462,0.5334,0.492,0.4502,0.4594,0.414,0.3522,0.2864,0.2595,0.2372,0.1972,0.1793,0.1435,0.0584,-0.018,-0.0774,-0.0946,-0.0952,-0.1189,-0.2044,0.0,0.0,0.0,-0.5265,0.0,-0.8218,-0.8195,-0.8528,-0.9845,-1.03,0.0,0.0,0.0,0.0,0.0,0.0,0.0,-1.1583,-1.1732,0.0,-1.1584,-1.1516,-1.18,-1.2413,-1.315,-1.3862,-1.4588,-1.5371,-1.5754,-1.5792,-1.6063,-1.6318,-1.6522,-1.6791,-1.6876,-1.6918,-1.7122,-1.708,-1.6918,-1.7122,-1.7199,-1.7205,0.7114,0.7244,0.7211,0.6811,0.6697,0.6671,0.6744,0.667,0.6618,0.6679,0.6982,0.7229,0.7442,0.7799,0.8014,0.0,0.7775,0.7842,0.0,0.7964,0.7763,0.7787,0.7536,0.7239,0.6974,0.7054,0.7042,0.6941,0.0,0.0,0.0,0.6735,0.6816,0.6813,0.6683,0.6722,0.6894,0.6614,0.6614,0.6823,0.6401,0.6276,0.6319,0.6053,0.5876,0.5793,0.5755,0.5717,0.568,0.5374,0.5285,0.5236,0.4849,0.5023,0.525,0.5028,0.4723,0.4426,0.4075,0.3741,0.3394,0.2955,0.2509,0.2152,0.2109,0.1436,0.0583,-0.018,-0.0629,-0.0903,-0.0914,-0.1097,-0.1552,-0.2503,-0.2822,0.0,-0.5564,0.0,-0.6371,-0.8197,-0.852,-0.888,-0.9765,-1.0169,0.0,0.0,0.0,0.0,0.0,0.0,0.0,0.0,-1.1936,0.0,-1.2201,-1.2133,-1.2194,-1.2409,-1.3372,-1.4399,-1.5415,-1.567,-1.5798,-1.5792,-1.6063,-1.6318,-1.6515,-1.6784,-1.696,-1.7122,-1.7157,-1.7157,-1.7122,-1.7199,-1.7253,-1.735,0.6824,0.6811,0.6678,0.6434,0.6411,0.6458,0.6503,0.6713,0.6787,0.6598,0.6831,0.6965,0.6827,0.6923,0.0,0.7477,0.7422,0.7517,0.7916,0.7727,0.7613,0.761,0.7494,0.7224,0.6753,0.6947,0.0,0.6948,0.6811,0.6665,0.6513,0.6492,0.6543,0.6553,0.6468,0.6507,0.6595,0.6352,0.6355,0.6523,0.6142,0.6019,0.6019,0.5712,0.558,0.5577,0.5458,0.542,0.5328,0.5067,0.4975,0.4838,0.4458,0.4539,0.4753,0.4585,0.4364,0.4144,0.3788,0.348,0.3173,0.2819,0.2375,0.1885,0.1526,0.0674,-0.018,-0.0719,-0.0899,-0.1034,-0.1256,-0.1478,-0.1922,-0.2765,-0.3162,-0.3862,-0.5427,0.0,-0.6625,0.0,0.0,0.0,0.0,-1.0475,-1.0821,0.0,0.0,0.0,0.0,0.0,-1.1797,-1.2444,-1.23,-1.233,-1.2585,-1.2494,-1.2543,-1.2708,-1.3854,-1.4893,-1.5792,-1.5792,-1.5792,-1.5792,-1.6063,-1.6318,-1.6515,-1.6784,-1.6996,-1.7199,-1.7199,-1.7247,-1.7295,-1.7295,-1.7337,-1.7467,0.7129,0.6783,0.6348,0.6057,0.6258,0.6425,0.6397,0.6724,0.6881,0.6669,0.6603,0.653,0.6286,0.6096,0.6346,0.7227,0.0,0.0,0.7207,0.7296,0.7303,0.724,0.7132,0.6921,0.6521,0.6615,0.6638,0.6679,0.6395,0.6241,0.6152,0.5827,0.5723,0.579,0.5913,0.5993,0.5993,0.5993,0.5993,0.5953,0.5758,0.5585,0.5448,0.5328,0.5239,0.5152,0.5029,0.4895,0.4757,0.4543,0.4493,0.4443,0.4104,0.3966,0.3959,0.406,0.388,0.3654,0.3609,0.33,0.2901,0.2593,0.2194,0.1615,0.0449,-0.027,-0.0764,-0.0989,-0.0989,-0.1212,-0.1876,-0.2054,-0.2276,-0.2897,-0.3556,-0.4254,-0.5077,-0.5728,-0.6748,0.0,0.0,0.0,-1.004,-1.1099,-1.1621,0.0,0.0,0.0,0.0,0.0,-1.2745,-1.2674,-1.2774,-1.2774,-1.2709,-1.2585,-1.2751,-1.3288,-1.4392,-1.5247,-1.5792,-1.5792,-1.5792,-1.5836,-1.6106,-1.6318,-1.6522,-1.6791,-1.7038,-1.7199,-1.7199,-1.7295,-1.7404,-1.7404,-1.7461,-1.7523,0.0,0.0,0.668,0.6158,0.6072,0.6049,0.6089,0.6405,0.6511,0.6203,0.6374,0.6424,0.6122,0.6022,0.6106,0.6324,0.647,0.668,0.7027,0.692,0.6751,0.6465,0.6296,0.6009,0.5548,0.5894,0.6183,0.6306,0.6034,0.5829,0.5649,0.5589,0.5611,0.572,0.5761,0.5758,0.5758,0.5758,0.5758,0.5761,0.5626,0.5407,0.5188,0.5236,0.5106,0.4891,0.4983,0.4895,0.4757,0.4314,0.3957,0.3603,0.3171,0.2814,0.2719,0.3476,0.3478,0.3123,0.2858,0.2726,0.264,0.2467,0.1883,0.1075,0.009,-0.0539,-0.0989,-0.1166,-0.1522,-0.1834,-0.219,-0.25,-0.303,-0.3816,-0.4297,-0.4993,-0.6161,-0.6878,-0.7599,-0.8365,-0.911,-0.9663,-0.9976,-1.0807,-1.1362,0.0,0.0,-1.2905,-1.2657,-1.3156,-1.318,-1.2562,-1.2662,-1.2709,-1.2709,-1.2674,-1.3137,-1.4057,-1.4321,-1.4929,-1.5792,-1.5913,-1.5957,-1.6001,-1.6411,-1.659,-1.6669,-1.7002,-1.7157,-1.7199,-1.7302,-1.7356,-1.7404,-1.7461,-1.7536,-1.7672,0.5739,0.6111,0.6369,0.5966,0.5864,0.5817,0.5863,0.6165,0.6327,0.6054,0.6236,0.6313,0.6009,0.5918,0.5878,0.5878,0.6233,0.6522,0.6634,0.6678,0.6525,0.6068,0.5932,0.5694,0.5392,0.5633,0.58,0.5828,0.5717,0.5618,0.5475,0.5288,0.528,0.5458,0.542,0.5376,0.5376,0.5376,0.5376,0.5376,0.5236,0.5101,0.493,0.4757,0.4672,0.4629,0.4451,0.432,0.4098,0.3787,0.3342,0.2853,0.2593,0.2281,0.2058,0.2635,0.2768,0.2679,0.2504,0.2417,0.224,0.1748,0.1164,0.0492,-0.0269,-0.0807,-0.1211,-0.1569,-0.1879,-0.2322,-0.2855,-0.3295,-0.3864,-0.4648,-0.5209,-0.5851,-0.6706,-0.7467,-0.814,-0.8692,-0.9364,-0.9917,-1.0239,-1.0893,-1.1389,-1.1627,-1.2429,0.0,-1.2786,-1.3397,-1.3486,-1.2965,-1.2914,-1.2949,-1.3041,-1.2873,-1.3222,-1.4043,-1.4208,-1.4764,-1.5617,-1.5947,-1.6132,-1.6256,-1.662,-1.6803,-1.6797,-1.7135,-1.7253,-1.7205,-1.7378,-1.7467,-1.7467,-1.7543,-1.7666,-1.7801,0.5835,0.5829,0.583,0.5713,0.5688,0.5686,0.5699,0.5971,0.6132,0.5974,0.6118,0.613,0.5976,0.5809,0.568,0.568,0.6306,0.6527,0.6166,0.6425,0.6369,0.5893,0.5774,0.5655,0.5549,0.5544,0.5461,0.5354,0.5397,0.5419,0.5393,0.5,0.4946,0.5152,0.507,0.4987,0.4987,0.4987,0.4987,0.4987,0.4847,0.4803,0.4716,0.4326,0.424,0.4322,0.3877,0.3524,0.3306,0.3126,0.2681,0.2191,0.2146,0.188,0.1615,0.1615,0.1881,0.2148,0.2236,0.2061,0.1614,0.0671,0.018,-0.0181,-0.0723,-0.113,-0.1537,-0.2036,-0.2337,-0.2767,-0.3651,-0.4216,-0.473,-0.543,-0.6152,-0.6742,-0.7161,-0.7919,-0.8631,-0.9296,-0.9847,-1.0364,-1.0784,-1.1271,-1.1697,-1.2004,-1.251,-1.292,-1.3176,-1.3714,-1.3961,-1.3846,-1.3534,-1.3455,-1.3642,-1.3263,-1.3287,-1.3742,-1.4023,-1.4614,-1.5401,-1.5862,-1.6238,-1.6522,-1.6784,-1.6918,-1.6967,-1.7273,-1.735,-1.7282,-1.7447,-1.7523,-1.7529,-1.7672,-1.7801,-1.7882,0.5517,0.5561,0.5711,0.5711,0.5679,0.5707,0.57,0.5751,0.5794,0.5751,0.5782,0.5761,0.5763,0.572,0.568,0.568,0.5942,0.6044,0.5791,0.5996,0.6002,0.5749,0.5501,0.537,0.5331,0.5217,0.5158,0.5152,0.5109,0.5007,0.4924,0.4849,0.4868,0.5029,0.4987,0.4987,0.4987,0.4987,0.4987,0.4987,0.4847,0.4716,0.4545,0.4458,0.4188,0.3832,0.3743,0.3432,0.299,0.2592,0.2102,0.1657,0.1387,0.1076,0.0853,0.0853,0.0898,0.1033,0.1433,0.1121,0.0404,-0.0582,-0.0965,-0.1226,-0.1558,-0.17,-0.1982,-0.2634,-0.3106,-0.3605,-0.431,-0.4957,-0.5642,-0.6449,-0.691,-0.7415,-0.8177,0.0,-0.9558,-1.0058,-1.0771,-1.1339,-1.1831,-1.2215,-1.2589,-1.3023,-1.3579,-1.4012,-1.4398,-1.4889,-1.5236,-1.5432,-1.4791,-1.4423,-1.4368,-1.3989,-1.3882,-1.3938,-1.3716,-1.4171,-1.5246,-1.5546,-1.6005,-1.6522,-1.6827,-1.7038,-1.7164,-1.7308,-1.7426,-1.7482,-1.7625,-1.7679,-1.7679,-1.7801,-1.7882,-1.7882,0.5742,0.5684,0.568,0.568,0.5567,0.5478,0.5478,0.5478,0.5478,0.5478,0.5548,0.5585,0.5585,0.5545,0.5504,0.5585,0.5628,0.5631,0.5585,0.5798,0.5798,0.5585,0.5394,0.5292,0.5248,0.5211,0.5174,0.5171,0.5127,0.5087,0.5005,0.4923,0.4936,0.4987,0.4939,0.4893,0.4893,0.4767,0.4762,0.4757,0.436,0.4232,0.424,0.3834,0.3568,0.3435,0.3304,0.2903,0.241,0.2192,0.1749,0.1212,0.1032,0.0853,0.0719,0.0719,0.0719,0.0629,0.0359,-0.0135,-0.0674,-0.1075,-0.134,-0.1619,-0.2046,-0.2191,-0.2521,-0.332,-0.376,-0.4224,-0.4966,-0.548,-0.6118,-0.6975,-0.762,-0.8241,-0.8972,-0.9718,-1.0355,-1.0736,-1.1272,-1.1752,-1.2174,-1.2515,-1.2973,-1.357,-1.4026,-1.4462,-1.4923,-1.5417,-1.5691,-1.5815,-1.5591,-1.5401,-1.5257,-1.4552,-1.4217,-1.4198,-1.3748,-1.4019,-1.4987,-1.5439,-1.6042,-1.6778,-1.6996,-1.717,-1.7308,-1.7419,-1.7447,-1.7523,-1.7713,-1.776,-1.7726,-1.7842,-1.7882,-1.7882,0.5591,0.5595,0.5551,0.5551,0.5436,0.5348,0.5307,0.5307,0.5348,0.5307,0.5384,0.545,0.545,0.5369,0.5308,0.5373,0.529,0.529,0.5367,0.5498,0.5522,0.5448,0.5369,0.5285,0.5239,0.5241,0.5241,0.5193,0.5152,0.5152,0.5152,0.5029,0.4987,0.4987,0.4849,0.4801,0.4755,0.4587,0.4495,0.4441,0.3963,0.3834,0.3882,0.3257,0.3036,0.2993,0.2773,0.237,0.1877,0.1836,0.1391,0.0899,0.0854,0.0764,0.0719,0.0719,0.045,0.009,-0.0539,-0.1034,-0.1393,-0.1389,-0.1571,-0.1904,-0.2519,-0.271,-0.3048,-0.398,-0.4369,-0.4832,-0.564,-0.6173,-0.6783,-0.7666,0.0,-0.9137,-0.9783,-1.0521,-1.1084,-1.1388,-1.1836,-1.2261,-1.2673,-1.294,-1.3398,-1.4169,-1.4551,-1.4962,-1.5523,-1.6025,-1.626,-1.6184,-1.6194,-1.6157,-1.6008,-1.5015,-1.4484,-1.4306,-1.3859,-1.4043,-1.4812,-1.5488,-1.6208,-1.7002,-1.717,-1.7295,-1.7432,-1.7495,-1.7564,-1.7605,-1.7835,-1.7842,-1.776,-1.7842,-1.7882,-1.7882,0.4545,0.4826,0.5053,0.5053,0.5292,0.5427,0.5303,0.5427,0.5427,0.5303,0.5318,0.5328,0.5328,0.5287,0.5242,0.5068,0.501,0.501,0.505,0.4933,0.4988,0.532,0.5287,0.5287,0.5287,0.5239,0.5193,0.5193,0.507,0.5029,0.5029,0.4987,0.4987,0.4987,0.4849,0.4712,0.4618,0.4541,0.4364,0.4134,0.3966,0.3699,0.3427,0.3255,0.2904,0.2504,0.2235,0.1923,0.1567,0.1254,0.1032,0.0899,0.0764,0.0719,0.0719,0.0719,-0.0225,-0.117,-0.0809,-0.1032,-0.1524,-0.1928,-0.2126,-0.2423,-0.3182,-0.3326,-0.3597,-0.4556,-0.5063,-0.5584,-0.6516,-0.7405,-0.82,-0.8956,0.0,0.0,-1.0544,-1.1315,-1.1901,-1.2098,-1.2679,-1.3318,-1.3815,-1.3914,-1.428,-1.5151,-1.5516,-1.5954,-1.6555,-1.7068,-1.7383,-1.739,-1.6791,-1.646,-1.6349,-1.5421,-1.4689,-1.4113,-1.4072,-1.4287,-1.4742,-1.5642,-1.6391,-1.6924,-1.7231,-1.7426,-1.7482,-1.7631,-1.776,-1.7875,-1.7882,-1.7882,-1.7882,-1.7882,-1.7882,-1.7882,0.4273,0.4416,0.4546,0.4619,0.4886,0.5077,0.5118,0.5277,0.5369,0.5287,0.5285,0.5239,0.5239,0.5157,0.5071,0.489,0.4707,0.465,0.467,0.4593,0.4723,0.5108,0.5116,0.5116,0.5116,0.507,0.507,0.507,0.5031,0.4987,0.4987,0.4987,0.4895,0.4755,0.4672,0.4453,0.4142,0.3926,0.3702,0.352,0.3078,0.2901,0.2812,0.255,0.2239,0.1925,0.1925,0.1614,0.1123,0.094,0.0717,0.0584,0.045,0.027,0.009,-0.009,-0.0853,-0.1617,-0.1391,-0.157,-0.1883,-0.206,-0.2398,-0.2895,-0.3607,-0.3979,-0.4443,-0.5452,-0.5853,-0.632,-0.7241,-0.7808,-0.8457,-0.9298,0.0,-1.0582,-1.1246,-1.1936,-1.244,-1.2622,-1.3132,-1.3568,-1.3868,-1.4104,-1.4564,-1.534,-1.5724,-1.6207,-1.6797,-1.724,-1.7386,-1.7089,-1.6916,-1.6846,-1.6893,-1.6006,-1.5286,-1.472,-1.4588,-1.4632,-1.4838,-1.5748,-1.6488,-1.7122,-1.7365,-1.7536,-1.7631,-1.7679,-1.776,-1.7882,-1.7882,-1.7882,-1.7882,-1.7882,-1.7882,-1.7882,0.3791,0.3912,0.3992,0.4097,0.4427,0.4651,0.4722,0.4954,0.5114,0.5047,0.5052,0.5025,0.4912,0.4786,0.4663,0.4493,0.4318,0.422,0.4264,0.4295,0.453,0.4975,0.4923,0.4919,0.4985,0.4987,0.4941,0.4893,0.4893,0.4849,0.4764,0.4764,0.467,0.4487,0.441,0.4148,0.3704,0.344,0.3217,0.2994,0.2503,0.2326,0.2329,0.2017,0.1704,0.1479,0.1435,0.1212,0.0899,0.0583,0.0314,0.009,-0.0,-0.027,-0.0629,-0.0943,-0.1436,-0.1884,-0.1881,-0.2149,-0.2373,-0.2325,-0.2737,-0.3395,-0.4044,-0.4498,-0.507,-0.6165,-0.6532,-0.6983,-0.8061,-0.847,-0.9048,-1.0009,-1.0615,-1.1178,-1.1911,-1.2445,-1.2871,-1.3065,-1.3435,-1.3763,-1.3905,-1.4186,-1.4691,-1.5463,-1.5768,-1.625,-1.696,-1.7288,-1.724,-1.6765,-1.6886,-1.6934,-1.6905,-1.6176,-1.5613,-1.5246,-1.5252,-1.5246,-1.5298,-1.6177,-1.6826,-1.7253,-1.7495,-1.7618,-1.7686,-1.776,-1.7801,-1.7882,-1.7882,-1.7882,-1.7882,-1.7882,-1.7882,-1.7882,0.2935,0.3203,0.3499,0.3499,0.3954,0.424,0.4118,0.4489,0.4716,0.443,0.458,0.4583,0.4224,0.4202,0.4084,0.3816,0.3801,0.3801,0.3801,0.3974,0.4375,0.4964,0.4821,0.4807,0.498,0.4987,0.4849,0.4615,0.4615,0.4487,0.4318,0.4318,0.4318,0.4274,0.415,0.3842,0.3396,0.326,0.2994,0.2686,0.2414,0.2193,0.2064,0.1704,0.1479,0.121,0.0674,0.0719,0.0899,0.0225,-0.0225,-0.0494,-0.0494,-0.09,-0.144,-0.166,-0.1884,-0.2153,-0.2281,-0.2634,-0.2947,-0.2773,-0.3216,-0.3873,-0.4484,-0.4881,-0.5444,-0.656,-0.7008,-0.7603,-0.8965,-0.9551,-1.0174,-1.1314,-1.1623,-1.1927,-1.2627,-1.2866,-1.3099,-1.3367,-1.3768,-1.4057,-1.4176,-1.4326,-1.4737,-1.5546,-1.5706,-1.6232,-1.7157,-1.7308,-1.719,-1.6725,-1.684,-1.6663,-1.6194,-1.5857,-1.5624,-1.5513,-1.5996,-1.6144,-1.6017,-1.695,-1.7404,-1.7404,-1.7604,-1.7686,-1.7726,-1.7842,-1.7882,-1.7882,-1.7882,-1.7882,-1.7882,-1.7882,-1.7882,-1.7882,0.2641,0.2779,0.2949,0.2985,0.3332,0.3628,0.3658,0.3931,0.4078,0.3983,0.3983,0.3996,0.3942,0.3934,0.3819,0.3593,0.3547,0.3516,0.3442,0.3405,0.3671,0.4253,0.4425,0.453,0.4668,0.4647,0.4629,0.4615,0.4353,0.4222,0.418,0.418,0.4049,0.3829,0.3787,0.3435,0.2908,0.2682,0.237,0.2061,0.1881,0.1701,0.1523,0.1433,0.1256,0.0988,0.0629,0.0539,0.0494,-0.0135,-0.0405,-0.0584,-0.1121,-0.157,-0.193,-0.206,-0.2327,-0.2598,-0.286,-0.3167,-0.3388,-0.3217,-0.3658,-0.427,-0.4838,-0.5484,-0.6319,-0.7402,-0.8166,-0.8877,-0.9746,-1.034,-1.096,-1.1669,-1.2071,-1.2466,-1.2992,-1.3276,-1.3478,-1.3668,-1.3947,-1.4181,-1.4222,-1.446,-1.488,-1.5457,-1.6163,-1.6686,-1.6954,-1.7093,-1.6918,-1.6491,-1.6675,-1.6626,-1.6362,-1.623,-1.5963,-1.5513,-1.6351,-1.6537,-1.6163,-1.7161,-1.7604,-1.7604,-1.776,-1.7842,-1.7842,-1.7882,-1.7882,-1.7882,-1.7882,-1.7882,-1.7882,-1.7882,-1.7882,-1.7882,0.2477,0.251,0.2578,0.2646,0.289,0.3093,0.3157,0.3412,0.3575,0.3464,0.3516,0.3497,0.3432,0.3388,0.3307,0.3093,0.2947,0.2881,0.2916,0.2789,0.2854,0.3229,0.3471,0.3788,0.4216,0.4316,0.4283,0.4122,0.3931,0.3787,0.3741,0.3741,0.3653,0.3432,0.3347,0.3037,0.2505,0.2283,0.2015,0.1703,0.1568,0.1433,0.1344,0.1211,0.1077,0.0854,0.0314,-0.0,-0.0269,-0.0763,-0.0988,-0.1167,-0.1701,-0.2015,-0.224,-0.2503,-0.2814,-0.3171,-0.3524,-0.3917,-0.4176,-0.418,-0.4443,-0.4836,-0.5402,-0.6246,-0.7146,-0.808,-0.8863,-0.9635,-1.0489,-1.0918,-1.1377,-1.2022,-1.2421,-1.2754,-1.3218,-1.352,-1.3763,-1.3952,-1.4082,-1.4269,-1.4368,-1.4558,-1.5023,-1.5736,-1.6485,-1.6918,-1.7002,-1.696,-1.6869,-1.6656,-1.662,-1.6583,-1.6534,-1.6534,-1.6328,-1.5961,-1.6667,-1.687,-1.6715,-1.7396,-1.7726,-1.776,-1.7842,-1.7882,-1.7882,-1.7882,-1.7882,-1.7882,-1.7882,-1.7882,-1.7882,-1.7882,-1.7882,-1.7882,0.2308,0.2341,0.2374,0.2341,0.251,0.2615,0.2615,0.2935,0.3079,0.2854,0.3002,0.3042,0.2765,0.2716,0.2613,0.2374,0.2172,0.2138,0.224,0.2138,0.207,0.2103,0.2255,0.2773,0.3615,0.3831,0.376,0.3331,0.3296,0.3232,0.3108,0.3108,0.3115,0.3083,0.2909,0.2595,0.2236,0.2016,0.1793,0.1568,0.1344,0.1298,0.1299,0.0943,0.0854,0.0764,-0.0134,-0.0761,-0.1164,-0.1523,-0.1792,-0.2062,-0.2281,-0.2369,-0.2502,-0.2944,-0.3431,-0.3875,-0.4272,-0.4751,-0.5185,-0.5351,-0.5435,-0.5567,-0.6093,-0.6931,-0.7861,-0.8597,-0.927,-1.0061,-1.1157,-1.1377,-1.1623,-1.2377,-1.2715,-1.2997,-1.3372,-1.3663,-1.3952,-1.4176,-1.4222,-1.4321,-1.4656,-1.4748,-1.5198,-1.615,-1.6663,-1.7002,-1.7157,-1.7002,-1.6918,-1.7002,-1.6693,-1.6577,-1.6725,-1.6725,-1.6725,-1.6725,-1.6918,-1.7177,-1.7404,-1.7638,-1.776,-1.7882,-1.7882,-1.7882,-1.7882,-1.7882,-1.7882,-1.7882,-1.7882,-1.7882,-1.7882,-1.7882,-1.7882,-1.7882,0.1877,0.1978,0.2046,0.1876,0.1978,0.2079,0.2079,0.2134,0.2175,0.2114,0.2064,0.2071,0.2082,0.2079,0.2079,0.2011,0.1978,0.1944,0.1978,0.1876,0.1842,0.2011,0.2121,0.2222,0.2327,0.2722,0.2886,0.286,0.2646,0.2502,0.242,0.242,0.2381,0.233,0.2281,0.2147,0.1882,0.1658,0.1479,0.1344,0.1209,0.0941,0.0673,0.0448,0.0179,-0.0179,-0.0851,-0.1164,-0.1343,-0.1833,-0.2101,-0.2281,-0.2641,-0.2953,-0.326,-0.3739,-0.4134,-0.453,-0.5099,-0.5318,-0.5534,-0.609,-0.6392,-0.652,-0.634,-0.7116,-0.8157,-0.892,-0.9902,-1.0818,-1.1506,-1.1873,-1.2229,-1.2578,-1.2895,-1.3271,-1.3668,-1.3947,-1.4181,-1.4326,-1.4373,-1.4373,-1.4471,-1.513,-1.58,-1.6392,-1.6863,-1.7122,-1.7038,-1.7002,-1.696,-1.6918,-1.6754,-1.6712,-1.684,-1.684,-1.684,-1.684,-1.719,-1.7385,-1.7488,-1.7754,-1.7882,-1.7882,-1.7882,-1.7882,-1.7882,-1.7882,-1.7882,-1.7882,-1.7882,-1.7882,-1.7882,-1.7882,-1.7882,-1.7882,0.1444,0.1614,0.1782,0.1681,0.1644,0.1676,0.1676,0.171,0.1743,0.1743,0.1709,0.1676,0.1743,0.1743,0.1744,0.1714,0.1579,0.1512,0.1512,0.1377,0.1343,0.1411,0.145,0.1453,0.1377,0.1632,0.1956,0.2269,0.2126,0.206,0.203,0.203,0.1956,0.1914,0.1823,0.1693,0.161,0.1377,0.1152,0.0914,0.0827,0.0484,0.0045,-0.0131,-0.0483,-0.094,-0.1386,-0.1744,-0.2103,-0.2502,-0.2767,-0.2944,-0.3214,-0.3568,-0.3961,-0.4395,-0.4831,-0.5267,-0.5704,-0.601,-0.6297,-0.6774,-0.7114,-0.7294,-0.7044,-0.7873,-0.8892,-0.9528,-1.0588,-1.1523,-1.1923,-1.2224,-1.2471,-1.2803,-1.3084,-1.3415,-1.3821,-1.4145,-1.4326,-1.4373,-1.4378,-1.4471,-1.4697,-1.5451,-1.607,-1.6436,-1.6784,-1.696,-1.696,-1.6882,-1.6882,-1.6882,-1.6761,-1.6761,-1.6882,-1.7002,-1.7086,-1.7141,-1.7343,-1.7502,-1.7618,-1.7801,-1.7882,-1.7882,-1.7882,-1.7882,-1.7882,-1.7882,-1.7882,-1.7882,-1.7882,-1.7882,-1.7882,-1.7882,-1.7882,-1.7882,0.1043,0.1246,0.1449,0.1415,0.131,0.1273,0.1341,0.1442,0.1509,0.1475,0.1509,0.1509,0.1475,0.1442,0.141,0.1415,0.1144,0.0976,0.1009,0.0874,0.0773,0.074,0.074,0.0773,0.0807,0.0841,0.1134,0.1615,0.1648,0.1651,0.1664,0.1664,0.1629,0.1579,0.1423,0.1295,0.1208,0.1096,0.0783,0.0333,0.0252,-0.0085,-0.0524,-0.0721,-0.1073,-0.1552,-0.1872,-0.2414,-0.3043,-0.3216,-0.3478,-0.3695,-0.3829,-0.4176,-0.4611,-0.5005,-0.5526,-0.6004,-0.6267,-0.6653,-0.7055,-0.7291,-0.7746,-0.807,-0.804,-0.8849,-0.9729,-1.0219,-1.1164,-1.1977,-1.2274,-1.2431,-1.2618,-1.288,-1.3218,-1.3563,-1.3868,-1.4192,-1.4378,-1.4378,-1.4378,-1.4558,-1.5057,-1.5641,-1.6082,-1.6399,-1.662,-1.6803,-1.684,-1.6803,-1.684,-1.6924,-1.684,-1.684,-1.7002,-1.7157,-1.7337,-1.7446,-1.7536,-1.7618,-1.772,-1.7842,-1.7882,-1.7882,-1.7882,-1.7882,-1.7882,-1.7882,-1.7882,-1.7882,-1.7882,-1.7882,-1.7882,-1.7882,-1.7882,-1.7882,0.0605,0.0773,0.0841,0.0672,0.0638,0.0739,0.1076,0.1143,0.111,0.1009,0.111,0.111,0.1009,0.0773,0.0773,0.1111,0.0706,0.0471,0.0571,0.0471,0.0437,0.0538,0.0538,0.0639,0.0807,0.0807,0.0843,0.0951,0.0993,0.1021,0.1031,0.1031,0.106,0.1073,0.1076,0.0865,0.0518,0.0389,0.0085,-0.0277,-0.0495,-0.074,-0.104,-0.1367,-0.1644,-0.2003,-0.2563,-0.3083,-0.3522,-0.361,-0.3829,-0.4089,-0.4399,-0.4703,-0.5099,-0.5572,-0.6127,-0.6601,-0.6784,-0.7115,-0.7447,-0.7612,-0.8268,-0.8956,-0.9286,-0.9628,-1.006,-1.0625,-1.1359,-1.1977,-1.2274,-1.248,-1.2676,-1.2725,-1.319,-1.3615,-1.3668,-1.4093,-1.4378,-1.4378,-1.4378,-1.4558,-1.5057,-1.5534,-1.5976,-1.6349,-1.6863,-1.7002,-1.6718,-1.696,-1.708,-1.7002,-1.708,-1.724,-1.7441,-1.7434,-1.7536,-1.7645,-1.7801,-1.7842,-1.7882,-1.7882,-1.7882,-1.7882,-1.7882,-1.7882,-1.7882,-1.7882,-1.7882,-1.7882,-1.7882,-1.7882,-1.7882,-1.7882,-1.7882,-1.7916,0.0504,0.0437,0.0336,0.0235,0.0302,0.0403,0.0471,0.0773,0.1009,0.1009,0.0841,0.0672,0.0538,0.0437,0.0437,0.0538,0.0403,0.0302,0.0269,0.0235,0.0202,0.0235,0.0235,0.0269,0.0336,0.037,0.0302,0.0202,0.0672,0.0886,0.0837,0.0523,0.0359,0.034,0.0154,-0.0,-0.0189,-0.0364,-0.06,-0.0826,-0.1191,-0.1401,-0.1569,-0.1922,-0.2215,-0.2533,-0.3125,-0.3568,-0.3915,-0.4007,-0.4226,-0.4532,-0.4748,-0.5185,-0.5669,-0.5922,-0.6392,-0.6865,-0.7041,-0.7372,-0.7798,-0.8154,-0.8894,-0.9711,-1.0189,-1.0639,-1.1013,-1.1141,-1.1748,-1.2274,-1.2382,-1.2627,-1.292,-1.3152,-1.343,-1.3705,-1.3999,-1.4233,-1.4378,-1.4378,-1.4558,-1.4777,-1.5062,-1.5706,-1.6151,-1.6392,-1.682,-1.7002,-1.6797,-1.696,-1.6996,-1.7002,-1.7122,-1.7288,-1.7419,-1.7543,-1.7631,-1.7686,-1.7842,-1.7882,-1.7882,-1.7882,-1.7882,-1.7882,-1.7882,-1.7882,-1.7882,-1.7882,-1.7882,-1.7882,-1.7882,-1.7882,-1.7882,-1.7882,-1.7909,-1.7969]},{"header":{"parameterUnit":"m.s-1","parameterCategory":1,"la1":30.6,"la2":28.766,"lo1":-90.7593,"lo2":-88.6598,"dy":0.0162,"dx":0.0183,"nx":116,"ny":114,"refTime":"2023-06-09T12:00:00:Z","depth":0,"parameterNumber":3,"parameterNumberName":"V-component_of_WINDS"},"data":[0.0,0.0,0.0,0.0,0.0,0.0,0.0,0.0,0.0,0.0,0.0,0.0,0.0,0.0,0.0,0.0,0.0,0.0,0.0,0.0,0.0,0.0,0.0,0.0,0.0,0.0,0.0,0.0,0.0,0.0,0.0,0.0,0.0,0.0,0.0,0.0,0.0,0.0,0.0,0.0,0.0,0.0,0.0,0.0,0.0,0.0,0.0,0.0,0.0,0.0,0.0,0.0,0.0,0.0,0.0,0.0,0.0,0.0,0.0,0.0,0.0,0.0,0.0,0.0,0.0,0.0,0.0,0.0,0.0,0.0,0.0,0.0,0.0,0.0,0.0,0.0,0.0,0.0,0.0,0.0,0.0,0.0,0.0,0.0,0.0,0.0,0.0,0.0,0.0,0.0,0.0,0.0,0.0,0.0,0.0,0.0,0.0,0.0,0.0,0.0,0.0,0.0,0.0,0.0,0.0,0.0,0.0,0.0,0.0,0.0,0.0,0.0,0.0,0.0,0.0,0.0,0.0,0.0,0.0,0.0,0.0,0.0,0.0,0.0,0.0,0.0,0.0,0.0,0.0,0.0,0.0,0.0,0.0,0.0,0.0,0.0,0.0,0.0,0.0,0.0,0.0,0.0,0.0,0.0,0.0,0.0,0.0,0.0,0.0,0.0,0.0,0.0,0.0,0.0,0.0,0.0,0.0,0.0,0.0,0.0,0.0,0.0,0.0,0.0,0.0,0.0,0.0,0.0,0.0,0.0,0.0,0.0,0.0,0.0,0.0,0.0,0.0,0.0,0.0,0.0,0.0,0.0,0.0,0.0,0.0,0.0,0.0,0.0,0.0,0.0,0.0,0.0,0.0,0.0,0.0,0.0,0.0,0.0,0.0,0.0,0.0,0.0,0.0,0.0,0.0,0.0,0.0,0.0,0.0,0.0,0.0,0.0,0.0,0.0,0.0,0.0,0.0,0.0,0.0,0.0,0.0,0.0,0.0,0.0,0.0,0.0,0.0,0.0,0.0,0.0,0.0,0.0,0.0,0.0,0.0,0.0,0.0,0.0,0.0,0.0,0.0,0.0,0.0,0.0,0.0,0.0,0.0,0.0,0.0,0.0,0.0,0.0,0.0,0.0,0.0,0.0,0.0,0.0,0.0,0.0,0.0,0.0,0.0,0.0,0.0,0.0,0.0,0.0,0.0,0.0,0.0,0.0,0.0,0.0,0.0,0.0,0.0,0.0,0.0,0.0,0.0,0.0,0.0,0.0,0.0,0.0,0.0,0.0,0.0,0.0,0.0,0.0,0.0,0.0,0.0,0.0,0.0,0.0,0.0,0.0,0.0,0.0,0.0,0.0,0.0,0.0,0.0,0.0,0.0,0.0,0.0,0.0,0.0,0.0,0.0,0.0,0.0,0.0,0.0,0.0,0.0,0.0,0.0,0.0,0.0,0.0,0.0,0.0,0.0,0.0,0.0,0.0,0.0,0.0,0.0,0.0,0.0,0.0,0.0,0.0,0.0,0.0,0.0,0.0,0.0,0.0,0.0,0.0,0.0,0.0,0.0,0.0,0.0,0.0,0.0,0.0,0.0,0.0,0.0,0.0,0.0,0.0,0.0,0.0,0.0,0.0,0.0,0.0,0.0,0.0,0.0,0.0,0.0,0.0,0.0,0.0,0.0,0.0,0.0,0.0,0.0,0.0,0.0,0.0,0.0,0.0,0.0,0.0,0.0,0.0,0.0,0.0,0.0,0.0,0.0,0.0,0.0,0.0,0.0,0.0,0.0,0.0,0.0,0.0,0.0,0.0,0.0,0.0,0.0,0.0,0.0,0.0,0.0,0.0,0.0,0.0,0.0,0.0,0.0,0.0,0.0,0.0,0.0,0.0,0.0,0.0,0.0,0.0,0.0,0.0,0.0,0.0,0.0,0.0,0.0,0.0,0.0,0.0,0.0,0.0,0.0,0.0,0.0,0.0,0.0,0.0,0.0,0.0,0.0,0.0,0.0,0.0,0.0,0.0,0.0,0.0,0.0,0.0,0.0,0.0,0.0,0.0,0.0,0.0,0.0,0.0,0.0,0.0,0.0,0.0,0.0,0.0,0.0,0.0,0.0,0.0,0.0,0.0,0.0,0.0,0.0,0.0,0.0,0.0,0.0,0.0,0.0,0.0,0.0,0.0,0.0,0.0,0.0,0.0,0.0,0.0,0.0,0.0,0.0,0.0,0.0,0.0,0.0,0.0,0.0,0.0,0.0,0.0,0.0,0.0,0.0,0.0,0.0,0.0,0.0,0.0,0.0,0.0,0.0,0.0,0.0,0.0,0.0,0.0,0.0,0.0,0.0,0.0,0.0,0.0,0.0,0.0,0.0,0.0,0.0,0.0,0.0,0.0,0.0,0.0,0.0,0.0,0.0,0.0,0.0,0.0,0.0,0.0,0.0,0.0,0.0,0.0,0.0,0.0,0.0,0.0,0.0,0.0,0.0,0.0,0.0,0.0,0.0,0.0,0.0,0.0,0.0,0.0,0.0,0.0,0.0,0.0,0.0,0.0,0.0,0.0,0.0,0.0,0.0,0.0,0.0,0.0,0.0,0.0,0.0,0.0,0.0,0.0,0.0,0.0,0.0,0.0,0.0,0.0,0.0,0.0,0.0,0.0,0.0,0.0,0.0,0.0,0.0,0.0,0.0,0.0,0.0,0.0,0.0,0.0,0.0,0.0,0.0,0.0,0.0,0.0,0.0,0.0,0.0,0.0,0.0,0.0,0.0,0.0,0.0,0.0,0.0,0.0,0.0,0.0,0.0,0.0,0.0,0.0,0.0,0.0,0.0,0.0,0.0,0.0,0.0,0.0,0.0,0.0,0.0,0.0,0.0,0.0,0.0,0.0,0.0,0.0,0.0,0.0,0.0,0.0,0.0,0.0,0.0,0.0,0.0,0.0,0.0,0.0,0.0,0.0,0.0,0.0,0.0,0.0,0.0,0.0,0.0,0.0,0.0,0.0,0.0,0.0,0.0,0.0,0.0,0.0,0.0,0.0,0.0,0.0,0.0,0.0,0.0,0.0,0.0,0.0,0.0,0.0,0.0,0.0,0.0,0.0,0.0,0.0,0.0,0.0,0.0,0.0,0.0,0.0,0.0,0.0,0.0,0.0,0.0,0.0,0.0,0.0,0.0,0.0,0.0,0.0,0.0,0.0,0.0,0.0,0.0,0.0,0.0,0.0,0.0,0.0,0.0,0.0,0.0,0.0,0.0,0.0,0.0,0.0,0.0,0.0,0.0,0.0,0.0,0.0,0.0,0.0,0.0,0.0,0.0,0.0,0.0,0.0,0.0,0.0,0.0,0.0,0.0,0.0,0.0,0.0,0.0,0.0,0.0,0.0,0.0,0.0,0.0,0.0,0.0,0.0,0.0,0.0,0.0,0.0,0.0,0.0,0.0,0.0,0.0,0.0,0.0,0.0,0.0,0.0,0.0,0.0,0.0,0.0,0.0,0.0,0.0,0.0,0.0,0.0,0.0,0.0,0.0,0.0,0.0,0.0,0.0,0.0,0.0,0.0,0.0,0.0,0.0,0.0,0.0,0.0,0.0,0.0,0.0,0.0,0.0,0.0,0.0,0.0,0.0,0.0,0.0,0.0,0.0,0.0,0.0,0.0,0.0,0.0,0.0,0.0,0.0,0.0,0.0,0.0,0.0,0.0,0.0,0.0,0.0,0.0,0.0,0.0,0.0,0.0,0.0,0.0,0.0,0.0,0.0,0.0,0.0,0.0,0.0,0.0,0.0,0.0,0.0,0.0,0.0,0.0,0.0,0.0,0.0,0.0,0.0,0.0,0.0,0.0,0.0,0.0,0.0,0.0,0.0,0.0,0.0,0.0,0.0,0.0,0.0,0.0,0.0,0.0,0.0,0.0,0.0,0.0,0.0,0.0,0.0,0.0,0.0,0.0,0.0,0.0,0.0,0.0,0.0,0.0,0.0,0.0,0.0,0.0,0.0,0.0,0.0,0.0,0.0,0.0,0.0,0.0,0.0,0.0,0.0,0.0,0.0,0.0,0.0,0.0,0.0,0.0,0.0,0.0,0.0,0.0,0.0,0.0,0.0,0.0,0.0,0.0,0.0,0.0,0.0,0.0,0.0,0.0,0.0,0.0,0.0,0.0,0.0,0.0,0.0,0.0,0.0,0.0,0.0,0.0,0.0,0.0,0.0,0.0,0.0,0.0,0.0,0.0,0.0,0.0,0.0,0.0,0.0,0.0,0.0,0.0,0.0,0.0,0.0,0.0,0.0,0.0,0.0,0.0,0.0,0.0,0.0,0.0,0.0,0.0,0.0,0.0,0.0,0.0,0.0,0.0,0.0,0.0,0.0,0.0,0.0,0.0,0.0,0.0,0.0,0.0,0.0,0.0,0.0,0.0,0.0,0.0,0.0,0.0,0.0,0.0,0.0,0.0,0.0,0.0,0.0,0.0,0.0,0.0,0.0,0.0,0.0,0.0,0.0,0.0,0.0,0.0,0.0,0.0,0.0,0.0,0.0,0.0,0.0,0.0,0.0,0.0,0.0,0.0,0.0,0.0,0.0,0.0,0.0,0.0,0.0,0.0,0.0,0.0,0.0,0.0,0.0,0.0,0.0,0.0,0.0,0.0,0.0,0.0,0.0,0.0,0.0,0.0,0.0,0.0,0.0,0.0,0.0,0.0,0.0,0.0,0.0,0.0,0.0,0.0,0.0,0.0,0.0,0.0,0.0,0.0,0.0,0.0,0.0,0.0,0.0,0.0,0.0,0.0,0.0,0.0,0.0,0.0,0.0,0.0,0.0,0.0,0.0,0.0,0.0,0.0,0.0,0.0,0.0,0.0,0.0,0.0,0.0,0.0,0.0,0.0,0.0,0.0,0.0,0.0,0.0,0.0,0.0,0.0,0.0,0.0,0.0,0.0,0.0,0.0,0.0,0.0,0.0,0.0,0.0,0.0,0.0,0.0,0.0,0.0,0.0,0.0,0.0,0.0,0.0,0.0,0.0,0.0,0.0,0.0,0.0,0.0,0.0,0.0,0.0,0.0,0.0,0.0,0.0,0.0,0.0,0.0,0.0,0.0,0.0,0.0,0.0,0.0,0.0,0.0,0.0,0.0,0.0,0.0,0.0,0.0,0.0,0.0,0.0,0.0,0.0,0.0,0.0,0.0,0.0,0.0,0.0,0.0,0.0,0.0,0.0,0.0,0.0,0.0,0.0,0.0,0.0,0.0,0.0,0.0,0.0,0.0,0.0,0.0,0.0,0.0,0.0,0.0,0.0,0.0,0.0,0.0,0.0,0.0,0.0,0.0,0.0,0.0,0.0,0.0,0.0,0.0,0.0,0.0,0.0,0.0,0.0,0.0,0.0,0.0,0.0,0.0,0.0,0.0,0.0,0.0,0.0,0.0,0.0,0.0,0.0,0.0,0.0,0.0,0.0,0.0,0.0,0.0,0.0,0.0,0.0,0.0,0.0,0.0,0.0,0.0,0.0,0.0,0.0,0.0,0.0,0.0,0.0,0.0,0.0,0.0,0.0,0.0,0.0,0.0,0.0,0.0,0.0,0.0,0.0,0.0,0.0,0.0,0.0,0.0,0.0,0.0,0.0,0.0,0.0,0.0,0.0,0.0,0.0,0.0,0.0,0.0,0.0,0.0,0.0,0.0,0.0,0.0,0.0,0.0,0.0,0.0,0.0,0.0,0.0,0.0,0.0,0.0,0.0,0.0,0.0,0.0,0.0,0.0,0.0,0.0,0.0,0.0,0.0,0.0,0.0,0.0,0.0,0.0,0.0,0.0,0.0,0.0,0.0,0.0,0.0,0.0,0.0,0.0,0.0,0.0,0.0,0.0,0.0,0.0,0.0,0.0,0.0,0.0,0.0,0.0,0.0,0.0,0.0,0.0,0.0,0.0,0.0,0.0,0.0,0.0,0.0,0.0,0.0,0.0,0.0,0.0,0.0,0.0,0.0,0.0,0.0,0.0,0.0,0.0,0.0,0.0,0.0,0.0,0.0,0.0,0.0,0.0,0.0,0.0,0.0,0.0,0.0,0.0,0.0,0.0,0.0,0.0,0.0,0.0,0.0,0.0,0.0,0.0,-0.7774,0.0,0.0,0.0,0.0,0.0,0.0,0.0,0.0,0.0,0.0,0.0,0.0,0.0,0.0,0.0,0.0,0.0,0.0,0.0,0.0,0.0,0.0,0.0,0.0,0.0,0.0,0.0,0.0,0.0,0.0,0.0,0.0,0.0,0.0,0.0,0.0,0.0,0.0,0.0,-0.9183,-0.9129,-0.9575,-0.9549,-0.991,-1.0567,0.0,0.0,0.0,0.0,0.0,0.0,0.0,0.0,0.0,0.0,0.0,0.0,0.0,0.0,0.0,0.0,0.0,0.0,0.0,0.0,0.0,0.0,0.0,0.0,0.0,0.0,0.0,0.0,0.0,0.0,0.0,0.0,0.0,0.0,0.0,0.0,0.0,0.0,0.0,0.0,0.0,0.0,0.0,0.0,0.0,0.0,0.0,0.0,0.0,0.0,0.0,0.0,0.0,0.0,0.0,0.0,0.0,0.0,0.0,0.0,0.0,0.0,0.0,0.0,0.0,0.0,0.0,0.0,0.0,0.0,0.0,-1.0008,0.0,0.0,0.0,0.0,0.0,0.0,0.0,0.0,0.0,0.0,0.0,0.0,0.0,0.0,0.0,0.0,0.0,0.0,0.0,0.0,0.0,0.0,0.0,0.0,-0.8763,-0.935,-0.9457,-0.9483,0.0,0.0,0.0,0.0,0.0,0.0,0.0,-0.9465,-0.9653,-1.0034,-0.9612,-0.9417,-0.945,-1.0107,-1.0873,-1.1659,-1.1394,0.0,0.0,0.0,0.0,0.0,0.0,0.0,0.0,0.0,0.0,0.0,0.0,0.0,0.0,0.0,0.0,0.0,0.0,0.0,0.0,0.0,0.0,0.0,0.0,0.0,0.0,0.0,0.0,0.0,0.0,0.0,0.0,0.0,0.0,0.0,0.0,0.0,0.0,0.0,0.0,0.0,0.0,0.0,0.0,0.0,0.0,0.0,0.0,0.0,0.0,0.0,0.0,0.0,0.0,0.0,0.0,0.0,0.0,0.0,0.0,0.0,0.0,0.0,-1.4445,-1.5001,-1.4929,-1.5346,-1.4779,-1.3413,-1.2721,-1.2295,-1.212,-1.2822,0.0,0.0,0.0,0.0,0.0,0.0,0.0,0.0,0.0,0.0,0.0,0.0,0.0,0.0,0.0,0.0,0.0,0.0,0.0,0.0,0.0,-0.9508,-0.9421,-0.9403,-0.9412,-0.9385,-0.9332,0.0,0.0,0.0,0.0,0.0,-0.9237,-0.9845,-0.9889,-0.9335,-1.0447,-1.1206,-1.1602,-1.2223,-1.2574,-1.2644,-1.1127,-1.0802,-1.1346,0.0,0.0,0.0,0.0,0.0,0.0,0.0,0.0,0.0,0.0,0.0,0.0,0.0,0.0,0.0,0.0,0.0,0.0,0.0,0.0,0.0,0.0,0.0,0.0,0.0,0.0,0.0,0.0,0.0,0.0,0.0,0.0,0.0,0.0,0.0,0.0,0.0,0.0,0.0,0.0,0.0,-1.2063,-1.3701,0.0,0.0,0.0,0.0,0.0,0.0,0.0,0.0,0.0,0.0,0.0,0.0,0.0,-1.4343,-1.4386,-1.5217,-1.5687,-1.5806,-1.6512,-1.6881,-1.6921,-1.6934,-1.6744,-1.6419,-1.6192,0.0,-1.233,-1.2042,0.0,0.0,0.0,0.0,0.0,0.0,0.0,0.0,0.0,0.0,0.0,0.0,0.0,0.0,0.0,0.0,0.0,0.0,0.0,0.0,0.0,-0.9679,-0.9573,-0.9518,-0.9959,-1.0168,-0.9992,-1.0519,0.0,0.0,0.0,-1.0638,-1.0553,-1.0903,-1.0915,-1.0551,-1.1048,-1.1418,-1.1695,-1.278,-1.3295,-1.3278,-1.2854,-1.2341,-1.1826,-1.2256,0.0,0.0,0.0,0.0,0.0,0.0,0.0,0.0,0.0,0.0,0.0,0.0,0.0,0.0,0.0,0.0,0.0,0.0,0.0,0.0,0.0,0.0,0.0,0.0,0.0,0.0,0.0,0.0,0.0,0.0,0.0,0.0,0.0,0.0,0.0,0.0,0.0,0.0,0.0,-1.3239,-1.4112,-1.4426,-1.532,-1.5619,0.0,0.0,0.0,0.0,0.0,0.0,0.0,0.0,0.0,-1.6234,-1.6372,-1.6414,-1.6411,-1.6756,-1.6947,-1.6974,-1.7198,-1.7327,-1.7374,-1.7716,-1.7578,-1.7077,-1.7505,-1.6647,-1.4864,-1.4138,-1.4217,-1.4741,0.0,0.0,0.0,0.0,-1.5297,-1.5408,0.0,0.0,0.0,0.0,0.0,0.0,0.0,0.0,0.0,0.0,0.0,0.0,-1.0137,-1.0241,-1.0284,-1.0246,-1.0819,-1.1059,-1.0772,-1.1252,0.0,0.0,-1.1568,-1.1572,-1.1572,-1.1671,-1.191,-1.2291,-1.1929,-1.1977,-1.2415,-1.3484,-1.3971,-1.3965,-1.4624,-1.4119,-1.2803,-1.335,-1.2968,-1.2068,0.0,0.0,0.0,0.0,0.0,0.0,0.0,0.0,0.0,0.0,0.0,0.0,0.0,0.0,0.0,0.0,0.0,0.0,0.0,0.0,0.0,0.0,0.0,0.0,0.0,0.0,0.0,0.0,0.0,0.0,0.0,0.0,0.0,0.0,0.0,0.0,0.0,-1.4699,-1.5129,-1.4617,-1.5649,-1.6302,0.0,0.0,0.0,0.0,0.0,0.0,-1.6354,-1.6516,-1.6853,-1.7481,-1.7579,-1.76,-1.7547,-1.7836,-1.7951,-1.7883,-1.8022,-1.808,-1.8078,-1.8563,-1.8415,-1.7828,-1.8475,-1.822,-1.7237,-1.6301,-1.5722,-1.5408,-1.5268,-1.5357,-1.5627,-1.6159,-1.6363,-1.6451,0.0,0.0,0.0,0.0,0.0,0.0,0.0,0.0,0.0,0.0,0.0,-1.0359,-1.1048,-1.1746,-1.2114,-1.1985,-1.1958,-1.1796,-1.1464,-1.0899,-1.0824,-1.1395,-1.1471,-1.1505,-1.1505,-1.1706,-1.257,-1.4156,-1.3394,-1.3733,-1.5099,-1.5059,-1.4962,-1.4863,-1.5659,-1.5375,-1.4203,-1.2937,-1.2451,-1.2574,-1.2821,0.0,0.0,0.0,0.0,0.0,0.0,0.0,0.0,0.0,0.0,0.0,0.0,0.0,0.0,0.0,0.0,0.0,0.0,0.0,0.0,0.0,0.0,0.0,0.0,0.0,0.0,0.0,0.0,0.0,0.0,0.0,0.0,0.0,0.0,0.0,0.0,0.0,0.0,-1.4399,-1.4657,0.0,0.0,0.0,0.0,-1.7302,-1.7251,-1.7249,-1.7425,-1.7369,-1.7387,-1.75,-1.7629,-1.7686,-1.7685,-1.8579,-1.8991,-1.8927,-1.9627,-1.9926,-1.9867,-1.9847,-1.9767,-1.9675,-1.9713,-1.9229,-1.8352,-1.7411,-1.7368,-1.7849,-1.7152,-1.7314,-1.7858,-1.7265,-1.7055,-1.7067,0.0,0.0,0.0,0.0,0.0,0.0,0.0,0.0,-1.0177,-1.0107,-1.0553,-1.1147,-1.1885,-1.2753,-1.3228,-1.3144,-1.3151,-1.2828,-1.2068,-1.2157,-1.2252,-1.2302,-1.282,-1.3217,-1.3425,-1.299,-1.3609,-1.5325,-1.5043,-1.5406,-1.6408,-1.6835,-1.6985,-1.6929,-1.7603,-1.7405,-1.6479,-1.4758,-1.3797,-1.3452,-1.3604,-1.331,0.0,0.0,0.0,0.0,0.0,0.0,0.0,0.0,0.0,0.0,0.0,0.0,0.0,0.0,0.0,0.0,0.0,0.0,0.0,0.0,0.0,0.0,0.0,0.0,0.0,0.0,0.0,0.0,0.0,0.0,0.0,0.0,0.0,0.0,0.0,0.0,0.0,-1.5399,-1.6418,0.0,-1.697,-1.7422,-1.7631,-1.7454,-1.7425,-1.7681,-1.8241,-1.8326,-1.8637,-1.9219,-1.9331,-1.9374,-1.9367,-1.9704,-1.9863,-1.9838,-2.0057,-2.0124,-2.006,-1.9991,-1.9946,-1.9928,-1.9879,-1.9711,-1.9449,-1.9157,-1.8433,-1.7498,-1.7279,-1.7347,-1.7627,-1.795,-1.8088,-1.823,0.0,0.0,0.0,0.0,0.0,0.0,0.0,0.0,-1.0178,-1.0135,-1.0843,-1.1772,-1.2823,-1.3735,-1.4366,-1.4619,-1.4147,-1.3589,-1.3006,-1.2845,-1.2875,-1.3134,-1.3757,-1.4252,-1.4561,-1.4329,-1.494,-1.6445,-1.6426,-1.6817,-1.7616,-1.8059,-1.8239,-1.8199,-1.8879,-1.9045,-1.8754,-1.7224,-1.5589,-1.4002,-1.4165,-1.3962,-1.347,0.0,0.0,0.0,0.0,0.0,0.0,0.0,0.0,0.0,0.0,0.0,0.0,0.0,0.0,0.0,0.0,0.0,0.0,0.0,0.0,0.0,0.0,0.0,0.0,0.0,0.0,0.0,0.0,0.0,0.0,0.0,0.0,0.0,0.0,0.0,-1.6557,-1.6783,-1.7515,-1.8184,-1.8701,-1.8682,-1.8664,-1.8705,-1.8517,-1.8611,-1.9135,-1.9276,-1.9604,-2.0207,-2.03,-2.0332,-2.0334,-2.0331,-2.0331,-2.0331,-2.027,-2.0215,-2.0167,-2.0106,-2.006,-2.003,-1.996,-1.997,-2.0039,-2.0059,-1.9324,-1.8178,-1.8238,-1.8219,-1.8246,-1.8882,-1.9126,-1.9283,0.0,0.0,0.0,0.0,0.0,0.0,0.0,-1.0237,-1.0214,-1.0243,-1.1001,-1.2186,-1.3903,-1.4782,-1.5587,-1.6469,-1.493,-1.4009,-1.4277,-1.2786,-1.2477,-1.3774,-1.4149,-1.4448,-1.4738,-1.5601,-1.6545,-1.7539,-1.7501,-1.7957,-1.884,-1.8728,-1.8655,-1.8616,-1.943,-2.0214,-2.0909,-2.0117,-1.7712,-1.4424,-1.4588,-1.4609,-1.4441,0.0,0.0,0.0,0.0,0.0,0.0,0.0,0.0,0.0,0.0,0.0,0.0,0.0,0.0,0.0,0.0,0.0,0.0,0.0,0.0,0.0,0.0,0.0,0.0,0.0,0.0,0.0,0.0,0.0,0.0,0.0,0.0,0.0,-1.7164,-1.7766,-1.8328,-1.8458,-1.7817,-1.838,-2.0996,-1.9765,-1.9514,-2.1174,-2.0585,-2.0136,-2.0136,-2.0216,-2.0275,-2.0381,-2.044,-2.0475,-2.0481,-2.0481,-2.0485,-2.0478,-2.0418,-2.0379,-2.0378,-2.031,-2.0251,-2.0179,-2.0117,-2.0126,-2.0174,-2.0125,-2.0126,-2.0182,-2.0115,-2.0031,-1.9926,-2.0059,-2.0109,-2.0127,0.0,0.0,0.0,0.0,0.0,0.0,0.0,-1.0282,-1.0484,-1.1069,-1.1895,-1.3325,-1.5635,-1.6085,-1.6567,-1.7442,-1.5392,-1.4034,-1.401,-1.2817,-1.277,-1.4241,-1.4498,-1.4972,-1.5774,-1.6691,-1.7574,-1.844,-1.9059,-1.9459,-1.9686,-2.0281,-2.0554,-2.0575,-2.1375,-2.1848,-2.2054,-2.1882,-2.0823,-1.9218,-1.8494,-1.7836,-1.7148,0.0,0.0,0.0,0.0,0.0,0.0,0.0,0.0,0.0,0.0,0.0,0.0,0.0,0.0,0.0,0.0,0.0,0.0,0.0,0.0,0.0,0.0,0.0,0.0,0.0,0.0,0.0,0.0,0.0,0.0,0.0,0.0,-1.9781,-1.8929,-1.9468,-2.0017,-2.0182,-2.0626,-2.1224,-2.2054,-2.1771,-2.1472,-2.1377,-2.1214,-2.1122,-2.1123,-2.118,-2.149,-2.2092,-2.2173,-2.2214,-2.2207,-2.2204,-2.2261,-2.2362,-2.229,-2.2235,-2.2183,-2.2171,-2.2117,-2.2055,-2.2091,-2.2066,-2.199,-2.2072,-2.2081,-2.1931,-2.0673,-2.0185,-2.0188,-2.0233,-2.0245,-2.0258,0.0,0.0,0.0,0.0,0.0,0.0,0.0,-1.0282,-1.0605,-1.1425,-1.2278,-1.3637,-1.5863,-1.6101,-1.6295,-1.6809,-1.5111,-1.3955,-1.3783,-1.3387,-1.3784,-1.515,-1.5291,-1.5972,-1.7338,-1.7909,-1.8589,-1.9425,-2.0267,-2.0479,-2.0117,-2.1319,-2.1691,-2.1386,-2.2236,-2.2811,-2.3127,-2.3169,-2.3093,-2.2901,-2.2222,-2.0987,-1.9432,-1.8158,-1.7834,-1.7761,-1.5677,-1.5376,-1.5734,-1.4298,0.0,0.0,0.0,0.0,0.0,0.0,0.0,0.0,0.0,0.0,0.0,0.0,0.0,0.0,0.0,0.0,0.0,0.0,0.0,0.0,0.0,0.0,0.0,0.0,-2.075,-2.1324,-2.1184,-2.1278,-2.1517,-2.1985,-2.2243,-2.2691,-2.3471,-2.3001,-2.2595,-2.2499,-2.2241,-2.2093,-2.2086,-2.2125,-2.2371,-2.2866,-2.2914,-2.2956,-2.2982,-2.2976,-2.3018,-2.31,-2.3056,-2.3023,-2.2975,-2.2976,-2.2954,-2.292,-2.2908,-2.2848,-2.2747,-2.2824,-2.2842,0.0,0.0,0.0,0.0,0.0,-2.038,-2.0392,0.0,0.0,0.0,0.0,0.0,0.0,0.0,-1.0247,-1.0596,-1.1466,-1.2217,-1.3333,-1.5057,-1.5166,-1.5189,-1.5378,-1.4398,-1.3725,-1.3623,-1.4306,-1.516,-1.6173,-1.6407,-1.7346,-1.9121,-1.9249,-1.9721,-2.0589,-2.131,-2.1265,-2.053,-2.2115,-2.245,-2.176,-2.2687,-2.3494,-2.4168,-2.4176,-2.4647,-2.5398,-2.5293,-2.3744,-2.1423,-2.0613,-2.0608,-2.0844,-1.9313,-1.8361,-1.771,-1.6876,0.0,0.0,0.0,0.0,0.0,0.0,0.0,0.0,0.0,0.0,0.0,0.0,0.0,0.0,0.0,0.0,0.0,0.0,0.0,0.0,0.0,0.0,0.0,0.0,-2.1578,-2.2551,-2.3526,-2.3118,-2.2978,-2.368,-2.3208,-2.3393,-2.4891,-2.3792,-2.3292,-2.3964,-2.3417,-2.306,-2.306,0.0,0.0,0.0,0.0,-2.3323,-2.3377,-2.3383,-2.3386,-2.3387,-2.3393,-2.3393,-2.339,-2.339,-2.3393,-2.3386,-2.3264,-2.3163,-2.309,-2.3094,-2.3107,-2.3108,-2.3038,-2.2481,-2.1622,-2.0895,-2.0574,-2.0498,0.0,0.0,0.0,0.0,0.0,0.0,0.0,-1.0178,-1.0526,-1.1413,-1.1702,-1.248,-1.4167,-1.3723,-1.3868,-1.5279,-1.3943,-1.3236,-1.3726,-1.5191,-1.6107,-1.6268,-1.7677,-1.8984,-2.0099,-2.0774,-2.1521,-2.2398,-2.2553,-2.2524,-2.2321,-2.3354,-2.3766,-2.37,-2.4585,-2.5068,-2.5216,-2.5212,-2.5314,-2.5481,-2.551,-2.4688,-2.3362,-2.2507,-2.1828,-2.1176,-2.0105,-2.0085,-2.0389,-1.9371,-1.8914,-1.8649,-1.7888,-1.6457,0.0,0.0,0.0,0.0,0.0,0.0,0.0,0.0,0.0,0.0,0.0,0.0,0.0,0.0,0.0,0.0,0.0,0.0,0.0,-2.2656,-2.3214,-2.3742,-2.4581,-2.4679,-2.4704,-2.4801,-2.4723,-2.4828,-2.5206,-2.5021,-2.4681,-2.4195,-2.4073,-2.4029,-2.4029,-2.4078,-2.4409,-2.5078,-2.5098,-2.5099,-2.5119,-2.5172,-2.52,-2.5198,0.0,0.0,-2.5205,-2.5196,-2.5203,-2.5194,-2.5113,-2.5007,-2.49,-2.4958,-2.5007,-2.4929,-2.3601,-2.2546,-2.1757,-2.1547,-2.102,-2.0515,0.0,0.0,0.0,0.0,0.0,0.0,0.0,-1.0546,-1.1013,-1.1443,-1.1911,-1.2523,-1.3359,-1.3446,-1.3626,-1.4056,-1.3676,-1.3898,-1.5072,-1.5967,-1.6839,-1.7713,-1.859,-1.9684,-2.1021,-2.1436,-2.2067,-2.29,-2.3335,-2.3308,-2.2877,-2.4148,-2.454,-2.4186,-2.5098,-2.5502,-2.5498,-2.5537,-2.5554,-2.5549,-2.5593,-2.5286,-2.4745,-2.4281,-2.3825,-2.333,-2.2393,-2.2067,-2.1953,-2.0945,-2.0382,-2.0012,-1.9466,-1.833,-1.7228,0.0,0.0,0.0,0.0,0.0,0.0,0.0,0.0,0.0,0.0,0.0,0.0,0.0,0.0,-2.0104,0.0,0.0,-2.2694,-2.3305,-2.3989,-2.4591,-2.5041,-2.5183,-2.5235,-2.5168,-2.5243,-2.5303,-2.5348,-2.5406,-2.5287,-2.4878,-2.4912,-2.4949,-2.4953,-2.4982,-2.5181,-2.5591,-2.5596,-2.5834,-2.6303,-2.5899,-2.5922,-2.6354,-2.5906,-2.5701,-2.5698,-2.5704,-2.5675,-2.5652,-2.5654,-2.5551,-2.5405,-2.5438,-2.5493,-2.5471,-2.4673,-2.3818,-2.2993,-2.2522,-2.21,-2.1809,0.0,0.0,0.0,0.0,0.0,0.0,0.0,-1.0782,-1.1292,-1.148,-1.2104,-1.2545,-1.2554,-1.3173,-1.3378,-1.2852,-1.3705,-1.4905,-1.6426,-1.6677,-1.7505,-1.9134,-1.9462,-2.034,-2.1904,-2.2101,-2.2588,-2.3412,-2.4106,-2.4099,-2.3456,-2.481,-2.5057,-2.4435,-2.5197,-2.5535,-2.5523,-2.5596,-2.561,-2.5595,-2.5595,-2.5596,-2.56,-2.5554,-2.5517,-2.5374,-2.4455,-2.3546,-2.2703,-2.1988,-2.1138,-2.0393,-2.0489,-1.9896,-1.9122,-1.897,-1.8257,0.0,0.0,0.0,0.0,0.0,0.0,0.0,0.0,0.0,-2.0199,-1.9621,-2.0623,-2.1568,-2.1441,-2.2759,-2.3824,-2.3687,-2.451,-2.5164,-2.5205,-2.5283,-2.5301,-2.5264,-2.535,-2.5427,-2.5441,-2.5495,-2.5518,-2.5521,-2.557,-2.561,-2.562,-2.5624,-2.5623,-2.5618,-2.5777,-2.624,-2.6984,-2.6296,-2.6307,-2.6992,-2.6124,-2.5693,-2.5679,-2.5667,-2.5642,-2.5599,-2.5636,-2.5562,-2.5398,-2.5414,-2.5446,-2.5505,-2.5527,-2.5108,-2.4393,-2.3558,-2.3189,-2.3114,0.0,0.0,0.0,0.0,0.0,0.0,0.0,0.0,-1.0558,-1.1389,-1.1576,-1.1653,-1.165,-1.1729,-1.2056,-1.2744,-1.4297,-1.5632,-1.6525,-1.7313,-1.8179,-1.9158,-2.0618,-2.1836,-2.2752,-2.3521,-2.4336,-2.5211,-2.5306,-2.5341,-2.5298,-2.5492,-2.5532,-2.5435,-2.5598,-2.5636,-2.559,-2.566,-2.5654,-2.5598,-2.5598,-2.5598,-2.5607,-2.566,-2.56,-2.5379,-2.4497,-2.344,-2.2488,-2.2612,-2.1924,-2.1166,-2.2106,-2.1637,-2.0661,-2.0233,0.0,-1.8165,-1.7641,-1.7416,-1.7607,-1.8846,-1.9531,-2.0203,0.0,0.0,-2.2367,-2.2354,-2.2539,-2.2909,-2.3527,-2.3867,-2.4274,-2.4888,-2.5197,-2.5351,-2.5292,-2.5349,-2.5405,-2.5464,-2.5482,-2.5515,-2.5571,-2.5583,-2.5587,-2.5586,-2.5604,-2.5631,-2.5687,-2.5691,-2.5684,-2.5694,-2.6439,-2.6888,-2.7006,-2.6896,-2.69,-2.6988,-2.6116,-2.5671,-2.5613,-2.555,-2.5548,-2.5602,-2.5536,-2.5484,-2.5395,-2.5457,-2.5486,-2.5492,-2.5381,-2.5272,-2.5095,-2.4412,-2.3709,-2.3197,0.0,0.0,0.0,0.0,0.0,0.0,0.0,0.0,0.0,-1.1452,-1.2324,-1.2781,-1.2309,-1.2711,-1.3156,-1.3519,-1.4687,-1.5967,-1.7329,-1.8192,-1.9271,-2.0651,-2.1351,-2.233,-2.3693,-2.3547,-2.4123,-2.5497,-2.5505,-2.5507,-2.5538,-2.5543,-2.5561,-2.5595,-2.5674,-2.5675,-2.5662,-2.569,-2.5683,-2.5661,-2.5658,-2.5662,-2.5658,-2.5691,-2.5046,-2.4107,-2.4183,-2.385,0.0,-2.2355,-2.2039,-2.2029,-2.2049,-2.1686,-2.1206,-2.1039,-2.0155,0.0,-1.9002,-1.9229,-1.9797,0.0,-2.2112,-2.3092,-2.3823,-2.487,-2.5551,-2.5145,-2.5501,-2.5811,-2.5606,-2.559,-2.5556,0.0,-2.5416,-2.5453,-2.547,-2.5505,-2.5537,-2.5605,-2.5576,-2.5571,-2.5595,-2.5604,-2.5805,-2.6319,-2.6359,-2.6367,-2.6402,-2.6918,-2.698,-2.6468,-2.7302,-2.7997,-2.8506,-2.8007,-2.7988,-2.8437,-2.7568,-2.7143,-2.7111,-2.7082,-2.7037,-2.6944,-2.5849,-2.5683,-2.6122,-2.5644,-2.5463,-2.5396,-2.4406,-2.4022,-2.4068,-2.4486,-2.4545,-2.4429,0.0,0.0,0.0,0.0,0.0,0.0,0.0,0.0,0.0,0.0,-1.2865,-1.351,-1.317,-1.3715,-1.4098,-1.4101,-1.4901,-1.6044,-1.7538,-1.8195,-1.9284,-2.1006,-2.1503,-2.2416,-2.3911,-2.3751,-2.4251,-2.55,-2.5522,-2.5527,-2.5531,-2.5531,-2.5565,-2.5629,-2.5683,-2.5704,-2.5701,-2.5705,-2.5697,-2.5697,-2.5703,-2.5698,-2.5666,-2.5432,-2.4547,-2.3468,-2.376,-2.3331,-2.2468,-2.1516,-2.1518,-2.1888,-2.1694,-2.1707,-2.1798,-2.1836,-2.103,-2.0255,-2.0925,-2.1259,-2.1824,-2.3428,-2.4657,-2.5562,-2.5993,-2.7042,-2.7757,-2.7219,-2.7423,-2.751,-2.6899,-2.6573,-2.6281,-2.5939,-2.5676,-2.5618,-2.5892,-2.574,-2.5619,-2.5684,-2.5661,-2.5635,-2.5626,-2.5615,-2.5865,-2.6495,-2.6758,-2.6901,-2.69,-2.7767,-2.7978,-2.7351,-2.8178,-2.8926,-2.9569,-2.8949,-2.892,-2.9486,-2.8622,-2.8196,-2.8201,-2.8158,-2.8061,-2.784,-2.6432,-2.6187,-2.673,-2.5994,-2.5603,-2.532,-2.4086,-2.3316,-2.3047,-2.4234,-2.47,-2.4798,0.0,0.0,0.0,0.0,0.0,0.0,0.0,0.0,0.0,0.0,0.0,0.0,0.0,-1.4049,-1.4096,-1.4099,-1.4899,-1.5777,-1.6677,-1.6764,-1.7524,-1.921,-2.0899,-2.2188,-2.3017,-2.4671,-2.5505,-2.5502,-2.5573,-2.5595,-2.5601,-2.5605,-2.5629,-2.5699,-2.5697,-2.5704,-2.5701,-2.5705,-2.5697,-2.5697,-2.5697,-2.5697,-2.5609,-2.4758,-2.4368,-2.4164,-2.3324,-2.1237,-1.902,-2.0084,-2.023,-2.0192,-2.1339,-2.2197,0.0,-2.2759,-2.1866,-2.1313,-2.3329,-2.3096,-2.2972,-2.5935,-2.676,-2.7059,-2.7926,-2.8155,-2.8178,-2.8161,-2.7496,-2.695,-2.6981,-2.6253,-2.5896,-2.6718,-2.6145,-2.5868,-2.6646,-2.6087,-2.5619,-2.5687,-2.57,-2.5703,0.0,-2.5635,-2.5605,-2.5636,-2.6424,-2.69,-2.6901,-2.7729,-2.8193,-2.8164,-2.9006,-2.9483,-2.9501,-2.9481,-2.9478,-2.9494,-2.8618,-2.8201,-2.82,-2.8068,-2.7904,-2.7689,-2.7307,-2.7073,-2.6956,-2.6603,-2.6005,-2.5281,-2.4959,-2.3844,-2.2561,-2.3693,-2.3761,-2.3494,0.0,0.0,0.0,0.0,0.0,0.0,0.0,0.0,0.0,0.0,0.0,0.0,0.0,0.0,0.0,0.0,-1.4365,-1.5151,-1.6611,-1.7243,-1.8066,-1.922,-2.0336,-2.1328,-2.2189,-2.2732,-2.3283,-2.3835,-2.4441,-2.4745,-2.475,-2.5327,-2.561,-2.564,-2.5678,-2.5703,-2.5705,-2.5697,-2.5697,-2.5648,-2.5073,-2.4805,-2.4739,-2.4488,-2.3276,-2.1818,0.0,-2.1881,-2.0392,-1.9699,-1.9782,-2.0166,-2.0118,-2.0978,-2.2098,-2.2591,-2.2863,-2.3193,-2.3925,-2.4699,-2.5679,-2.7313,-2.8184,-2.8851,-2.9731,-2.9928,-2.9764,-2.9179,-2.8335,-2.735,-2.6207,-2.5459,-2.503,-2.5103,-2.5124,-2.5347,-2.5984,-2.6301,-2.6266,-2.5759,-2.621,0.0,0.0,0.0,0.0,-2.648,-2.7295,-2.7762,-2.7763,-2.914,-2.9659,-2.9076,-2.9907,-3.0365,-3.0363,-3.0364,-3.0336,-3.029,-2.9955,-2.9797,-2.9773,-2.9052,-2.8885,-2.9084,-2.7718,-2.7346,-2.7606,-2.6973,-2.651,-2.6129,-2.5001,-2.4064,-2.3284,-2.3008,-2.2761,-2.2871,0.0,0.0,0.0,0.0,0.0,0.0,0.0,0.0,0.0,0.0,0.0,0.0,0.0,0.0,0.0,0.0,0.0,-1.4909,-1.5722,-1.6587,-1.7456,-1.833,-1.9163,-2.0145,-2.1306,-2.1288,-2.1697,-2.2565,-2.2823,-2.3101,-2.3417,-2.3975,-2.4409,-2.4709,-2.4747,-2.4944,-2.5217,-2.49,-2.4944,-2.5127,-2.428,-2.4078,-2.4234,-2.3684,-2.2581,0.0,-2.1843,-2.1582,-2.0848,-1.9817,-1.9844,-2.0286,-2.0191,-2.123,-2.2634,-2.3408,-2.3996,-2.4692,-2.61,-2.7017,-2.7976,-2.964,-3.025,-3.0579,-3.1141,-3.0804,-3.0105,-2.9127,-2.8009,-2.6843,-2.5624,-2.4616,-2.4236,-2.5005,-2.4817,-2.5044,-2.6403,-2.6793,-2.6859,-2.6649,-2.7124,-2.7237,0.0,0.0,0.0,-2.6983,-2.8032,-2.8659,-2.8655,-2.9996,-3.0513,-2.9946,-3.045,-3.0738,-3.076,-3.0759,-3.0742,-3.0704,-3.0632,-3.0582,-3.0543,-2.9861,-2.9666,-2.9787,-2.8448,-2.7998,-2.8203,-2.7538,-2.7047,-2.6608,-2.561,-2.4598,-2.3723,-2.3526,-2.3196,-2.3034,0.0,0.0,0.0,0.0,0.0,0.0,0.0,0.0,0.0,0.0,0.0,0.0,0.0,0.0,0.0,0.0,0.0,0.0,-1.4153,-1.4873,-1.5722,-1.66,-1.7471,-1.8683,-2.0272,-2.0348,-2.0779,-2.1617,-2.0863,-2.0916,-2.1743,-2.1818,-2.2311,-2.31,-2.3103,-2.3558,-2.4277,-2.345,-2.3538,-2.4166,-2.3363,-2.3488,-2.3991,-2.2406,-2.2246,-2.2662,-2.1041,-2.0428,-2.0353,-2.0321,-2.0337,-2.0556,-2.1574,-2.2945,-2.435,-2.525,-2.5377,-2.6003,-2.967,-2.9975,-2.99,-3.2701,-3.2741,-3.2087,-3.2053,-3.0771,-2.9234,-2.8028,-2.6612,-2.5484,0.0,0.0,-2.3598,-2.6228,-2.5236,-2.5059,-2.7762,-2.7556,-2.7422,0.0,0.0,0.0,0.0,0.0,0.0,-2.7263,0.0,-2.9501,-2.9501,-3.0309,-3.0739,-3.07,-3.0665,-3.0671,-3.0691,-3.0694,-3.0683,-3.0683,-3.0618,-3.0548,-3.0482,-3.0415,-3.0169,-2.9775,-2.9372,-2.9018,-2.8676,-2.83,-2.7599,-2.6767,-2.6778,-2.5566,-2.3926,-2.5069,-2.4795,-2.3853,0.0,0.0,0.0,0.0,0.0,0.0,0.0,0.0,0.0,0.0,0.0,0.0,0.0,0.0,0.0,0.0,0.0,0.0,-1.4066,-1.4314,-1.4821,-1.5692,-1.6568,-1.7226,-1.7656,-1.8305,-1.8747,-1.897,-1.9999,-2.0611,-2.0865,-2.2156,-2.2894,-2.31,-2.3103,-2.3221,-2.3416,-2.3189,-2.3223,-2.3343,-2.2533,-2.2274,-2.2331,-2.1997,-2.154,-2.1093,-2.1286,-2.1364,0.0,0.0,0.0,0.0,0.0,-2.489,-2.5639,-2.7799,-2.8838,-2.9651,-3.1282,-3.1994,-3.2464,-3.321,-3.2742,-3.1939,-3.1343,-3.0297,-2.8822,-2.6567,-2.5762,-2.5004,0.0,0.0,0.0,-2.4626,-2.5272,0.0,-2.7152,-2.8252,0.0,-2.8347,0.0,-2.9927,-2.933,-3.0396,0.0,0.0,-2.9668,-2.9552,-2.9496,-3.0886,-3.1349,-3.0645,-3.1186,-3.1187,-3.0564,-3.0556,-3.0529,-3.0472,-3.046,-3.0396,-3.0268,-3.0207,-3.0015,-2.9712,-2.9456,-2.9107,-2.87,-2.8592,-2.8271,-2.7843,-2.793,-2.73,-2.6298,-2.5824,-2.5224,-2.462,0.0,0.0,0.0,0.0,0.0,0.0,0.0,0.0,0.0,0.0,0.0,0.0,0.0,0.0,0.0,0.0,0.0,0.0,0.0,-1.4459,-1.4889,-1.5378,-1.5873,-1.6314,-1.6689,-1.6796,-1.7048,-1.7425,-1.7991,-1.8458,-1.8849,-1.9834,-2.0703,-2.1426,-2.1425,-2.1835,-2.2509,-2.2148,-2.2214,0.0,0.0,-2.1499,-2.171,-2.1438,-2.1223,-2.1072,-2.1153,0.0,0.0,0.0,0.0,-2.3853,-2.6054,-2.6998,-2.7752,-2.9989,0.0,-3.1641,-3.29,-3.3603,-3.3971,-3.3971,-3.3321,-3.2352,-3.1131,-2.9855,-2.8247,-2.5902,-2.5152,0.0,-2.339,0.0,0.0,0.0,0.0,0.0,-2.7402,-2.8736,-2.9546,0.0,-3.0234,0.0,-3.0702,-3.1553,-3.206,0.0,-3.1168,-3.0511,-3.009,-3.0903,-3.1322,-3.1173,-3.1545,-3.1535,-3.1081,-3.0694,-3.0463,-3.0402,-3.0394,-3.0301,-3.0154,-3.0118,-2.9914,-2.9561,0.0,-2.9175,-2.8755,-2.8815,-2.8628,-2.8291,-2.8449,-2.8036,-2.7303,-2.6619,-2.6034,-2.5549,0.0,0.0,0.0,0.0,0.0,0.0,0.0,0.0,0.0,0.0,0.0,0.0,0.0,0.0,0.0,0.0,0.0,0.0,0.0,0.0,-1.5281,-1.5388,-1.5395,-1.5748,-1.6514,-1.579,-1.5771,-1.6525,-1.5889,-1.5956,-1.6699,-1.6817,-1.7683,-1.913,-1.9132,-2.0,-2.1421,-2.0721,-2.0898,-2.1581,-2.0879,-2.1024,-2.1562,0.0,-2.1074,-2.1631,0.0,0.0,0.0,0.0,-2.5133,-2.6086,-2.7958,-2.9141,-3.0214,-3.2074,-3.2619,-3.2995,-3.4743,-3.5131,-3.5018,-3.4901,-3.4044,-3.277,-3.1022,-2.9315,-2.7536,-2.5557,0.0,-2.4349,-2.3977,-2.3323,-2.3407,-2.5211,0.0,-2.6033,-2.8012,-2.9039,-2.9898,-3.0697,-3.0903,-3.1306,-3.2187,-3.238,-3.2757,-3.3519,-3.2874,-3.2065,-3.117,-3.1014,-3.133,-3.2183,-3.1766,-3.1609,-3.1786,-3.0927,-3.0452,-3.037,-3.0359,-3.0251,-3.0066,-3.0059,-2.9822,-2.9437,-2.9474,-2.9258,-2.8858,-2.8961,-2.8761,-2.8441,-2.8543,-2.8156,-2.7539,-2.7352,-2.693,-2.6435,0.0,0.0,0.0,0.0,0.0,0.0,0.0,0.0,0.0,0.0,-1.0989,-1.1498,0.0,0.0,0.0,0.0,0.0,0.0,0.0,0.0,0.0,-1.5369,-1.5402,-1.5469,-1.5618,-1.5479,-1.5473,-1.5628,-1.6196,-1.6548,-1.6722,-1.7441,-1.7935,-1.8233,-1.8235,-1.8787,-1.9723,-1.9578,-2.0019,-2.0801,-2.0664,-2.0683,-2.0791,-2.0653,0.0,0.0,0.0,0.0,0.0,0.0,-2.6475,-2.7035,-2.955,-3.0952,-3.2129,-3.4599,-3.5322,-3.5701,-3.7451,-3.7401,-3.6681,-3.595,-3.4044,-3.1865,-3.0116,-2.8339,0.0,0.0,-2.4873,-2.502,-2.4144,-2.3991,0.0,-2.534,0.0,0.0,0.0,0.0,-2.9898,0.0,0.0,0.0,0.0,0.0,0.0,0.0,0.0,-3.3822,-3.2836,-3.2764,-3.3073,-3.3781,-3.1742,-3.0981,-3.1715,-3.0847,-3.0367,-3.0221,-3.0123,-2.9996,-2.9857,-2.979,-2.971,-2.9645,-2.9541,0.0,-2.9047,-2.9012,-2.8843,-2.8571,-2.8458,-2.8192,-2.782,-2.7654,-2.7187,-2.6716,0.0,0.0,0.0,0.0,0.0,0.0,0.0,-1.0225,-1.0261,-1.03,-1.064,-1.0879,-1.0881,-1.2031,-1.2484,0.0,0.0,0.0,0.0,0.0,0.0,0.0,0.0,0.0,-1.4708,-1.4722,-1.4949,-1.5397,0.0,-1.6018,-1.6031,-1.6446,-1.6888,-1.7317,-1.7322,-1.7813,-1.8649,-1.9111,-1.9543,-1.9955,-2.0423,-2.0598,-2.0599,0.0,0.0,0.0,0.0,0.0,0.0,0.0,-2.6082,-2.7337,-3.0448,-3.2019,-3.2978,-3.4267,-3.5605,-3.6758,-3.7139,-3.7274,-3.6975,-3.5647,-3.37,-3.1521,-2.9315,0.0,0.0,0.0,-2.5313,-2.5458,-2.4969,0.0,0.0,0.0,0.0,0.0,0.0,0.0,0.0,0.0,0.0,0.0,0.0,0.0,0.0,0.0,0.0,-3.4218,-3.3245,-3.3556,-3.3901,-3.4193,-3.3006,-3.234,-3.2263,-3.1437,-3.073,-3.0147,-3.0079,-2.9949,-2.9756,-2.9746,-2.9683,-2.9539,-2.9433,-2.9261,-2.9039,-2.9021,-2.8795,-2.8484,-2.8432,-2.811,-2.7663,-2.7483,-2.7141,-2.675,0.0,0.0,0.0,0.0,0.0,0.0,0.0,-1.0269,-1.0296,-1.0299,-1.0299,-1.0371,-1.0561,-1.1594,-1.2013,0.0,0.0,0.0,0.0,0.0,0.0,0.0,0.0,0.0,0.0,0.0,0.0,0.0,-1.5309,0.0,0.0,0.0,0.0,0.0,0.0,-1.6908,-1.7766,-1.8455,-1.8955,0.0,0.0,-2.043,0.0,0.0,0.0,0.0,0.0,0.0,0.0,0.0,-2.5007,-2.6788,-2.9898,-3.1747,-3.2879,-3.3502,-3.5135,-3.6718,-3.6592,-3.6923,-3.688,-3.514,-3.3251,-3.1187,-2.8746,-2.7426,0.0,0.0,-2.5704,-2.5698,-2.5703,0.0,0.0,0.0,0.0,0.0,0.0,0.0,0.0,0.0,0.0,0.0,0.0,0.0,0.0,0.0,0.0,-3.4432,-3.3485,-3.3799,-3.4154,-3.4468,-3.3949,-3.3394,-3.2808,-3.182,-3.0905,-3.0102,-3.0253,-3.0201,-2.9955,-2.9992,-2.987,-2.9649,-2.9384,-2.915,-2.8961,-2.8961,-2.8746,-2.8415,-2.8397,-2.8216,-2.7896,-2.75,-2.7252,-2.7063,0.0,0.0,0.0,0.0,0.0,0.0,0.0,-1.0299,-1.0302,-1.0302,-1.0302,-1.0596,-1.1386,-1.0908,-1.0497,0.0,0.0,0.0,0.0,0.0,0.0,0.0,0.0,0.0,0.0,0.0,0.0,0.0,0.0,0.0,0.0,0.0,0.0,0.0,0.0,0.0,-1.6823,-1.6899,0.0,0.0,0.0,0.0,0.0,0.0,0.0,0.0,0.0,0.0,0.0,0.0,0.0,-2.4778,-2.6683,-2.8997,-3.1498,-3.3882,0.0,0.0,-3.7743,-3.7842,-3.6884,-3.5142,-3.2792,-3.0438,-2.8619,0.0,0.0,-2.5714,-2.5704,-2.5705,-2.5703,-2.5049,-2.4785,0.0,0.0,-2.5379,0.0,0.0,0.0,0.0,0.0,0.0,0.0,0.0,0.0,0.0,0.0,-3.5185,-3.4243,-3.3446,-3.3747,-3.5334,-3.3141,-3.2212,-3.2789,-3.1213,-3.0312,-3.0112,-3.0779,-3.1003,-3.078,-3.0721,-3.063,-3.0436,-2.9589,-2.9058,0.0,-2.881,-2.8637,-2.8389,-2.8415,-2.8775,-2.9201,-2.8262,-2.8106,-2.8313,0.0,0.0,0.0,0.0,0.0,0.0,-0.955,-0.9965,-1.0302,-1.0301,-1.03,-1.0427,-1.0777,-1.0514,-1.0507,-1.1044,0.0,0.0,0.0,0.0,0.0,0.0,0.0,0.0,0.0,0.0,0.0,-1.41,-1.4965,0.0,0.0,0.0,0.0,0.0,0.0,0.0,0.0,0.0,0.0,0.0,0.0,0.0,0.0,0.0,0.0,0.0,0.0,0.0,0.0,0.0,0.0,0.0,-2.4185,-2.5673,0.0,0.0,-3.2645,-3.4807,-3.5324,-3.6374,-3.6883,-3.5137,-3.2761,-3.04,-2.8659,0.0,-2.5066,-2.5595,-2.5276,-2.5084,-2.5595,-2.542,-2.5301,-2.564,-2.4969,0.0,0.0,0.0,0.0,0.0,0.0,0.0,0.0,0.0,0.0,0.0,-3.4754,-3.439,-3.4998,-3.4677,-3.4786,-3.5488,-3.4433,-3.3753,-3.3522,-3.2296,-3.1381,-3.0769,-3.1059,-3.086,-3.0245,-3.0668,-3.0524,-2.9897,-2.9317,-2.903,0.0,-2.8737,-2.8527,-2.8309,-2.8783,-2.8952,-2.8978,-2.9053,-2.874,-2.8243,0.0,0.0,0.0,0.0,0.0,-0.9708,-0.9095,-0.9741,-1.0302,-1.03,-1.0298,-1.0396,-1.0658,-1.0453,-1.0642,-1.1503,-1.1913,0.0,0.0,0.0,0.0,0.0,0.0,0.0,0.0,0.0,-1.3355,-1.3717,-1.4848,-1.5401,0.0,0.0,0.0,0.0,0.0,0.0,0.0,0.0,0.0,0.0,0.0,0.0,0.0,0.0,0.0,0.0,0.0,0.0,0.0,0.0,0.0,0.0,0.0,0.0,0.0,0.0,-2.9984,-3.2757,-3.2654,-3.4157,-3.5406,-3.3919,-3.2021,-3.0064,0.0,0.0,-2.4957,-2.5572,-2.5209,-2.497,-2.5586,-2.57,-2.5696,-2.5698,-2.4967,-2.5014,-2.6747,0.0,0.0,0.0,0.0,0.0,0.0,0.0,0.0,0.0,-3.4536,-3.4338,-3.544,-3.5493,-3.5493,-3.5493,-3.5163,-3.4543,-3.3614,-3.2708,-3.1889,-3.1203,-3.1203,-3.0972,-3.0562,-3.08,-3.0508,-2.9768,-2.9252,-2.8966,0.0,-2.8687,-2.8458,-2.8344,-2.9114,-2.9352,-2.9303,-2.9793,-2.9401,-2.856,0.0,0.0,0.0,0.0,0.0,0.0,-0.9001,-0.9735,-1.0303,-1.0302,-1.0302,-1.0634,-1.1492,-1.082,-1.0625,-1.1429,-1.0784,0.0,0.0,0.0,0.0,0.0,0.0,0.0,0.0,0.0,-1.3665,-1.2806,-1.455,-1.54,-1.5397,-1.5397,-1.5396,0.0,0.0,0.0,0.0,0.0,0.0,0.0,0.0,0.0,0.0,0.0,0.0,0.0,0.0,0.0,0.0,0.0,0.0,0.0,0.0,0.0,0.0,0.0,-2.6935,-2.8642,-3.0361,-3.1481,-3.1941,-3.1057,-3.0224,-2.9157,0.0,-2.6334,-2.5691,-2.5702,-2.5687,-2.5694,-2.5703,-2.5699,-2.5705,-2.5695,-2.4967,-2.5005,-2.6754,0.0,0.0,0.0,0.0,0.0,0.0,0.0,0.0,0.0,-3.5614,0.0,-3.5507,-3.5493,-3.5493,-3.5493,-3.4661,-3.3728,-3.2722,-3.1852,-3.1342,-3.1203,-3.1203,-3.1586,-3.2241,-3.1393,-3.0809,-3.0445,-2.9512,-2.8902,0.0,-2.8603,-2.8519,-2.8487,-2.9368,-3.0143,-3.074,-3.0487,-3.0136,-2.9643,0.0,0.0,0.0,0.0,0.0,0.0,0.0,-0.7963,-0.8738,-0.9336,-0.9414,-0.9746,-1.0625,-1.0468,-1.0404,-1.0658,-1.0448,0.0,0.0,0.0,0.0,0.0,0.0,0.0,0.0,0.0,-1.3672,-1.2803,-1.4546,-1.5402,-1.5399,-1.54,-1.5399,-1.5396,-1.5395,0.0,0.0,0.0,0.0,0.0,0.0,0.0,0.0,0.0,0.0,0.0,0.0,0.0,0.0,0.0,0.0,0.0,0.0,0.0,0.0,-2.2068,0.0,0.0,-2.7877,-2.9238,-3.0267,-3.004,-2.934,-2.8407,-2.7259,-2.5859,-2.4978,-2.5576,-2.5234,-2.4987,-2.559,-2.5695,-2.5498,-2.4905,-2.4581,-2.4587,0.0,0.0,0.0,0.0,0.0,0.0,0.0,0.0,0.0,-3.4729,-3.4158,-3.4267,-3.5449,-3.546,-3.546,-3.5493,-3.5134,-3.4505,-3.3611,-3.268,-3.1879,-3.1203,-3.1203,-3.1328,-3.1539,-3.1174,-3.0932,-3.0711,-2.9585,-2.9012,-2.8858,-2.8687,-2.8519,-2.847,-2.9251,-2.9935,-3.0507,-3.0866,-3.0401,-2.9564,0.0,0.0,0.0,0.0,0.0,0.0,0.0,-0.7842,-0.8499,-0.9374,-0.9208,-0.9334,-1.0204,-1.0305,-1.0293,-1.0259,-1.0258,0.0,0.0,0.0,0.0,0.0,0.0,0.0,0.0,-1.3063,-1.3672,-1.2802,-1.4547,-1.54,-1.5402,-1.5397,-1.54,-1.5399,-1.5395,0.0,0.0,0.0,0.0,0.0,0.0,0.0,-1.7636,0.0,0.0,0.0,0.0,0.0,0.0,0.0,0.0,0.0,0.0,0.0,0.0,0.0,-2.2007,-2.3938,0.0,-2.6511,-2.7665,-2.8043,-2.7718,0.0,0.0,-2.5674,-2.5039,-2.5593,-2.5272,-2.5063,-2.5601,-2.5703,-2.5522,-2.4982,-2.4339,-2.4016,0.0,0.0,0.0,0.0,0.0,0.0,0.0,0.0,0.0,-3.434,-3.4085,-3.4356,-3.5449,-3.5436,-3.5436,-3.5493,-3.5412,-3.4927,-3.4006,-3.3414,-3.2638,-3.1658,-3.1355,-3.1203,-3.1193,-3.0765,-3.0508,-3.0329,-2.9578,-2.9119,0.0,-2.8737,-2.8596,-2.8576,-2.9546,-2.9949,-3.0095,-3.0993,-3.0536,-2.9531,0.0,0.0,0.0,0.0,0.0,0.0,0.0,-0.8816,-0.9129,-0.9997,-0.9468,-0.9331,-1.0202,-1.0299,-1.0275,-1.0207,0.0,0.0,0.0,0.0,0.0,0.0,0.0,0.0,-1.0316,-1.2798,-1.3672,-1.2801,-1.4555,-1.54,-1.5401,-1.5402,-1.5396,-1.54,-1.54,-1.54,0.0,0.0,0.0,0.0,0.0,0.0,0.0,0.0,0.0,0.0,0.0,0.0,0.0,0.0,0.0,0.0,0.0,0.0,0.0,0.0,0.0,0.0,0.0,-2.3504,0.0,0.0,0.0,0.0,0.0,-2.5653,0.0,-2.5687,-2.5653,-2.5627,-2.5691,-2.5697,-2.5678,-2.5615,-2.4198,0.0,0.0,0.0,0.0,0.0,0.0,0.0,0.0,0.0,-3.5114,-3.4359,-3.4985,-3.5397,-3.5397,-3.534,-3.5307,-3.531,-3.531,-3.4885,-3.4006,-3.3929,-3.3382,-3.2302,-3.1497,-3.1146,-3.1174,-3.0296,-2.979,0.0,-2.952,-2.9237,-2.8819,-2.8819,-2.8712,-2.8715,-3.0022,-3.0125,-2.9694,-3.088,-3.062,-2.9685,0.0,0.0,0.0,0.0,0.0,0.0,0.0,0.0,0.0,0.0,-0.871,-0.933,-1.0203,-1.0253,-1.0217,0.0,0.0,0.0,0.0,0.0,0.0,0.0,0.0,0.0,-1.1272,-1.3134,-1.3671,-1.2801,-1.455,-1.5401,-1.5402,-1.5395,-1.54,-1.5395,-1.5399,-1.54,0.0,0.0,0.0,0.0,0.0,0.0,0.0,0.0,0.0,0.0,-1.9529,-2.0032,0.0,0.0,0.0,0.0,0.0,0.0,0.0,0.0,-2.0503,-2.0594,-2.0976,0.0,-2.2939,-2.5151,-2.5201,-2.4883,0.0,-2.5183,-2.4891,0.0,0.0,0.0,-2.5576,-2.57,-2.5482,-2.4808,0.0,0.0,0.0,0.0,0.0,0.0,0.0,0.0,0.0,0.0,-3.3604,-3.3421,-3.4042,-3.4429,-3.4428,-3.4419,-3.4117,-3.3469,-3.343,-3.3614,-3.3996,-3.3284,-3.244,-3.1478,-3.0615,-3.0559,-3.1174,-3.0296,-3.0146,-3.0536,-2.9802,-2.931,-2.903,-2.8858,-2.8712,-2.8686,-2.9457,-2.9942,-3.0288,-3.1038,-3.0963,-3.0517,0.0,0.0,0.0,0.0,0.0,0.0,0.0,0.0,0.0,0.0,0.0,0.0,0.0,0.0,0.0,0.0,0.0,0.0,0.0,0.0,0.0,0.0,0.0,-1.1554,-1.1547,-1.3232,-1.3867,-1.3397,-1.4742,-1.5404,-1.5397,-1.5399,-1.5401,-1.54,-1.54,-1.5399,0.0,0.0,0.0,0.0,-1.5401,0.0,0.0,0.0,0.0,0.0,-1.9606,-2.0204,0.0,-2.0136,-2.0271,-2.053,0.0,0.0,0.0,0.0,-2.0548,-2.0628,-2.1,-2.1438,-2.2237,-2.4047,-2.4146,-2.4034,-2.4897,0.0,0.0,0.0,0.0,0.0,0.0,0.0,0.0,0.0,0.0,0.0,0.0,0.0,0.0,0.0,0.0,0.0,0.0,0.0,-3.3954,-3.3161,-3.3749,-3.3976,-3.3567,-3.3518,-3.3288,-3.2809,-3.2732,-3.2917,-3.336,-3.2842,-3.2139,-3.1193,-3.0729,-3.054,-3.0596,-3.0116,-3.006,-3.0312,-2.9804,-2.9401,-2.9098,-2.8975,-2.8834,-2.8755,-2.9664,-2.9969,-3.0,-3.0903,-3.1069,-3.0803,0.0,0.0,0.0,0.0,0.0,0.0,0.0,0.0,0.0,0.0,0.0,0.0,0.0,0.0,0.0,0.0,0.0,0.0,0.0,0.0,0.0,0.0,0.0,-1.1572,-1.1524,-1.3212,-1.4101,-1.4099,-1.4966,-1.5402,-1.5399,-1.5396,-1.5403,-1.5399,-1.5399,-1.5398,0.0,0.0,0.0,0.0,-1.5399,0.0,0.0,0.0,0.0,0.0,0.0,0.0,0.0,-1.9551,-1.9794,-2.0298,-1.9687,0.0,0.0,0.0,0.0,0.0,-2.1425,-2.1707,-2.2041,-2.3053,-2.3104,-2.3198,-2.4337,0.0,0.0,0.0,0.0,0.0,0.0,0.0,0.0,0.0,0.0,0.0,0.0,0.0,0.0,0.0,0.0,0.0,0.0,-3.4999,-3.4846,-3.3229,-3.3672,-3.3635,-3.2769,-3.2649,-3.2603,-3.2599,-3.2371,-3.2295,-3.2422,-3.2397,-3.1998,-3.1203,-3.108,-3.0615,-2.9898,-2.9898,-2.9833,-2.9692,0.0,0.0,-2.9121,-2.9098,-2.8952,-2.8814,-2.9969,-3.0023,-2.9594,-3.0779,-3.1105,-3.1002,0.0,0.0,0.0,0.0,0.0,0.0,0.0,0.0,0.0,0.0,0.0,0.0,0.0,0.0,0.0,0.0,0.0,0.0,0.0,0.0,0.0,-1.0292,-1.1125,-1.1605,-1.1583,-1.3241,-1.4101,-1.41,-1.4968,-1.5404,-1.5399,-1.5404,-1.5404,-1.5396,-1.5397,-1.5399,-1.5397,-1.5397,-1.5402,-1.5403,-1.5397,0.0,0.0,0.0,0.0,0.0,0.0,0.0,0.0,-1.9352,-1.9394,-1.9606,-2.0205,0.0,0.0,0.0,0.0,0.0,-2.0741,-2.128,-2.2193,-2.3798,-2.3086,-2.2605,-2.4969,0.0,0.0,0.0,0.0,0.0,0.0,0.0,0.0,0.0,0.0,0.0,0.0,0.0,0.0,0.0,0.0,0.0,-3.2522,-3.3781,-3.4244,-3.318,-3.3146,-3.2798,-3.1939,-3.1823,-3.1764,-3.1707,-3.0968,-3.0897,-3.1574,-3.1473,-3.1343,-3.1193,-3.0454,-3.0021,-2.9898,-2.9898,-2.9833,-2.9692,0.0,-2.95,-2.9187,-2.9121,-2.8952,-2.876,-2.935,-2.9851,-3.0308,-3.0959,-3.1514,-3.1836,0.0,0.0,0.0,0.0,0.0,0.0,0.0,0.0,0.0,0.0,0.0,0.0,0.0,0.0,0.0,0.0,0.0,0.0,0.0,0.0,-1.0509,-1.0979,-1.1838,-1.23,-1.2304,-1.3936,-1.4802,-1.4804,-1.5204,-1.5404,-1.5404,-1.5362,-1.5371,-1.5394,-1.5396,-1.5399,-1.5401,-1.5399,-1.54,-1.5399,0.0,0.0,0.0,0.0,0.0,0.0,0.0,0.0,0.0,0.0,-1.9303,-1.9365,-1.9772,0.0,0.0,0.0,0.0,0.0,-2.0591,-2.0875,-2.1565,-2.3267,-2.3099,-2.282,-2.4016,0.0,0.0,0.0,0.0,0.0,0.0,0.0,0.0,0.0,0.0,0.0,0.0,0.0,0.0,0.0,0.0,-3.2768,-3.3352,-3.3638,-3.3425,-3.2528,-3.2387,-3.1968,-3.1099,-3.0988,-3.0931,-3.0919,-3.0474,-3.0406,-3.0748,-3.069,-3.0633,-3.0595,-3.0197,-2.9972,-2.9898,-2.9898,-2.9833,-2.9692,0.0,-2.95,-2.9209,-2.9165,-2.9021,-2.8849,-2.9287,-2.9633,-2.995,-3.0747,-3.1438,-3.192,0.0,0.0,0.0,0.0,0.0,0.0,0.0,0.0,0.0,0.0,0.0,0.0,0.0,0.0,0.0,0.0,0.0,0.0,0.0,0.0,-1.0598,-1.1272,-1.2125,-1.2782,-1.3173,-1.4635,-1.5398,-1.5397,-1.5404,-1.5387,-1.5384,-1.5315,-1.5325,-1.5374,-1.5394,-1.5397,-1.5399,-1.5397,-1.5396,-1.54,0.0,0.0,0.0,0.0,0.0,0.0,0.0,0.0,0.0,0.0,0.0,0.0,0.0,0.0,0.0,-2.0603,-2.0601,-2.0601,-2.0595,-2.0752,-2.1162,-2.2244,-2.2499,-2.2695,-2.3516,0.0,0.0,0.0,0.0,0.0,0.0,0.0,0.0,0.0,0.0,0.0,0.0,0.0,0.0,0.0,-3.2348,-3.2254,-3.4383,-3.3589,-3.266,-3.1967,-3.1695,-3.1245,-3.0586,-3.0482,-3.0528,-3.0691,-3.0453,-3.0388,-3.0525,-3.0322,-3.018,-3.0102,-3.0102,-3.0022,-2.9898,-2.9898,-2.9833,-2.9692,-2.9692,-2.95,-2.9209,-2.9209,-2.9089,-2.8927,-2.9159,-2.9239,-2.9358,-3.0315,-3.0959,-3.1303,0.0,0.0,0.0,0.0,0.0,0.0,0.0,0.0,0.0,0.0,0.0,0.0,0.0,0.0,0.0,0.0,0.0,0.0,0.0,0.0,-1.0334,-1.0392,-1.1233,-1.242,-1.3983,-1.4923,-1.5399,-1.5396,-1.5404,-1.5371,-1.5316,-1.5301,-1.5301,-1.5306,-1.5371,-1.5403,-1.5397,-1.5399,-1.54,-1.5397,-1.54,0.0,0.0,0.0,0.0,0.0,0.0,0.0,0.0,0.0,0.0,0.0,0.0,0.0,-2.0596,-2.0595,-2.0596,-2.0596,-2.0604,-2.1188,-2.1636,-2.095,-2.073,0.0,-2.4774,-2.3591,0.0,0.0,0.0,0.0,0.0,0.0,0.0,0.0,0.0,0.0,0.0,0.0,0.0,-3.448,-3.378,-3.358,-3.4515,-3.3126,-3.2129,-3.2,-3.1241,-3.0754,-3.0692,-3.0613,-3.0898,-3.1587,-3.0827,-3.0751,-3.1492,-3.0708,-3.0222,-3.0102,-3.0102,-3.0022,-2.9898,-2.9898,-2.9833,-2.9692,-2.9692,-2.95,-2.9209,-2.9209,-2.9089,-2.8872,-2.8598,-2.8644,-2.8938,-2.9608,-2.9857,-2.9799,0.0,0.0,0.0,0.0,0.0,0.0,0.0,0.0,0.0,0.0,0.0,0.0,0.0,0.0,0.0,0.0,0.0,0.0,0.0,-1.0304,-1.0541,-1.1081,-1.1416,-1.2134,-1.3271,-1.4154,-1.4328,-1.3781,-1.428,-1.4793,-1.5297,-1.5297,-1.5297,-1.5301,-1.5332,-1.5365,-1.5399,-1.5401,-1.5397,-1.5399,-1.5405,-1.5399,0.0,0.0,0.0,0.0,0.0,0.0,0.0,0.0,-1.9075,-1.9017,-2.0223,-2.0597,-2.0601,-2.0599,-2.0599,-2.0601,-2.0598,-2.1238,-2.1825,-2.1493,-2.1362,0.0,0.0,-2.374,0.0,0.0,0.0,0.0,0.0,0.0,0.0,0.0,0.0,0.0,0.0,0.0,-3.2309,-3.3721,-3.2639,-3.2118,-3.2956,-3.1982,-3.1261,-3.1203,-3.0889,-3.0704,-3.0701,-3.0681,-3.0771,-3.1004,-3.0656,-3.0594,-3.0854,-3.053,-3.0315,-3.0222,-3.018,-3.0113,-3.0022,-2.994,-2.9833,-2.9692,-2.9692,-2.95,-2.9209,-2.9209,-2.9121,-2.8938,-2.8594,-2.8582,-2.8757,-2.9013,-2.9301,-2.9549,0.0,0.0,0.0,0.0,0.0,0.0,0.0,0.0,0.0,0.0,0.0,0.0,0.0,0.0,0.0,0.0,0.0,0.0,-1.0296,-1.0276,-1.0544,-1.1164,-1.1186,-1.1454,-1.1996,-1.2861,-1.3141,-1.28,-1.3634,-1.4469,-1.5301,-1.5297,-1.5302,-1.5297,-1.5298,-1.5329,-1.5368,-1.5372,-1.538,-1.5399,-1.54,-1.5397,0.0,0.0,0.0,0.0,0.0,0.0,0.0,0.0,-1.9302,-1.9446,-2.0331,-2.0603,-2.0603,-2.0603,-2.0603,-2.0601,-2.0601,-2.142,-2.2212,0.0,0.0,0.0,-2.3348,-2.3738,0.0,0.0,0.0,0.0,0.0,0.0,0.0,0.0,0.0,0.0,0.0,-3.1174,-3.1339,-3.2822,-3.1691,-3.1137,-3.2016,-3.1057,-3.0482,-3.0705,-3.0485,-3.0431,-3.0693,-3.0701,-3.0659,-3.0565,-3.0259,-3.0057,-2.9992,-2.9738,-2.9588,-2.9541,-2.9442,-2.9646,-3.0087,-2.9949,-2.9808,-2.9701,-2.9655,-2.9471,-2.9209,-2.9209,-2.9089,-2.8881,-2.8552,-2.8449,-2.8452,-2.8324,-2.8546,-2.8857,0.0,0.0,0.0,0.0,0.0,0.0,0.0,0.0,0.0,0.0,0.0,0.0,0.0,0.0,0.0,0.0,0.0,0.0,-1.0292,-1.0232,-1.0235,-1.0299,-1.0299,-1.0299,-1.0299,-1.1153,-1.2002,-1.2812,-1.3676,-1.4516,-1.5301,-1.5301,-1.5302,-1.5298,-1.5306,-1.5298,-1.5297,-1.5297,-1.5342,-1.5402,-1.5402,-1.5397,-1.5402,0.0,0.0,0.0,0.0,0.0,0.0,0.0,-1.9304,-1.9461,-2.0329,-2.0603,-2.0603,-2.0603,-2.0599,-2.0596,-2.0605,-2.1835,-2.2893,0.0,0.0,0.0,0.0,0.0,0.0,0.0,0.0,0.0,0.0,0.0,0.0,0.0,0.0,0.0,-3.065,-3.0783,-3.1102,-3.1957,-3.1302,-3.1109,-3.1985,-3.0504,-2.9853,-3.0711,-2.998,-2.9847,-3.0654,-3.069,-3.0629,-3.0491,-2.9641,-2.9158,-2.9094,-2.8294,-2.79,-2.79,-2.7754,-2.854,-3.0078,-2.9874,-2.9745,-2.9692,-2.956,-2.9372,-2.9209,-2.9209,-2.8989,-2.8669,-2.8406,-2.8192,-2.7963,-2.7535,-2.7452,-2.7465,0.0,0.0,0.0,0.0,0.0,0.0,0.0,0.0,0.0,0.0,0.0,0.0,0.0,0.0,0.0,0.0,0.0,0.0,-0.9391,-0.9899,-1.023,-1.0299,-1.0296,-1.0297,-1.0303,-1.1146,-1.2295,-1.3709,-1.3973,-1.451,-1.5301,-1.5301,-1.5274,-1.5226,-1.5278,-1.5301,-1.5297,-1.5295,-1.5313,-1.5326,-1.5384,-1.5402,-1.5402,0.0,0.0,0.0,0.0,0.0,0.0,0.0,0.0,0.0,-2.0515,-2.0603,-2.0603,-2.0603,-2.0599,-2.072,-2.1289,-2.225,0.0,0.0,0.0,0.0,0.0,0.0,0.0,0.0,0.0,0.0,0.0,0.0,0.0,-2.9273,-2.847,-2.7984,-2.8909,-2.9041,-2.9142,-2.9402,-2.9201,-2.9125,-2.934,-2.8926,-2.8737,-2.8962,-2.9304,-2.9596,-2.9844,-2.981,-2.9746,-2.9666,-2.8809,-2.8319,-2.8255,-2.8015,-2.79,-2.79,-2.7812,-2.8278,-2.9159,-2.8389,-2.86,-2.9513,-2.8875,-2.881,-2.9178,-2.9098,-2.8961,-2.8728,-2.8475,-2.8201,-2.7897,-2.7569,-2.7421,-2.7345,0.0,0.0,0.0,0.0,0.0,0.0,0.0,0.0,0.0,0.0,0.0,0.0,0.0,0.0,0.0,0.0,0.0,0.0,0.0,-0.974,-1.023,-1.0296,-1.0298,-1.0302,-1.0297,-1.1147,-1.209,-1.3112,-1.3765,-1.4534,-1.5334,-1.5311,-1.5277,-1.5226,-1.492,-1.4982,-1.5284,-1.4927,-1.4977,-1.5299,-1.5339,-1.5362,-1.5357,0.0,0.0,0.0,0.0,0.0,0.0,0.0,0.0,0.0,-2.0599,-2.0601,-2.0593,-2.0566,-2.0562,-2.0741,-2.1568,0.0,0.0,0.0,0.0,0.0,0.0,0.0,0.0,0.0,0.0,0.0,0.0,0.0,0.0,-2.8747,-2.7846,-2.7253,-2.817,-2.8303,-2.83,-2.8304,-2.8304,-2.8276,-2.8242,-2.7959,-2.7899,-2.8183,-2.8369,-2.8617,-2.8968,-2.8925,-2.8854,-2.8794,-2.794,-2.7451,-2.738,-2.7044,-2.6871,-2.6871,-2.6808,-2.7124,-2.7766,-2.7805,-2.8455,-2.9523,-2.8545,-2.8359,-2.8716,-2.8575,-2.8621,-2.8761,-2.8413,-2.8165,-2.798,-2.7578,-2.739,-2.7367,0.0,0.0,0.0,0.0,0.0,0.0,0.0,0.0,0.0,0.0,0.0,0.0,0.0,0.0,0.0,0.0,0.0,0.0,0.0,0.0,-1.0243,-1.0302,-1.0304,-1.03,-1.0301,-1.1147,-1.1599,-1.1601,-1.3285,-1.45,-1.5265,-1.529,-1.5259,-1.5148,-1.4436,-1.4513,-1.5124,-1.4409,-1.4564,-1.5293,-1.5379,-1.5406,-1.5419,-1.5478,0.0,0.0,0.0,0.0,0.0,0.0,0.0,0.0,-2.0601,-2.0597,-2.059,-2.0533,-2.0496,-2.0688,0.0,0.0,0.0,0.0,0.0,0.0,0.0,0.0,0.0,0.0,0.0,0.0,0.0,0.0,-2.6339,-2.7922,-2.7451,-2.7155,-2.7946,-2.8062,-2.8057,-2.8056,-2.8059,-2.8057,-2.8061,-2.7345,-2.7174,-2.792,-2.7313,-2.725,-2.8042,-2.8019,-2.7944,-2.7879,-2.7034,-2.6554,-2.6486,-2.5697,-2.5293,-2.5293,-2.5243,-2.5556,-2.6268,-2.7636,-2.8655,-2.927,-2.8298,-2.7885,-2.7862,-2.7739,-2.805,-2.8543,-2.8066,-2.7915,-2.7886,-2.7383,-2.722,-2.7213,0.0,0.0,0.0,0.0,0.0,0.0,0.0,0.0,0.0,0.0,0.0,0.0,0.0,0.0,0.0,0.0,0.0,0.0,0.0,0.0,-1.0282,-1.0302,-1.0297,-1.0301,-1.0304,-1.1151,-1.1602,-1.1601,-1.3281,-1.4172,-1.4321,-1.4993,-1.493,-1.4299,-1.4797,-1.4719,-1.4236,-1.4728,-1.5047,-1.5284,-1.597,-1.6242,-1.6247,-1.6323,-1.6971,0.0,0.0,0.0,0.0,0.0,0.0,0.0,-2.0605,-2.0596,-2.0597,-2.0584,-2.0543,-2.0688,0.0,0.0,0.0,0.0,0.0,0.0,0.0,0.0,0.0,0.0,0.0,0.0,0.0,0.0,-2.6838,-2.7225,-2.6554,-2.6054,-2.6225,-2.626,-2.626,-2.6259,-2.6259,-2.6264,-2.6255,-2.6086,-2.6048,-2.6215,-2.6651,-2.6977,-2.7175,-2.7123,-2.7048,-2.6974,-2.6128,-2.5658,-2.5572,-2.5389,-2.5293,-2.5293,-2.5283,-2.5663,-2.6335,-2.5899,-2.6013,-2.6571,-2.6857,-2.6988,-2.6972,-2.6891,-2.6887,-2.6882,-2.6451,-2.6249,-2.6171,-2.6306,-2.5936,-2.5455,0.0,0.0,0.0,0.0,0.0,0.0,0.0,0.0,0.0,0.0,0.0,0.0,0.0,0.0,0.0,0.0,0.0,0.0,0.0,0.0,-1.0302,-1.0296,-0.9897,-0.987,-1.0292,-1.0342,-1.0555,-1.0978,-1.2655,-1.367,-1.4072,-1.491,-1.5064,-1.4618,-1.4666,-1.4623,-1.4519,-1.4563,-1.5064,-1.5854,-1.6318,-1.6725,-1.7074,-1.7151,-1.7689,-1.8324,-1.7508,0.0,0.0,0.0,0.0,0.0,0.0,0.0,-2.0588,-2.0558,-2.0531,-2.0694,0.0,0.0,0.0,0.0,0.0,0.0,0.0,0.0,0.0,0.0,0.0,0.0,0.0,-2.666,-2.6375,-2.6375,-2.6003,-2.5697,-2.5697,-2.5695,-2.5702,-2.5703,-2.5703,-2.5703,-2.5699,-2.5696,-2.5697,-2.5701,-2.6087,-2.631,-2.6276,-2.6238,-2.6178,-2.6076,-2.5636,-2.5369,-2.5293,-2.5293,-2.5293,-2.5293,-2.5302,-2.544,-2.5742,-2.592,-2.5913,-2.5761,-2.6013,-2.6119,-2.6125,-2.6046,-2.613,-2.6272,-2.5924,-2.5674,-2.5517,-2.5565,-2.5253,-2.4829,0.0,0.0,0.0,0.0,0.0,0.0,0.0,0.0,0.0,0.0,0.0,0.0,0.0,0.0,0.0,0.0,0.0,0.0,0.0,0.0,0.0,-1.0293,-0.9609,-0.9561,-1.0281,-0.9597,-0.9651,-1.0506,-1.2055,-1.3228,-1.4084,-1.4913,-1.5208,-1.5038,-1.4618,-1.4714,-1.5151,-1.4722,-1.5373,-1.6695,-1.6852,-1.7308,-1.7908,-1.7982,-1.8552,-1.9194,-1.8328,-1.862,-1.941,-1.9418,0.0,0.0,0.0,0.0,-2.0566,-2.0518,-2.0499,-2.0628,0.0,0.0,0.0,0.0,0.0,0.0,0.0,0.0,0.0,0.0,0.0,0.0,0.0,-2.619,-2.5703,-2.5703,-2.5703,-2.5703,-2.5703,-2.5703,-2.5703,-2.5703,-2.5703,-2.5703,-2.5703,-2.5703,-2.5701,-2.5703,-2.5687,-2.5664,-2.5596,-2.5585,-2.5531,-2.5401,-2.5395,-2.5369,-2.5293,-2.5293,-2.5293,-2.5293,-2.5292,-2.5174,-2.5018,-2.6233,-2.6336,-2.5565,-2.5384,-2.528,-2.5269,-2.523,-2.5433,-2.5764,-2.5488,-2.5223,-2.4979,-2.4852,-2.4605,-2.4373,0.0,0.0,0.0,0.0,0.0,0.0,0.0,0.0,0.0,0.0,0.0,0.0,0.0,0.0,0.0,0.0,0.0,0.0,-0.7686,0.0,0.0,-1.0272,-1.0191,-1.0178,-1.0296,-1.0193,-1.052,-1.1341,-1.2315,-1.3192,0.0,0.0,-1.4869,-1.4152,-1.5544,-1.5773,-1.5199,-1.6542,-1.7232,-1.7517,-1.8281,-1.8641,-1.8751,-1.8806,-1.9384,-2.0034,-1.9225,-1.9496,-2.0247,-2.0313,-2.033,0.0,0.0,0.0,-2.0506,-2.0504,-2.0499,-2.0366,0.0,0.0,0.0,0.0,0.0,0.0,0.0,0.0,0.0,0.0,0.0,0.0,-2.5845,-2.5779,-2.5696,-2.5703,-2.5703,-2.5703,-2.5703,-2.5703,-2.5703,-2.5703,-2.5703,-2.5703,-2.5703,-2.5702,-2.57,-2.5698,-2.5647,-2.5607,-2.56,-2.5543,-2.5485,-2.5395,-2.5405,-2.5369,-2.5293,-2.5293,-2.5293,-2.5293,-2.5241,-2.5108,-2.4911,-2.5063,-2.4957,-2.4662,-2.4514,-2.4432,-2.4366,-2.4356,-2.4273,-2.4091,-2.3845,-2.3584,-2.3447,-2.3811,-2.3388,-2.2728,0.0,0.0,0.0,0.0,0.0,0.0,0.0,0.0,0.0,0.0,0.0,0.0,0.0,0.0,0.0,-0.6302,-0.7541,-0.8567,-0.9116,-0.9059,-0.9392,-1.0257,-0.9835,-0.98,-1.0287,-0.9824,-1.0209,-1.1496,-1.2339,0.0,0.0,-1.4794,-1.5224,0.0,0.0,-1.5757,-1.5869,-1.6567,-1.7142,-1.7666,-1.8505,-1.9115,-1.9516,-1.9589,-1.9872,-2.0201,-1.9841,-1.9671,-1.9687,-2.0206,-2.0084,-1.9803,-2.0292,0.0,0.0,0.0,0.0,0.0,0.0,0.0,0.0,0.0,0.0,0.0,0.0,0.0,0.0,0.0,0.0,0.0,-2.5598,-2.5703,-2.5701,-2.5697,-2.5702,-2.5703,-2.5703,-2.5703,-2.5703,-2.5703,-2.5703,-2.5703,-2.5703,-2.5703,-2.5701,-2.5704,-2.5673,-2.5639,-2.56,-2.5564,-2.5509,-2.5405,-2.5397,-2.537,-2.5293,-2.5293,-2.5303,-2.5302,-2.519,-2.5053,-2.4903,-2.4783,-2.4613,-2.4383,-2.433,-2.4257,-2.4181,-2.4113,-2.3967,-2.3774,-2.3468,-2.323,-2.3105,-2.3154,-2.2815,-2.2361,0.0,0.0,0.0,0.0,0.0,0.0,0.0,0.0,0.0,0.0,0.0,0.0,0.0,0.0,0.0,0.0,-0.7896,-0.9118,-1.0057,-0.9179,-0.9084,-1.0129,-0.9619,-0.96,-1.0238,-0.9629,-1.0129,-1.1834,0.0,0.0,-1.4317,-1.4852,-1.5557,0.0,-1.5931,-1.6194,0.0,0.0,0.0,-1.8259,-1.8859,-1.9459,-2.0011,-2.0069,-2.0126,-2.0181,-2.0186,-1.9804,-1.9415,-2.0082,-1.9899,-1.9515,-2.0171,-2.0419,0.0,0.0,0.0,0.0,0.0,0.0,0.0,0.0,0.0,0.0,0.0,0.0,0.0,0.0,0.0,0.0,-2.5177,-2.5537,-2.5705,-2.5697,-2.5699,-2.5703,-2.5703,-2.5703,-2.5703,-2.5703,-2.5703,-2.5703,-2.5703,-2.5703,-2.5702,-2.5702,-2.5699,-2.5671,-2.5605,-2.56,-2.5541,-2.5405,-2.5398,-2.537,-2.5293,-2.5303,-2.5302,-2.5301,-2.5177,-2.505,-2.4894,-2.4768,-2.4554,-2.4294,-2.4294,-2.4238,-2.4142,-2.4045,-2.3896,-2.3698,-2.3412,-2.3193,-2.302,-2.2764,-2.2515,-2.2282,0.0,0.0,0.0,0.0,0.0,0.0,0.0,0.0,0.0,0.0,0.0,0.0,-0.7276,-0.727,-0.7248,-0.7334,-0.7892,-0.8633,-0.9578,-0.8338,-0.8253,-0.9758,-1.0031,0.0,-1.0111,-1.0126,-1.0993,-1.2733,0.0,0.0,-1.5139,-1.5117,-1.5531,-1.634,-1.7124,-1.7879,-1.8631,0.0,0.0,0.0,0.0,-1.9962,-2.0011,-2.0079,-2.0098,-2.0108,-2.0181,-2.0168,-2.0148,-2.0265,-2.0265,-2.025,-2.0289,-2.0346,-2.0419,0.0,0.0,0.0,0.0,0.0,0.0,0.0,0.0,0.0,0.0,0.0,0.0,0.0,0.0,-2.3413,-2.4218,-2.5102,-2.5705,-2.5695,-2.5696,-2.5702,-2.5703,-2.5703,-2.5703,-2.5703,-2.5703,-2.5703,-2.5703,-2.5702,-2.57,-2.5699,-2.5702,-2.5671,-2.5605,-2.56,-2.5541,-2.5405,-2.5398,-2.537,-2.5293,-2.5302,-2.5301,-2.5301,-2.5225,-2.5088,-2.4894,-2.4768,-2.4554,-2.4294,-2.4294,-2.4191,-2.4016,-2.3996,-2.3801,-2.3495,-2.336,-2.3135,-2.2885,-2.2614,-2.2413,-2.2274,0.0,0.0,0.0,0.0,0.0,0.0,0.0,0.0,0.0,0.0,0.0,0.0,0.0,-0.8302,-0.874,-0.8272,-0.8296,-0.8779,-0.9849,-0.876,-0.8651,-0.9939,-1.0079,-1.0118,-1.0101,-1.0705,-1.1596,0.0,0.0,-1.4036,-1.512,-1.4538,-1.4968,-1.6228,-1.5974,-1.6638,-1.7947,-1.8221,0.0,0.0,0.0,0.0,0.0,0.0,0.0,0.0,0.0,0.0,0.0,-2.0766,-2.063,-2.0242,-2.0235,-2.0304,-2.0412,-2.0478,-1.9899,0.0,0.0,0.0,0.0,0.0,0.0,0.0,0.0,0.0,0.0,0.0,0.0,-2.2467,-2.3371,-2.4258,-2.5052,-2.5607,-2.5701,-2.5697,-2.5703,-2.5703,-2.5703,-2.5703,-2.5703,-2.5703,-2.5703,-2.5699,-2.5702,-2.5702,-2.5699,-2.5671,-2.5605,-2.5565,-2.5489,-2.5405,-2.536,-2.5322,-2.5293,-2.5302,-2.5301,-2.5301,-2.5193,-2.5054,-2.4884,-2.4719,-2.4502,-2.4294,-2.4257,-2.4144,-2.3987,-2.3917,-2.3719,-2.3481,-2.3256,-2.3011,-2.2764,-2.2569,-2.2324,-2.211,0.0,0.0,0.0,0.0,0.0,0.0,0.0,0.0,0.0,-0.8935,0.0,0.0,0.0,0.0,-0.955,-0.8922,-0.8273,-0.844,-0.9715,-0.8879,-0.8798,-0.9854,-0.9982,-1.0033,-1.0031,-1.0687,-1.157,-1.267,0.0,0.0,0.0,-1.4473,-1.4774,-1.5774,-1.5138,-1.5837,0.0,0.0,0.0,-1.8808,0.0,0.0,-1.99,0.0,0.0,0.0,0.0,0.0,0.0,0.0,-2.0393,-1.9434,-2.0298,-2.0478,-2.0379,-2.0444,-2.0061,-1.973,-2.0344,0.0,0.0,0.0,0.0,0.0,0.0,0.0,0.0,0.0,0.0,-2.157,-2.2473,-2.3117,-2.391,-2.5068,-2.5514,-2.5696,-2.5703,-2.5703,-2.5703,-2.5703,-2.5703,-2.5703,-2.5702,-2.5697,-2.5701,-2.5697,-2.5697,0.0,-2.56,-2.554,-2.5463,-2.5369,-2.5313,-2.5293,-2.5293,-2.5282,-2.5271,-2.5261,-2.5127,-2.5002,-2.4861,-2.4657,-2.4478,-2.4284,-2.4182,-2.4066,-2.3917,-2.3795,-2.3589,-2.3333,-2.3126,-2.2859,-2.2614,-2.2487,-2.226,-2.199,0.0,0.0,0.0,0.0,0.0,0.0,0.0,0.0,-0.8814,-0.9622,0.0,0.0,0.0,0.0,0.0,-0.9231,-0.7838,-0.7602,-0.9102,-0.8593,-0.861,-0.9461,-0.9749,-0.9897,-0.9897,-1.0049,-1.0938,-1.2603,-1.2624,-1.348,-1.5098,0.0,-1.4976,-1.499,-1.4831,-1.5724,-1.7384,0.0,-1.8578,-1.8683,0.0,-1.99,-1.9909,0.0,0.0,0.0,-2.0028,-2.0008,0.0,-2.0965,0.0,0.0,0.0,0.0,0.0,-2.0386,-2.0399,-2.0408,0.0,0.0,0.0,0.0,0.0,0.0,0.0,0.0,0.0,0.0,0.0,-2.0713,-2.1517,-2.1739,-2.2348,-2.4054,-2.5048,-2.5622,-2.5622,-2.5654,-2.5664,-2.5664,-2.5684,-2.5702,-2.5699,-2.5696,-2.5697,-2.5697,-2.5697,-2.5673,-2.5599,-2.5526,-2.5442,-2.5303,-2.5293,-2.5293,-2.5293,-2.5223,-2.5201,-2.5197,-2.5057,-2.4931,-2.4791,-2.4587,-2.4426,-2.4294,-2.4095,-2.3917,-2.3795,-2.3671,-2.3413,-2.3095,-2.2936,-2.2729,-2.2487,-2.233,-2.2163,-2.1969,0.0,0.0,0.0,0.0,0.0,0.0,-0.949,-0.9299,-0.9444,0.0,0.0,0.0,-1.0395,-0.9951,-0.9531,-0.9358,-0.8823,-0.8753,-0.9375,-0.9064,-0.9046,-0.9479,-0.9666,-0.9778,-0.9829,-1.0531,-1.143,-1.253,-1.3163,-1.3996,-1.5016,-1.4361,-1.437,0.0,-1.4185,-1.4476,-1.5611,-1.705,0.0,0.0,-1.9577,-1.9898,0.0,0.0,0.0,0.0,0.0,-2.1277,-2.0979,0.0,-2.1698,-2.0277,0.0,0.0,0.0,-2.0313,-2.0363,-2.041,-2.0476,0.0,0.0,0.0,0.0,0.0,0.0,0.0,0.0,0.0,-1.9996,-1.9825,-2.067,-2.1354,-2.1957,-2.2445,-2.3249,-2.382,-2.3818,-2.4355,-2.4756,-2.4756,-2.5322,-2.5702,-2.5699,-2.5699,-2.5701,0.0,-2.5697,-2.5673,-2.5599,-2.5493,-2.5392,-2.5303,-2.5293,-2.5293,-2.5293,-2.5223,-2.518,-2.5136,-2.4981,-2.4851,-2.4717,-2.4519,-2.4382,-2.4294,-2.4095,-2.3917,-2.3795,-2.3716,-2.3449,-2.3095,-2.2936,-2.2694,-2.233,-2.2147,-2.1986,-2.184,0.0,0.0,0.0,0.0,0.0,-0.9465,-0.9376,-0.9644,-0.9912,0.0,0.0,0.0,-1.0177,-0.9735,-0.9412,-0.9359,-0.9171,-0.915,-0.9368,-0.9181,-0.9312,-0.9888,-1.0021,-1.013,-1.0257,-1.0796,-1.136,-1.1955,-1.2829,-1.3672,-1.4453,-1.4284,-1.445,-1.4875,0.0,0.0,0.0,0.0,0.0,0.0,-1.9422,0.0,0.0,-1.9842,-1.9818,0.0,0.0,0.0,-2.0806,-2.2459,-2.2428,0.0,0.0,0.0,0.0,-2.0244,-2.0309,-2.0373,-2.0413,-2.0424,0.0,0.0,0.0,0.0,-1.9568,-1.9019,-1.8801,0.0,-1.9005,-1.9037,-2.0266,-2.092,-2.1262,-2.1257,-2.1678,-2.2274,-2.2997,-2.3545,-2.3994,-2.4355,-2.4853,-2.5302,-2.5655,-2.5699,-2.5697,-2.5697,-2.5703,-2.5662,-2.5561,-2.5478,-2.5395,-2.5303,-2.5293,-2.5303,-2.5302,-2.5232,-2.5147,-2.5068,-2.4892,-2.4764,-2.4645,-2.4408,-2.4284,-2.4209,-2.3998,-2.3864,-2.3759,-2.3603,-2.3351,-2.3086,-2.2885,-2.2605,-2.2274,-2.2073,-2.192,-2.1789,0.0,0.0,-0.955,-0.9489,-0.9473,-0.9421,-0.9303,-0.9896,-1.0125,0.0,-1.0109,-1.0293,-0.952,-0.9347,-0.9269,-0.9237,-0.9159,-0.9153,-0.9274,-0.9269,-0.9652,-1.0534,-1.067,-1.0809,-1.0985,-1.0917,-1.1068,-1.1466,-1.2145,-1.2941,-1.3846,-1.4563,-1.4895,-1.4895,0.0,0.0,0.0,0.0,0.0,-1.7579,-1.9228,-1.9852,0.0,0.0,-1.9852,-1.9806,-1.9891,-2.0001,-2.0314,-2.1811,-2.2369,0.0,0.0,0.0,-2.0232,-2.0296,-2.031,-2.0291,-2.0299,-2.0298,0.0,0.0,0.0,0.0,-1.8523,-1.8109,-1.8073,-1.8156,-1.811,-1.8545,-2.0195,-2.0498,-2.0497,-2.0503,-2.0497,-2.1039,-2.2601,-2.291,-2.3252,-2.4033,-2.4199,-2.4599,-2.5466,-2.5558,-2.56,-2.5685,-2.5693,-2.5632,-2.5515,-2.5505,-2.5441,-2.5303,-2.5293,-2.5302,-2.5301,-2.523,-2.5132,-2.5003,-2.4794,-2.4651,-2.4573,-2.4321,-2.4163,-2.4094,-2.3896,-2.375,-2.3656,-2.3383,-2.3193,-2.3036,-2.2782,-2.2506,-2.2237,-2.2044,-2.189,-2.1789,0.0,0.0,-0.9349,-0.934,-0.9301,-0.9249,-0.9219,-0.9353,-0.9606,-1.0044,-1.0758,-1.0664,-0.9179,-0.9512,-0.9565,-0.888,-0.9379,-0.9731,-0.9756,-1.0459,-1.0912,-1.1067,-1.1329,-1.1502,-1.1539,-1.1077,-1.1551,-1.3055,-1.2572,-1.3138,-1.4669,-1.4775,-1.4841,-1.4923,-1.5447,0.0,0.0,0.0,0.0,-1.8362,-1.9406,0.0,-1.9809,-1.9813,-1.981,-1.9873,-2.0533,-2.1229,-2.1854,-2.2194,-2.273,-2.2975,0.0,0.0,0.0,-2.108,-2.067,-2.0236,0.0,0.0,0.0,0.0,0.0,0.0,-1.9995,-1.9406,-1.9132,0.0,-1.9398,-1.9265,-2.0313,-2.0504,-2.0503,-2.0496,-2.0496,-2.0636,-2.1029,-2.1689,-2.2197,-2.2373,-2.2956,-2.3695,-2.4567,-2.465,-2.4944,-2.5647,-2.5644,-2.5576,-2.5499,-2.5505,-2.5441,-2.5303,-2.5293,-2.5302,-2.5301,-2.5179,-2.5077,-2.5006,-2.474,-2.4584,-2.4512,-2.4302,-2.4163,-2.4094,-2.3896,-2.3698,-2.3526,-2.3256,-2.3061,-2.291,-2.2632,-2.2343,-2.2036,-2.1899,-2.1819,-2.1789,0.0,-0.9349,-0.9294,-0.9294,-0.9599,-0.9697,-0.9264,-0.9819,-1.0146,-0.9756,-1.0333,-1.0624,-1.0192,-1.0425,-1.0446,-1.0076,-1.0374,-1.0638,-1.0685,-1.117,-1.1616,-1.1973,-1.2223,-1.235,-1.2347,-1.2118,-1.2241,-1.2743,-1.2826,-1.3308,-1.4204,-1.4578,-1.4541,-1.4204,-1.5419,0.0,0.0,0.0,-1.8798,-1.9226,-1.9641,0.0,-1.9754,-1.9751,-1.9751,-1.9857,-2.0692,-2.1812,-2.2713,-2.1465,-2.1883,0.0,0.0,-2.06,-2.0731,0.0,-2.0737,-2.0162,0.0,0.0,0.0,-2.0328,0.0,0.0,0.0,-1.8789,-1.863,-1.9056,-1.8831,-1.8947,-2.0256,0.0,-2.05,-2.0506,-2.05,-2.0522,-2.0594,-2.1354,-2.1904,-2.1904,-2.2994,-2.375,-2.3753,-2.4539,-2.5223,-2.5615,-2.562,-2.5572,-2.55,-2.5474,-2.5406,-2.5302,-2.5302,-2.5282,-2.525,-2.5122,-2.5019,-2.4947,-2.467,-2.4519,-2.4442,-2.421,-2.4047,-2.3946,-2.375,-2.3562,-2.3365,-2.3036,-2.2816,-2.2685,-2.2445,-2.2206,-2.199,-2.184,-2.1797,-2.1746,-0.9301,-0.9292,-0.9327,-0.9487,-1.0051,-1.0242,-0.9541,-1.0432,-1.0751,-0.947,-1.0072,-1.0796,-1.1313,-1.1391,-1.138,-1.1347,-1.1136,-1.1179,-1.1629,-1.1571,-1.183,-1.2485,-1.2964,-1.3063,-1.2741,-1.3029,-1.2946,-1.2477,-1.3093,-1.3504,-1.3746,-1.4399,-1.4417,-1.3941,-1.5175,0.0,0.0,0.0,0.0,-1.9861,0.0,-1.9867,-1.9972,-1.9972,-1.9966,-2.0057,-2.0757,-2.1877,-2.2741,-2.0897,-2.1273,-2.2284,-2.0847,-2.0424,0.0,0.0,0.0,0.0,0.0,0.0,0.0,0.0,0.0,-1.9954,0.0,0.0,0.0,-1.8363,-1.8379,0.0,0.0,0.0,0.0,0.0,0.0,0.0,0.0,-2.1334,0.0,-2.1669,-2.2834,-2.3501,-2.3142,-2.4531,-2.5414,-2.5347,-2.5341,-2.537,-2.5484,-2.5433,-2.537,-2.5301,-2.5291,-2.525,-2.5185,-2.505,-2.4955,-2.4874,-2.4601,-2.4434,-2.4364,-2.4087,-2.3905,-2.3762,-2.3576,-2.3389,-2.3184,-2.2808,-2.2552,-2.2379,-2.2209,-2.2068,-2.194,-2.184,-2.1768,-2.1694,-0.9274,-0.9252,-0.9437,-1.0144,-1.0344,-1.0376,-1.0285,-1.0411,-1.0407,-1.0111,-1.1238,-1.1874,0.0,0.0,0.0,0.0,0.0,0.0,-1.2118,0.0,-1.1373,-1.1473,-1.3077,-1.3284,-1.1786,-1.2647,-1.3464,-1.4222,-1.3665,-1.38,-1.4572,-1.4659,-1.5063,-1.5681,-1.5046,0.0,0.0,0.0,-1.8258,0.0,-1.9735,-2.0205,0.0,-2.0938,-2.0938,-2.0947,-2.0988,-2.1121,-2.136,0.0,-2.2614,-2.3215,0.0,-2.2117,-2.201,-2.1384,0.0,0.0,0.0,0.0,0.0,0.0,-2.0265,0.0,0.0,0.0,-2.0105,-2.011,0.0,0.0,0.0,0.0,0.0,0.0,0.0,0.0,-2.0524,-2.126,-2.1552,-2.0826,-2.0859,-2.1506,-2.2964,-2.3979,-2.4524,-2.4451,-2.4387,-2.467,-2.5375,-2.5407,-2.537,-2.5301,-2.524,-2.5174,-2.5103,-2.4987,-2.4884,-2.4808,-2.4478,-2.4321,-2.4303,-2.3969,-2.3771,-2.3691,-2.3571,-2.3286,-2.291,-2.2642,-2.2345,-2.2047,-2.2019,-2.194,-2.1819,-2.1819,-2.1768,-2.1694,-1.0473,-1.0143,0.0,-1.0854,-1.1368,-1.1507,-1.1003,-1.0886,-1.0994,-1.1363,-1.1933,0.0,0.0,0.0,0.0,0.0,0.0,-1.2918,0.0,0.0,-1.3472,-1.444,-1.4275,-1.4073,-1.3927,-1.3881,-1.405,-1.4432,-1.4167,-1.4232,-1.4576,-1.458,-1.4788,-1.5154,-1.5776,0.0,-1.7819,0.0,-1.9073,0.0,0.0,0.0,0.0,-2.1217,-2.1277,-2.1746,-2.2312,-2.2504,-2.2424,0.0,-2.2536,0.0,0.0,0.0,0.0,0.0,0.0,0.0,0.0,0.0,0.0,0.0,0.0,0.0,-2.0358,0.0,-2.0296,0.0,0.0,0.0,0.0,0.0,0.0,0.0,-2.0573,0.0,0.0,0.0,-2.0923,0.0,0.0,0.0,-2.297,-2.2882,-2.2971,-2.3447,-2.3432,-2.3515,-2.3821,-2.3832,-2.4024,-2.4468,-2.4414,-2.4369,-2.434,-2.468,-2.4341,-2.3357,-2.3999,-2.4008,-2.3493,-2.3658,-2.3442,-2.2891,-2.3082,-2.274,-2.2099,-2.2194,-2.2141,-2.199,-2.1869,-2.1819,-2.1797,-2.1776,-2.1686,-2.1603,-1.1801,0.0,0.0,0.0,-1.2157,-1.233,-1.1668,-1.1553,0.0,0.0,0.0,0.0,-1.486,-1.4405,0.0,0.0,-1.4401,-1.4139,0.0,0.0,-1.4116,-1.537,-1.4873,0.0,0.0,-1.4574,-1.462,-1.4405,-1.4444,-1.4462,-1.4476,-1.4738,-1.4975,-1.5233,0.0,-1.716,-1.7907,0.0,0.0,-1.9872,-2.08,-2.1817,-2.27,-2.1973,-2.1873,-2.2233,-2.2998,-2.3266,-2.3101,-2.2211,-2.2718,0.0,-2.2234,0.0,0.0,0.0,0.0,0.0,-2.0699,0.0,0.0,0.0,0.0,0.0,0.0,0.0,0.0,0.0,0.0,0.0,0.0,0.0,0.0,-2.0504,0.0,-2.0557,0.0,-2.0481,0.0,0.0,0.0,0.0,0.0,-2.1622,-2.156,-2.2404,-2.2213,-2.2229,-2.2613,-2.2651,-2.2916,-2.3509,-2.3453,-2.3395,-2.3367,-2.3823,-2.3525,-2.2494,-2.3433,-2.3483,-2.284,-2.3151,-2.2797,-2.1939,-2.2371,-2.2141,-2.1456,-2.1866,-2.2007,-2.194,-2.1789,-2.1746,-2.1759,-2.1694,-2.1565,-2.1394,-1.2933,-1.2017,0.0,0.0,0.0,0.0,-1.2282,0.0,0.0,0.0,0.0,0.0,0.0,0.0,0.0,0.0,0.0,-1.2697,-1.5097,0.0,-1.1765,-1.1949,-1.421,-1.4001,0.0,-1.3953,-1.5181,-1.4408,-1.4399,-1.4401,-1.4425,-1.5328,-1.6171,-1.6892,-1.6152,-1.7213,-1.9428,-1.7848,-1.8201,-1.9882,-2.075,-2.2054,-2.3492,0.0,-2.3079,-2.221,-2.2382,0.0,0.0,-2.3411,-2.3708,0.0,0.0,0.0,0.0,0.0,0.0,0.0,0.0,0.0,0.0,-2.0336,0.0,0.0,0.0,0.0,-2.0219,0.0,0.0,0.0,0.0,0.0,-2.0496,-2.0497,-2.0498,0.0,0.0,0.0,0.0,0.0,0.0,0.0,0.0,-2.0253,-2.0548,-2.1301,-2.0623,-2.0871,-2.242,-2.2507,-2.2524,-2.2538,-2.2479,-2.2378,-2.2248,-2.2205,-2.2458,-2.2984,-2.2831,-2.2706,-2.2611,-2.237,-2.1773,-2.0973,-2.1507,-2.154,-2.1266,-2.1919,-2.204,-2.1819,-2.1789,-2.1768,-2.1694,-2.1642,-2.1363,-2.1031,0.0,0.0,0.0,0.0,0.0,0.0,0.0,-1.3769,0.0,0.0,0.0,0.0,0.0,-1.4806,-1.4922,0.0,0.0,-1.4083,-1.606,-1.4936,0.0,0.0,0.0,-1.5837,0.0,0.0,-1.5125,-1.4399,-1.4313,-1.4607,-1.527,-1.5537,-1.6422,-1.7784,0.0,-1.8207,0.0,0.0,0.0,0.0,0.0,-2.2631,-2.3623,0.0,-2.3357,-2.3088,-2.3794,-2.3729,0.0,-2.4353,-2.4261,-2.3742,-2.3685,-2.3297,-2.2709,-2.1851,-2.2059,-2.2393,0.0,0.0,-2.202,-2.1177,0.0,0.0,0.0,0.0,0.0,0.0,0.0,0.0,0.0,0.0,-2.0503,-2.0504,-2.0498,-2.0476,0.0,0.0,0.0,0.0,0.0,0.0,0.0,0.0,-1.9913,-2.0165,-1.9922,-1.9985,-2.0491,-2.0568,-2.0815,-2.136,-2.1353,-2.1307,-2.1216,-2.1711,-2.1743,-2.1285,-2.1716,-2.1801,-2.1595,-2.1464,-2.1128,-2.0671,-2.1245,-2.1344,-2.1123,-2.1734,-2.1915,-2.1746,-2.1686,-2.155,-2.1364,-2.134,-2.119,-2.0926,-1.3012,0.0,0.0,0.0,0.0,0.0,0.0,0.0,0.0,0.0,-1.503,0.0,-1.5405,0.0,-1.5103,0.0,-1.5066,-1.4958,-1.666,-1.5959,0.0,-1.7159,-1.714,0.0,0.0,0.0,0.0,-1.4402,-1.4854,-1.5411,-1.6032,-1.6282,-1.7036,-1.8143,0.0,-1.8814,-1.9159,0.0,-1.9529,0.0,0.0,-2.3082,0.0,0.0,-2.3949,-2.401,0.0,-2.4585,-2.423,-2.4512,-2.442,-2.4075,-2.3417,-2.3057,-2.277,-2.2224,-2.251,-2.2873,-2.2323,-2.2616,0.0,-2.1999,-2.1866,0.0,-2.0829,0.0,-2.0651,0.0,0.0,0.0,0.0,0.0,-2.0463,-2.0464,-2.0465,-2.0435,0.0,-2.0194,0.0,0.0,0.0,0.0,0.0,0.0,-1.9165,-1.9406,-1.9161,-1.9105,-1.9337,-1.941,-1.9731,-2.0322,-2.0302,-2.0257,-2.0166,-2.067,-2.0689,-2.0228,-2.0734,-2.0845,-2.0605,-2.0458,-2.0254,-2.0073,-2.0618,-2.0881,-2.0969,-2.162,-2.1848,-2.1708,-2.1595,-2.145,-2.1333,-2.1143,-2.0893,-2.0556,0.0,0.0,0.0,0.0,-1.3743,0.0,0.0,0.0,-1.503,0.0,-1.5216,-1.54,-1.5442,-1.5506,-1.5563,-1.5637,-1.4937,-1.5145,-1.6675,-1.5919,0.0,0.0,-1.6974,-1.599,-1.2253,0.0,0.0,0.0,-1.5964,-1.6682,-1.6682,-1.7514,-1.7957,-1.8103,-1.9004,0.0,-1.8293,-1.9242,-1.9223,-1.8786,-2.1312,-2.3304,-2.4749,-2.4749,-2.4775,-2.4842,-2.4828,-2.4837,-2.4719,-2.3951,-2.4153,-2.4447,-2.2962,-2.2912,-2.3422,-2.3459,-2.3515,-2.357,-2.3549,-2.3666,-2.3565,-2.2669,-2.2516,0.0,0.0,0.0,-2.1232,0.0,0.0,0.0,0.0,0.0,0.0,-2.0409,-2.0392,-2.0342,-2.0206,0.0,0.0,0.0,0.0,0.0,0.0,-1.8712,-1.8397,-1.9035,-1.8381,-1.8272,0.0,-1.9137,-1.9283,-1.9521,-1.9429,-1.932,-1.9232,-1.9196,-1.9414,-1.9886,-1.9932,-1.9845,-1.9673,-1.9378,-1.9249,-1.9258,-1.9706,-2.0239,-2.0905,-2.1587,-2.184,-2.173,-2.1479,-2.1464,-2.1489,-2.1031,-2.0478,-1.9899,-1.2665,-1.2947,-1.3223,0.0,-1.3791,-1.4498,0.0,0.0,0.0,0.0,-1.5482,-1.5038,-1.4659,-1.4668,-1.4739,-1.4799,-1.4523,0.0,0.0,0.0,0.0,-1.5608,-1.6537,-1.6324,-1.4773,-1.621,0.0,-1.5371,0.0,-1.7001,-1.7718,-1.7848,-1.8288,-1.899,0.0,0.0,-1.7473,-1.8357,-1.8989,-1.9507,-2.0825,-2.2341,-2.3836,0.0,-2.3912,-2.3986,-2.3903,-2.3917,-2.3967,-2.3708,-2.2943,-2.2108,-2.2292,-2.1621,-2.0897,-2.1554,-2.1746,-2.1922,-2.259,-2.2382,-2.1918,-2.1729,-2.1299,-2.0856,0.0,0.0,0.0,0.0,0.0,0.0,0.0,0.0,0.0,0.0,-2.0323,0.0,0.0,0.0,0.0,-1.9757,0.0,0.0,0.0,-1.9001,-1.8748,-1.8861,-1.8592,-1.8502,-1.8716,0.0,-1.9201,-1.9857,-1.9325,-1.9272,-1.9795,-1.921,-1.919,-1.9741,-1.9204,-1.9111,-1.9373,-1.8702,-1.8896,-1.9715,-1.9738,-2.0387,-2.1482,-2.1612,-2.1542,-2.1356,-2.127,-2.1023,-2.0679,-2.0571,-2.01,-1.9531,-1.2915,0.0,0.0,-1.4356,0.0,0.0,-1.5506,0.0,0.0,-1.6228,-1.5613,0.0,-1.4724,-1.4471,-1.4329,-1.4375,-1.4301,0.0,-1.5402,0.0,0.0,-1.6159,-1.657,-1.5964,-1.4162,-1.5482,0.0,-1.5184,0.0,-1.7321,-1.8531,-1.8433,-1.8669,-1.917,0.0,-1.8625,0.0,-1.7789,-1.8777,-2.0272,-2.0763,-2.1765,0.0,-2.3366,-2.3333,-2.3031,-2.2576,-2.2729,-2.3065,-2.2616,-2.209,-2.1578,-2.1304,-2.1065,-2.0994,-2.1478,-2.1658,-2.1872,-2.2783,-2.2431,-2.1834,-2.187,-2.1589,-2.1216,-2.0893,-2.0914,-2.087,0.0,-2.0841,-2.1188,0.0,0.0,0.0,0.0,0.0,0.0,0.0,0.0,0.0,0.0,-1.9119,0.0,-1.91,-1.8912,-1.8698,-1.8554,-1.8448,-1.8408,-1.8476,0.0,-1.8844,-1.9423,-1.9313,-1.9294,-1.9329,-1.9266,-1.9177,-1.9038,-1.8704,-1.863,-1.8723,-1.8435,-1.8885,-1.9855,-1.9888,-2.0566,-2.1634,-2.1489,-2.1341,-2.1183,-2.1095,-2.0687,-2.0135,-2.0212,-1.9912,-1.9457,0.0,0.0,0.0,0.0,0.0,0.0,0.0,-1.5392,0.0,-1.6036,0.0,-1.5003,-1.5032,-1.453,-1.418,-1.4193,0.0,-1.4832,-1.6347,-1.5746,-1.5719,-1.6542,-1.6516,-1.5211,-1.2469,-1.4455,-1.5301,0.0,-1.6168,-1.7608,-1.9111,-1.9035,-1.9001,0.0,0.0,0.0,0.0,-1.7479,-1.8494,-2.0578,-2.0704,-2.1283,-2.2182,-2.291,-2.2802,-2.2168,-2.1309,-2.1522,-2.2092,-2.126,-2.1431,-2.1741,-2.038,-2.0887,-2.2027,-2.2246,-2.2201,-2.2297,-2.3294,-2.2896,-2.2201,-2.2201,-2.2245,-2.2125,-2.149,-2.1384,-2.1251,-2.0566,-2.0551,-2.0903,-2.1655,0.0,0.0,0.0,0.0,0.0,0.0,0.0,0.0,0.0,0.0,0.0,0.0,-1.8518,-1.8415,-1.8078,-1.7962,-1.7962,-1.8081,0.0,-1.8309,-1.8755,-1.9248,-1.9216,-1.864,-1.9277,-1.9132,-1.8217,-1.8357,-1.8295,-1.8101,-1.8415,-1.9043,-1.9855,-2.0053,-2.0683,-2.1489,-2.1238,-2.1111,-2.1038,-2.0877,-2.0395,-1.9805,-1.9891,-1.9756,-1.9538,0.0,0.0,0.0,0.0,0.0,-1.6001,-1.4693,-1.5218,-1.5629,-1.5182,-1.4457,-1.4007,-1.4118,-1.406,-1.4068,-1.4109,-1.4123,0.0,0.0,0.0,0.0,-1.4823,-1.4821,-1.4584,-1.4093,-1.4432,-1.5288,0.0,-1.6797,-1.7667,-1.9171,-1.9106,-1.9084,0.0,0.0,0.0,-1.8227,-1.7445,0.0,-1.8892,-1.9621,-2.0405,-2.1176,-2.1357,-2.1765,-2.2112,-2.1286,-2.1106,-2.1223,-2.1059,-2.0661,-2.0305,-2.0671,-2.0539,-2.0515,-2.1966,-2.1408,-2.0704,-2.235,-2.172,-2.0603,-2.0603,-2.0653,-2.0677,-2.0535,-2.0553,-2.0592,-2.0502,-2.1065,-2.162,-2.1767,0.0,0.0,0.0,0.0,0.0,0.0,0.0,0.0,0.0,0.0,-1.7559,0.0,0.0,-1.8066,-1.7357,-1.7028,-1.6906,-1.6977,0.0,-1.7754,0.0,-1.8688,-1.8751,0.0,0.0,-1.8476,-1.8277,-1.8095,-1.8175,-1.8483,-1.841,-1.899,-2.0113,-1.9949,-2.0304,-2.0999,-2.0843,-2.0628,-2.0353,-2.0266,-2.003,-1.969,-1.956,-1.9494,-1.942,0.0,0.0,0.0,0.0,0.0,0.0,0.0,-1.5251,-1.5193,-1.498,-1.4581,-1.4511,-1.5034,-1.4709,-1.466,-1.5152,-1.5181,-1.5427,-1.598,-1.5297,-1.5121,-1.5672,-1.4907,0.0,-1.4446,-1.3598,-1.4426,-1.7049,-1.61,-1.6903,-1.9308,-1.9236,-1.9182,-1.9153,0.0,-1.9171,0.0,0.0,0.0,-1.9066,-1.948,-1.9875,-2.028,-2.076,-2.0927,-2.0852,-2.0498,-2.038,-2.038,-2.038,-2.0126,-1.9948,-2.0746,-2.1037,-2.1364,-2.2697,-2.2161,-2.1351,-2.2291,-2.1356,-2.0116,-2.018,-2.0219,-2.027,-2.0334,-2.0381,-2.0423,-2.0486,-2.1187,-2.1945,-2.2388,-2.2418,0.0,0.0,0.0,0.0,0.0,0.0,0.0,0.0,0.0,0.0,0.0,0.0,0.0,0.0,0.0,-1.6524,-1.6588,0.0,-1.7122,0.0,0.0,0.0,-1.868,0.0,-1.8465,-1.7988,-1.7816,-1.8036,-1.8552,-1.8655,-1.9228,-2.0144,-2.0226,-2.0478,-2.0811,-2.0644,-2.0373,-2.0108,-2.0053,-1.9841,-1.9516,-1.945,-1.9339,-1.9221,0.0,-1.6886,0.0,0.0,-1.7034,0.0,-1.6013,-1.5366,-1.49,-1.4781,-1.4831,-1.5164,-1.5827,-1.5427,-1.54,-1.6115,-1.6168,-1.6535,-1.7437,-1.6178,-1.574,-1.6552,-1.5242,-1.4538,-1.463,-1.3066,-1.3809,0.0,-1.5519,-1.6266,-1.9133,-1.9265,-1.9286,0.0,0.0,0.0,0.0,0.0,-1.897,-1.9592,-1.9597,-1.9601,-1.9675,-2.0382,-2.0354,-1.9944,-1.982,-1.9898,-2.0032,-1.9864,-1.991,-2.0145,-2.0596,-2.1341,-2.2233,-2.3151,-2.2663,-2.1928,-2.2412,-2.1315,-2.0069,-2.0187,-2.0227,-2.0246,-2.0372,-2.0402,-2.0417,-2.0497,-2.1192,-2.2074,-2.2939,-2.3064,0.0,0.0,0.0,0.0,0.0,0.0,0.0,0.0,0.0,0.0,-1.7011,0.0,0.0,0.0,0.0,-1.6133,-1.6198,-1.625,-1.647,0.0,0.0,-1.8523,-1.7847,0.0,-1.8447,-1.771,-1.7716,-1.8038,-1.8672,-1.903,-1.9581,-2.024,-2.0515,-2.0644,-2.0595,-2.0373,-2.0138,-1.9927,-1.9891,-1.9669,-1.9384,-1.9339,-1.9221,-1.9101,0.0,0.0,0.0,0.0,0.0,0.0,-1.6105,-1.546,-1.4812,-1.4105,-1.4527,-1.4915,-1.4925,-1.5452,-1.5886,-1.6081,-1.6045,-1.6151,-1.6508,-1.5768,-1.5379,-1.5532,-1.4866,-1.4776,-1.5378,-1.3885,-1.4368,0.0,-1.6119,-1.6555,-1.8235,-1.9022,-1.9357,0.0,0.0,0.0,0.0,-1.949,-1.9527,-1.9606,-1.9597,-1.9606,-1.9615,-1.9753,-2.0219,-2.0699,-1.9972,-2.0226,-2.0774,-2.0051,-2.0286,-2.0765,-2.0126,-2.0512,-2.1372,-2.2256,-2.1438,-2.0572,-2.2227,-2.1465,-2.0205,-2.0265,-2.0287,-2.0308,-2.0379,-2.0402,-2.0418,-2.0488,-2.1188,-2.2068,-2.294,-2.3091,-2.302,0.0,0.0,0.0,0.0,0.0,-1.9387,-1.8079,0.0,0.0,0.0,-1.4964,0.0,0.0,-1.5098,-1.5163,-1.5222,-1.5184,-1.5811,-1.7291,-1.7614,-1.7702,-1.7635,-1.7825,-1.7848,-1.7695,-1.7996,-1.8494,-1.9146,-1.9439,-1.9964,-2.0632,-2.0494,-2.0277,-2.0068,-1.9833,-1.9754,-1.9726,-1.9523,-1.9413,-1.9376,-1.9183,-1.9101,-1.9101,0.0,0.0,0.0,0.0,0.0,0.0,0.0,-1.4823,-1.4309,-1.3947,-1.4544,-1.5353,-1.6203,-1.6523,-1.6724,-1.6816,-1.7282,-1.7407,-1.7028,-1.6793,-1.6704,-1.6783,-1.6157,-1.6177,-1.6929,-1.5392,-1.5808,0.0,0.0,0.0,-1.8893,-1.9236,-1.9392,0.0,0.0,-1.9462,-1.9456,-1.955,-1.9555,-1.9497,-1.9574,-1.9588,-1.9541,-1.966,-1.9892,-2.0148,-1.9863,-1.9982,-2.023,-1.991,-2.0014,-2.0314,-2.0474,-2.0784,-2.1271,-2.2143,-2.1604,-2.0892,-2.1653,-2.1044,-2.0223,-2.028,-2.0325,-2.0383,-2.0444,-2.0463,-2.0467,-2.0491,-2.1232,-2.2108,-2.2947,-2.2671,-2.2465,-2.2896,0.0,0.0,0.0,0.0,0.0,-1.8012,0.0,0.0,0.0,0.0,0.0,0.0,0.0,-1.4531,-1.4851,-1.5057,-1.586,-1.7344,0.0,-1.7695,-1.8193,-1.7703,-1.7384,-1.7288,-1.7771,-1.8335,-1.8901,-1.9327,-1.9913,-2.0525,-2.0381,-2.0208,-1.9998,-1.9919,-1.9741,-1.9516,-1.9413,-1.9339,-1.9221,-1.9139,-1.9101,-1.9101,-1.6006,0.0,-1.59,0.0,-1.5419,-1.5002,-1.4968,-1.443,-1.408,-1.4238,-1.4768,-1.5591,-1.6781,-1.7322,-1.7497,-1.7281,-1.7835,-1.7961,-1.7462,-1.7284,-1.7326,-1.7652,-1.7021,0.0,-1.7851,-1.6553,-1.6843,-1.8886,-1.7891,0.0,0.0,0.0,0.0,0.0,-1.9433,-1.9423,-1.9409,-1.9504,-1.9493,-1.9411,-1.9541,-1.9574,-1.9537,-1.9628,-1.9677,-1.9703,-1.9741,-1.9776,-1.9807,-1.9822,-1.982,-1.9901,-2.049,-2.0866,-2.1217,-2.1859,-2.149,-2.0938,-2.1251,-2.0776,-2.022,-2.031,-2.0361,-2.042,-2.0477,-2.0504,-2.0509,-2.0526,-2.1061,-2.176,-2.2572,-2.2209,-2.1982,-2.253,0.0,0.0,0.0,-2.024,0.0,0.0,-1.8197,-1.8029,-1.7357,-1.6355,0.0,0.0,0.0,-1.4352,-1.474,-1.4978,-1.5766,0.0,0.0,0.0,-1.8087,-1.7461,-1.7198,-1.7299,-1.7879,-1.8456,-1.898,-1.953,-1.9983,-2.0346,-2.0277,-2.0103,-1.9919,-1.9856,-1.9676,-1.9384,-1.9339,-1.9258,-1.9183,-1.9101,-1.9101,-1.9108,-1.628,-1.6097,-1.6133,-1.6272,-1.5633,-1.5106,-1.5095,-1.4522,-1.4342,-1.5002,-1.5148,-1.5411,-1.5967,-1.7489,-1.815,-1.7284,-1.7204,-1.7298,-1.7498,-1.6685,-1.6631,0.0,0.0,-1.698,-1.7788,-1.7065,-1.7158,-1.8115,0.0,0.0,-1.8231,0.0,-1.956,-1.9494,-1.9504,-1.9457,-1.9409,-1.9409,-1.9409,-1.9409,-1.9546,-1.9601,-1.9605,-1.9605,-1.9636,-1.9704,-1.9704,-1.9745,-1.9807,-1.9882,-1.9859,-1.982,-1.9892,-2.0465,-2.1121,-2.1195,-2.0693,-2.0308,-2.1157,-2.0813,-2.0233,-2.0376,-2.0402,-2.0419,-2.0481,-2.0498,-2.0526,-2.0587,-2.0614,-2.0855,-2.1669,-2.1805,-2.1784,-2.172,0.0,0.0,0.0,-1.9821,0.0,-1.8789,-1.7879,-1.7484,-1.7945,-1.5936,0.0,0.0,0.0,0.0,0.0,0.0,0.0,-1.6853,-1.6833,0.0,-1.6934,-1.6993,-1.7331,-1.7977,-1.8521,-1.908,-1.9625,-2.0123,-2.0346,-2.0304,-2.0103,-1.9884,-1.969,-1.9487,-1.9413,-1.9376,-1.9183,-1.9221,-1.9376,-1.9183,-1.9101,-1.9108,-1.4914,-1.5187,-1.5376,-1.4775,-1.4527,-1.4388,-1.43,-1.4636,-1.4777,-1.4406,-1.532,-1.5862,-1.5428,-1.6351,-1.6897,0.0,-1.6675,-1.6913,0.0,-1.7276,-1.7335,-1.7592,-1.7435,-1.7264,-1.7047,-1.7351,-1.7651,-1.7964,0.0,0.0,0.0,-1.9287,-1.9383,-1.9374,-1.9409,-1.9385,-1.9335,-1.9484,-1.9484,-1.9402,-1.9555,-1.9606,-1.9592,-1.9645,-1.9679,-1.9713,-1.9745,-1.9776,-1.9807,-1.9882,-1.9896,-1.9889,-2.0007,-2.0145,-2.0299,-2.0355,-2.0257,-2.0174,-2.0487,-2.0432,-2.0284,-2.0383,-2.0432,-2.0473,-2.0497,-2.0536,-2.0568,-2.0605,-2.0596,-2.0683,-2.0927,-2.0938,-2.088,-2.0758,-2.0737,0.0,-1.9728,0.0,-1.9462,-1.8852,-1.8375,-1.8106,-1.8078,-1.6675,0.0,0.0,0.0,0.0,0.0,0.0,0.0,0.0,-1.7047,0.0,-1.7588,-1.6932,-1.6707,-1.6924,-1.8071,-1.9108,-2.0089,-2.0238,-2.0312,-2.0304,-2.0103,-1.9884,-1.9682,-1.9479,-1.9339,-1.9183,-1.9139,-1.9139,-1.9183,-1.9101,-1.9078,-1.9017,-1.4888,-1.5033,-1.5178,-1.4623,-1.457,-1.4677,-1.4956,-1.544,-1.561,-1.5085,-1.5899,-1.6309,-1.5795,-1.6211,0.0,-1.5854,-1.6192,-1.6589,-1.6976,-1.7458,-1.7721,-1.7712,-1.7761,-1.744,-1.6715,-1.7195,0.0,-1.7982,-1.8586,-1.9085,-1.9467,-1.9124,-1.9137,-1.9443,-1.9471,-1.9448,-1.9429,-1.955,-1.956,-1.9494,-1.9628,-1.9686,-1.9686,-1.9757,-1.9785,-1.9775,-1.9849,-1.988,-1.9884,-1.9952,-1.9955,-1.9959,-2.0107,-2.0059,-1.999,-2.0059,-2.0098,-2.0144,-2.0195,-2.025,-2.032,-2.0382,-2.0448,-2.0509,-2.0529,-2.0575,-2.0605,-2.0603,-2.0596,-2.0579,-2.0528,-2.0494,-2.0427,-2.032,-2.0253,-2.0101,-1.9736,0.0,-1.9377,0.0,0.0,0.0,0.0,-1.7094,-1.6505,0.0,0.0,0.0,0.0,0.0,-1.6463,-1.7286,-1.6775,-1.674,-1.7243,-1.6655,-1.6495,-1.6787,-1.8136,-1.9321,-2.0304,-2.0304,-2.0304,-2.0304,-2.0103,-1.9884,-1.9682,-1.9479,-1.9295,-1.9101,-1.9101,-1.9071,-1.904,-1.904,-1.9003,-1.8896,-1.5918,-1.5601,-1.5614,-1.5677,-1.5587,-1.5804,-1.6666,-1.6747,-1.6715,-1.6717,-1.6764,-1.6792,-1.6812,-1.6862,-1.6424,-1.5238,0.0,0.0,-1.6673,-1.7399,-1.7851,-1.7919,-1.7878,-1.7457,-1.666,-1.6686,-1.718,-1.8104,-1.8186,-1.8652,-1.9512,-1.8765,-1.8868,-1.9704,-1.9647,-1.9602,-1.9602,-1.9602,-1.9602,-1.9625,-1.9754,-1.9804,-1.9811,-1.9884,-1.9898,-1.9921,-1.9982,-2.0005,-2.0009,-2.0078,-2.006,-2.0041,-2.0173,-2.017,-2.0132,-2.0182,-2.0197,-2.0209,-2.0208,-2.026,-2.0321,-2.0383,-2.0449,-2.0522,-2.0581,-2.0604,-2.0601,-2.0591,-2.0591,-2.055,-2.0422,-2.0395,-2.0371,-2.0292,-2.0167,-2.0012,-1.9809,-1.9651,-1.9324,0.0,0.0,0.0,-1.7927,-1.7256,-1.6909,0.0,0.0,0.0,0.0,0.0,-1.624,-1.6222,-1.6131,-1.6131,-1.6194,-1.6254,-1.6693,-1.7475,-1.8671,-1.9603,-2.0304,-2.0304,-2.0304,-2.027,-2.0068,-1.9884,-1.969,-1.9487,-1.9258,-1.9101,-1.9101,-1.904,-1.8993,-1.8993,-1.8889,-1.8791,0.0,0.0,-1.7289,-1.6693,-1.6569,-1.6619,-1.6843,-1.7362,-1.7531,-1.6927,-1.7394,-1.7532,-1.6935,-1.6888,-1.6775,-1.6474,-1.6638,-1.7289,-1.8547,-1.8264,-1.8057,-1.813,-1.7537,-1.6851,-1.6113,-1.6643,-1.7339,-1.8186,-1.8298,-1.8488,-1.8768,-1.8572,-1.8942,-1.9785,-1.9763,-1.9754,-1.9754,-1.9754,-1.9754,-1.9763,-1.9782,-1.9833,-1.9881,-1.9889,-1.9922,-1.9986,-1.9984,-2.0005,-2.0009,-2.0079,-2.0122,-2.0179,-2.031,-2.0343,-2.0307,-2.0231,-2.024,-2.0288,-2.0337,-2.0365,-2.0396,-2.0457,-2.049,-2.0519,-2.0576,-2.0598,-2.0591,-2.0533,-2.0481,-2.0445,-2.041,-2.0365,-2.0273,-2.01,-2.0003,-1.984,-1.954,-1.9289,-1.9048,-1.8788,-1.8373,-1.8078,-1.7996,-1.7464,-1.7085,0.0,0.0,-1.6895,-1.6273,-1.6613,-1.6644,-1.6297,-1.6207,-1.6194,-1.6194,-1.6222,-1.6814,-1.7992,-1.833,-1.9108,-2.0304,-2.0185,-2.015,-2.0115,-1.982,-1.9683,-1.9603,-1.9302,-1.9139,-1.9101,-1.9048,-1.9024,-1.8993,-1.8889,-1.8805,-1.8704,-1.7151,-1.7623,-1.8112,-1.7703,-1.7274,-1.7135,-1.7522,-1.7904,-1.7992,-1.7581,-1.8241,-1.8596,-1.8224,-1.8213,-1.8226,-1.8226,-1.7725,-1.7798,-1.8733,-1.8728,-1.8554,-1.8267,-1.7859,-1.7269,-1.6474,-1.6836,-1.746,-1.8344,-1.841,-1.8665,-1.9094,-1.8751,-1.9037,-1.9849,-1.988,-1.9892,-1.9892,-1.9892,-1.9892,-1.9892,-1.9889,-1.9904,-1.9957,-2.0009,-2.0039,-2.0049,-2.0079,-2.0108,-2.0144,-2.0185,-2.0243,-2.0299,-2.0383,-2.042,-2.0434,-2.0357,-2.034,-2.0352,-2.0394,-2.0424,-2.0454,-2.0492,-2.0504,-2.0512,-2.0545,-2.0551,-2.054,-2.0506,-2.0451,-2.0376,-2.0318,-2.0231,-2.0111,-1.9934,-1.9785,-1.9594,-1.9339,-1.9079,-1.8834,-1.8639,-1.8278,-1.7984,-1.7825,-1.7433,-1.7125,-1.6917,-1.6874,0.0,-1.6146,-1.6179,-1.6143,-1.594,-1.6019,-1.5991,-1.589,-1.6039,-1.6623,-1.7654,-1.8022,-1.8728,-1.9722,-1.9958,-2.001,-1.9897,-1.9632,-1.9501,-1.9494,-1.9198,-1.9078,-1.9108,-1.8965,-1.8896,-1.8896,-1.8812,-1.8697,-1.8595,-1.8506,-1.8488,-1.8631,-1.8687,-1.804,-1.7764,-1.8497,-1.8514,-1.8461,-1.8523,-1.9113,-1.9591,-1.9699,-1.977,-1.9807,-1.9807,-1.8846,-1.8305,-1.8429,-1.9064,-1.9175,-1.8549,-1.8454,-1.8071,-1.7337,-1.7318,-1.7723,-1.8519,-1.8517,-1.8897,-1.9614,-1.8991,-1.9127,-1.9921,-1.9962,-2.0003,-2.0003,-2.0003,-2.0003,-2.0003,-1.9997,-2.0008,-2.0028,-2.0136,-2.0164,-2.0117,-2.0178,-2.0242,-2.0299,-2.0308,-2.0361,-2.042,-2.0415,-2.0461,-2.0522,-2.0522,-2.047,-2.0434,-2.0415,-2.0463,-2.0513,-2.0497,-2.0605,-2.0702,-2.07,-2.0702,-2.0685,-2.0671,-2.0512,-2.033,-2.019,-2.005,-1.9895,-1.9746,-1.9512,-1.9306,-1.9154,-1.9002,-1.8829,-1.8543,-1.8422,-1.8226,-1.7947,-1.7691,-1.7424,-1.7143,-1.6753,-1.6463,-1.6271,-1.5846,-1.5642,-1.5719,-1.5847,-1.5824,-1.5625,-1.5947,-1.6408,-1.697,-1.7708,-1.8373,-1.9019,-1.9588,-1.9786,-1.969,-1.9479,-1.9376,-1.9347,-1.91,-1.9017,-1.9026,-1.8874,-1.8791,-1.8798,-1.8704,-1.8595,-1.8517,-1.8624,-1.9079,-1.9595,-1.9595,-1.9482,-1.9423,-1.9557,-1.9573,-1.956,-1.9573,-1.9676,-1.9763,-1.9773,-1.9785,-1.9807,-1.9807,-1.9587,-1.9464,-1.9551,-1.9612,-1.963,-1.9563,-1.8873,-1.8423,-1.8292,-1.8345,-1.8443,-1.8576,-1.8578,-1.8686,-1.887,-1.8748,-1.9167,-1.9982,-2.0003,-2.0003,-2.0003,-2.0003,-2.0003,-2.0003,-1.9997,-2.0028,-2.0088,-2.0107,-2.0135,-2.0186,-2.0193,-2.0238,-2.0308,-2.0373,-2.0429,-2.048,-2.048,-2.0528,-2.0578,-2.0578,-2.0576,-2.056,-2.0497,-2.0526,-2.0572,-2.0509,-2.1052,-2.1596,-2.1604,-2.1603,-2.1569,-2.145,-2.0785,-2.0188,-2.006,-1.988,-1.9676,-1.9416,-1.9246,-1.9068,-1.8807,0.0,-1.9383,-1.9117,-1.9532,-1.9739,-1.9402,-1.9174,-1.893,-1.8599,-1.8185,-1.7854,-1.7544,-1.7128,-1.6847,-1.6694,-1.6355,-1.616,-1.6169,-1.6524,-1.6691,-1.6758,-1.7166,-1.7976,-1.9081,-1.9027,-1.9244,-1.969,-1.9442,-1.9258,-1.9146,-1.9055,-1.8934,-1.8829,-1.8736,-1.8711,-1.8711,-1.8595,-1.8517,-1.8517,-1.9229,-1.9501,-1.9807,-1.9807,-1.9413,-1.9103,-1.9103,-1.9103,-1.9103,-1.9103,-1.951,-1.9804,-1.9804,-1.9825,-1.9847,-1.9804,-1.9791,-1.9801,-1.9804,-1.9732,-1.9732,-1.9804,-1.9451,-1.9247,-1.9249,-1.9279,-1.9309,-1.93,-1.9301,-1.9322,-1.9353,-1.9385,-1.9613,-2.0003,-1.9995,-1.9996,-1.9996,-2.0047,-2.0028,-2.0009,-2.0079,-2.0126,-2.0164,-2.0196,-2.0235,-2.0258,-2.0289,-2.0331,-2.0366,-2.043,-2.0502,-2.055,-2.055,-2.0578,-2.0603,-2.0603,-2.0603,-2.0586,-2.0563,-2.0576,-2.0575,-2.0519,-2.1159,-2.1786,-2.175,-2.1755,-2.1709,-2.1572,-2.0795,-2.0088,-1.9918,-1.9762,-1.9553,-1.9295,-1.947,-1.9534,-1.9241,-1.9707,-1.9998,-1.9773,-1.9923,-1.995,-1.9673,-1.9457,-1.9143,-1.8677,-1.8361,-1.802,-1.7627,-1.7197,-1.6974,-1.6885,-1.6573,-1.6443,-1.6577,-1.6593,-1.6573,-1.6551,-1.6977,-1.7624,-1.8425,-1.8647,-1.9034,-1.9472,-1.9295,-1.9153,-1.9055,-1.8927,-1.8874,-1.8791,-1.8666,-1.8634,-1.868,-1.8556,-1.8517,-1.8517,-1.9182,-1.9354,-1.9519,-1.9519,-1.9115,-1.8805,-1.8817,-1.8817,-1.8805,-1.8817,-1.9414,-1.9821,-1.9821,-1.9863,-1.9809,-1.9538,-1.9571,-1.9571,-1.952,-1.9493,-1.9578,-1.9811,-1.9863,-1.9896,-1.9898,-1.9908,-1.9908,-1.99,-1.9921,-1.9921,-1.9921,-1.9982,-2.0003,-2.0003,-2.0007,-1.9998,-1.9999,-2.0068,-2.0069,-2.0031,-2.0151,-2.0196,-2.0207,-2.0277,-2.0311,-2.0328,-2.0379,-2.041,-2.0431,-2.0474,-2.0539,-2.0596,-2.0597,-2.0601,-2.0603,-2.0603,-2.0601,-2.0595,-2.0598,-2.0589,-2.0558,-2.051,-2.1143,-2.1763,-2.169,-2.1677,-2.1691,-2.1738,-2.1005,-2.0322,-2.0336,-2.0191,-1.9984,-1.9714,0.0,-2.0165,-1.9838,-2.0319,-2.0629,-2.044,-2.0399,-2.0306,-2.0086,-1.9927,-1.9586,-1.8975,-1.8709,-1.8394,-1.7936,-1.7489,-1.7285,-1.7355,-1.7065,-1.6952,-1.7092,-1.6823,-1.6588,-1.6458,-1.6887,-1.7342,-1.7809,-1.8377,-1.8893,-1.9302,-1.9153,-1.904,-1.8941,-1.8843,-1.8753,-1.8714,-1.8549,-1.8556,-1.8634,-1.8556,-1.8517,-1.8517,-1.7576,-1.8169,-1.8694,-1.8694,-1.9247,-1.9736,-1.979,-1.9736,-1.9736,-1.979,-1.9847,-1.9884,-1.9884,-1.9905,-1.9564,-1.8751,-1.8696,-1.8696,-1.8685,-1.8736,-1.9116,-1.9856,-1.9905,-1.9905,-1.9905,-1.9898,-1.99,-1.99,-1.9962,-1.9982,-1.9982,-2.0003,-2.0003,-2.0003,-2.0007,-2.0009,-2.0001,-2.0069,-2.0098,-2.0097,-2.017,-2.0201,-2.0209,-2.0268,-2.0341,-2.0394,-2.0405,-2.0437,-2.0487,-2.0499,-2.054,-2.0596,-2.0601,-2.0603,-2.0603,-2.0603,-2.0604,-2.0602,-2.0599,-2.055,-2.051,-2.0495,-2.1114,-2.1691,-2.1613,-2.1611,-2.1785,-2.2393,-2.1712,-2.1211,-2.1821,-2.166,-2.1361,-2.1098,0.0,0.0,-2.0472,-2.0948,-2.125,-2.106,-2.1524,-2.1732,-2.1478,-2.1425,-2.1171,-2.0569,-2.0221,-1.9878,-1.947,-1.8956,-1.8641,-1.8648,-1.8164,-1.7885,-1.792,-1.7662,-1.7198,-1.6598,-1.6697,-1.7103,-1.7804,-1.8233,-1.8773,-1.9384,-1.9137,-1.8934,-1.8829,-1.8743,-1.8634,-1.851,-1.8517,-1.8517,-1.8517,-1.8517,-1.8517,-1.8517,-1.7463,-1.771,-1.7899,-1.786,-1.8557,-1.9113,-1.9102,-1.9524,-1.9863,-1.9905,-1.9896,-1.9898,-1.9898,-1.994,-1.9609,-1.8738,-1.8704,-1.8477,-1.7897,-1.842,-1.9122,-1.9932,-1.996,-1.996,-1.996,-1.9962,-1.9962,-1.9962,-1.9992,-2.0003,-2.0003,-2.0003,-2.0005,-1.9999,-2.0039,-2.0088,-2.0135,-2.0198,-2.022,-2.0223,-2.0295,-2.0321,-2.0334,-2.0398,-2.0444,-2.0456,-2.0456,-2.0513,-2.0565,-2.0506,-2.0544,-2.0597,-2.0601,-2.0604,-2.0595,-2.0595,-2.0568,-2.0542,-2.0539,-2.0516,-2.049,-2.0453,-2.1045,-2.1623,-2.1556,-2.147,-2.1598,-2.2282,-2.1655,-2.1166,-2.1798,-2.1746,-2.147,-2.1131,0.0,-2.1458,-2.1151,-2.1644,-2.1988,-2.1862,-2.1856,-2.1819,-2.1664,-2.1511,-2.1191,-2.0636,-2.0308,-1.9925,-1.9494,-1.9064,-1.8891,-1.9147,-1.887,-1.8709,-1.868,-1.8332,-1.7818,-1.7159,-1.7309,-1.7515,-1.7762,-1.8116,-1.8636,-1.9183,-1.895,-1.8805,-1.8743,-1.8711,-1.8634,-1.8517,-1.8517,-1.8517,-1.8517,-1.8517,-1.8517,-1.8517,-1.6754,-1.6947,-1.7119,-1.7064,-1.7757,-1.8315,-1.8257,-1.8983,-1.9426,-1.9171,-1.9361,-1.9429,-1.9166,-1.9197,-1.8876,-1.8022,-1.7985,-1.7747,-1.7103,-1.789,-1.8868,-1.9955,-1.9747,-1.9728,-1.9993,-2.0003,-2.0004,-1.9996,-1.9996,-2.0007,-2.0037,-2.0037,-2.0029,-2.0031,-2.0098,-2.0164,-2.023,-2.0286,-2.0313,-2.0337,-2.0384,-2.0415,-2.0444,-2.0477,-2.0505,-2.0503,-2.0516,-2.056,-2.0586,-2.0548,-2.0564,-2.0595,-2.0596,-2.0604,-2.0596,-2.0574,-2.0536,-2.05,-2.047,-2.0444,-2.0429,-2.0405,-2.0787,-2.1135,-2.1051,-2.0938,-2.1119,-2.2045,-2.1704,-2.1492,-2.2299,-2.2356,-2.2117,-2.171,-2.2007,-2.2176,-2.1824,-2.2109,-2.2293,-2.218,-2.1924,-2.1708,-2.1617,-2.1433,-2.1079,-2.052,-2.0273,-1.9889,-1.9339,-1.9033,-1.9064,-1.9457,-1.9339,-1.931,-1.9362,-1.8856,-1.8361,-1.793,-1.7937,-1.793,-1.7911,-1.8285,-1.8687,-1.9078,-1.8843,-1.8728,-1.8718,-1.8634,-1.8595,-1.8517,-1.8517,-1.8517,-1.8517,-1.8517,-1.8517,-1.8517,-1.5098,-1.5742,-1.6288,-1.6288,-1.6957,-1.7492,-1.749,-1.8174,-1.8399,-1.7605,-1.8202,-1.8383,-1.7596,-1.7501,-1.7177,-1.6368,-1.6301,-1.6301,-1.6301,-1.7043,-1.8222,-1.9908,-1.9159,-1.9102,-1.9974,-2.0003,-2.0007,-1.9992,-1.9992,-2.0031,-2.0098,-2.0098,-2.0098,-2.0107,-2.0173,-2.0234,-2.0294,-2.0296,-2.0337,-2.04,-2.0395,-2.0439,-2.0502,-2.0505,-2.0503,-2.0511,-2.0585,-2.0603,-2.0596,-2.0604,-2.0604,-2.0599,-2.0599,-2.0605,-2.0594,-2.0519,-2.05,-2.0483,-2.042,-2.0348,-2.0325,-2.0379,-2.0304,-2.0159,-2.0021,-1.9949,-2.0318,-2.1798,-2.2058,-2.2397,-2.3661,-2.3789,-2.354,-2.3068,-2.2936,-2.279,-2.2432,-2.2285,-2.2126,-2.192,-2.1716,-2.1542,-2.1417,-2.134,-2.1047,-2.0444,-2.0285,-1.9866,-1.9139,-1.9055,-1.9175,-1.9582,-1.9457,-1.9596,-1.9998,-1.9151,-1.8786,-1.8902,-1.8483,-1.8328,-1.8425,-1.8825,-1.8993,-1.8993,-1.8795,-1.8718,-1.868,-1.8556,-1.8517,-1.8517,-1.8517,-1.8517,-1.8517,-1.8517,-1.8517,-1.8517,-1.5172,-1.5366,-1.5533,-1.5536,-1.6194,-1.671,-1.6674,-1.7373,-1.7841,-1.7602,-1.7782,-1.7839,-1.7601,-1.7563,-1.7228,-1.6378,-1.6338,-1.6365,-1.637,-1.6019,-1.6561,-1.8241,-1.8612,-1.8868,-1.9076,-1.9734,-2.0049,-1.9992,-2.005,-2.0078,-2.0097,-2.0097,-2.0124,-2.0167,-2.0185,-2.0258,-2.037,-2.0371,-2.041,-2.0473,-2.047,-2.0476,-2.05,-2.0497,-2.0528,-2.0572,-2.0586,-2.0598,-2.0599,-2.0595,-2.0601,-2.0587,-2.0536,-2.0526,-2.0515,-2.0453,-2.0424,-2.0421,-2.0347,-2.0282,-2.0246,-2.0313,-2.0229,-2.0088,-1.9959,-2.0288,-2.083,-2.165,-2.2135,-2.268,-2.353,-2.3499,-2.3238,-2.2902,-2.2703,-2.2489,-2.2166,-2.1986,-2.1886,-2.1768,-2.1579,-2.1425,-2.1386,-2.1238,-2.0958,-2.0512,-1.996,-1.9537,-1.9332,-1.9235,-1.9376,-1.9741,-1.9611,-1.964,-1.9848,-1.9602,-1.9278,-1.8902,-1.8976,-1.8775,-1.835,-1.8646,-1.8795,-1.8795,-1.8634,-1.8556,-1.8556,-1.8517,-1.8517,-1.8517,-1.8517,-1.8517,-1.8517,-1.8517,-1.8517,-1.8517,-1.521,-1.5204,-1.5203,-1.5201,-1.5594,-1.5913,-1.5871,-1.6586,-1.7001,-1.6655,-1.6904,-1.6998,-1.6682,-1.6651,-1.6438,-1.5913,-1.5901,-1.5933,-1.5927,-1.5424,-1.559,-1.6613,-1.7451,-1.8014,-1.826,-1.9469,-1.9936,-1.9601,-1.9988,-2.0185,-2.0184,-2.0184,-2.02,-2.0238,-2.0272,-2.0321,-2.0403,-2.0429,-2.0458,-2.0496,-2.0497,-2.0497,-2.0503,-2.0531,-2.0558,-2.0597,-2.0574,-2.0557,-2.0565,-2.0562,-2.0562,-2.0553,-2.0476,-2.0458,-2.0454,-2.0384,-2.0343,-2.031,-2.0242,-2.015,-2.0078,-2.0097,-2.0041,-1.995,-1.9814,-2.027,-2.0902,-2.1469,-2.2076,-2.2698,-2.3284,-2.328,-2.307,-2.2729,-2.2525,-2.2315,-2.1998,-2.1848,-2.1708,-2.1587,-2.1479,-2.1355,-2.1301,-2.1183,-2.0868,-2.0323,-1.9733,-1.9376,-1.9302,-1.9339,-1.9406,-1.9589,-1.9632,-1.9676,-1.9705,-1.9705,-1.9546,-1.9191,-1.9258,-1.9068,-1.8564,-1.8655,-1.868,-1.8634,-1.8556,-1.8517,-1.8517,-1.8517,-1.8517,-1.8517,-1.8517,-1.8517,-1.8517,-1.8517,-1.8517,-1.8517,-1.5217,-1.5211,-1.5206,-1.5211,-1.5204,-1.5216,-1.5216,-1.5834,-1.6025,-1.5213,-1.5811,-1.6022,-1.5289,-1.5209,-1.5207,-1.5206,-1.5217,-1.5212,-1.5217,-1.5212,-1.5211,-1.5207,-1.6043,-1.6794,-1.7382,-1.9042,-1.9574,-1.8888,-1.9697,-2.0123,-2.0192,-2.0192,-2.024,-2.0324,-2.0379,-2.0402,-2.0415,-2.0467,-2.0498,-2.0497,-2.0503,-2.0496,-2.0506,-2.0574,-2.0588,-2.0581,-2.0517,-2.0503,-2.0504,-2.049,-2.0488,-2.0482,-2.042,-2.04,-2.0374,-2.0305,-2.0229,-2.0168,-2.0098,-1.998,-1.9872,-1.9797,-1.9764,-1.9738,-1.9623,-2.0129,-2.0748,-2.1278,-2.1972,-2.2598,-2.3003,-2.307,-2.2936,-2.256,-2.236,-2.2175,-2.1928,-2.1759,-2.1587,-2.1417,-2.1386,-2.1332,-2.1127,-2.1063,-2.0728,-2.0033,-1.9596,-1.9302,-1.9139,-1.9302,-1.9376,-1.9302,-1.9545,-1.9669,-1.9582,-1.9582,-1.9582,-1.9582,-1.9376,-1.916,-1.8993,-1.875,-1.8634,-1.8517,-1.8517,-1.8517,-1.8517,-1.8517,-1.8517,-1.8517,-1.8517,-1.8517,-1.8517,-1.8517,-1.8517,-1.8517,-1.5286,-1.5283,-1.5284,-1.5276,-1.5283,-1.5279,-1.5279,-1.5429,-1.5473,-1.5284,-1.5419,-1.5467,-1.5298,-1.5279,-1.5279,-1.5278,-1.5283,-1.5277,-1.5283,-1.5276,-1.528,-1.5278,-1.6111,-1.6324,-1.5806,-1.7435,-1.822,-1.8056,-1.8247,-1.8691,-1.9361,-1.9361,-1.9749,-2.0454,-2.042,-2.0425,-2.048,-2.049,-2.0503,-2.0503,-2.0501,-2.0535,-2.0565,-2.0542,-2.0517,-2.0517,-2.051,-2.0504,-2.0493,-2.0436,-2.0419,-2.042,-2.0406,-2.0363,-2.0296,-2.0174,-2.0097,-2.0021,-1.9894,-1.9847,-1.9788,-1.9613,-1.9527,-1.9485,-1.9513,-2.052,-2.1388,-2.1272,-2.2241,-2.3068,-2.2951,-2.2808,-2.2641,-2.246,-2.2223,-2.1978,-2.1768,-2.1579,-2.1425,-2.134,-2.1309,-2.1309,-2.1254,-2.073,-2.0224,-1.9797,-1.9398,-1.9183,-1.9258,-1.9302,-1.9339,-1.9376,-1.9531,-1.9567,-1.9457,-1.9457,-1.9457,-1.9457,-1.9175,-1.8972,-1.8836,-1.8627,-1.8517,-1.8517,-1.8517,-1.8517,-1.8517,-1.8517,-1.8517,-1.8517,-1.8517,-1.8517,-1.8517,-1.8517,-1.8517,-1.8517,-1.5352,-1.5355,-1.5346,-1.5348,-1.5322,-1.5299,-1.5299,-1.5305,-1.5301,-1.5301,-1.5295,-1.5299,-1.5301,-1.5301,-1.5311,-1.5344,-1.5349,-1.5355,-1.5355,-1.5349,-1.5351,-1.5355,-1.5783,-1.5812,-1.5358,-1.6207,-1.684,-1.7234,-1.7636,-1.8076,-1.8532,-1.8532,-1.9011,-1.9879,-1.9838,-1.985,-1.9906,-2.0324,-2.028,-1.993,-1.9934,-2.018,-2.0498,-2.0048,-2.0141,-2.0496,-2.0461,-2.0453,-2.0439,-2.0374,-2.033,-2.0305,-2.0294,-2.0235,-2.0142,-2.0031,-1.9931,-1.983,-1.9729,-1.9658,-1.9671,-1.9956,-1.9951,-1.9772,-1.9354,-2.0378,-2.1336,-2.1028,-2.2074,-2.2986,-2.2782,-2.2632,-2.2497,-2.2287,-2.2101,-2.189,-2.1694,-2.1472,-2.134,-2.1309,-2.1317,-2.1254,-2.1087,-2.0504,-2.0023,-1.9762,-1.9479,-1.9339,-1.9339,-1.942,-1.942,-1.942,-1.9538,-1.9538,-1.942,-1.9302,-1.9228,-1.9205,-1.901,-1.8851,-1.8728,-1.8595,-1.8517,-1.8517,-1.8517,-1.8517,-1.8517,-1.8517,-1.8517,-1.8517,-1.8517,-1.8517,-1.8517,-1.8517,-1.8517,-1.8517,-1.5404,-1.5399,-1.5401,-1.5404,-1.5354,-1.5318,-1.5322,-1.5323,-1.5316,-1.532,-1.5316,-1.5316,-1.532,-1.5323,-1.5345,-1.5404,-1.5397,-1.5399,-1.5397,-1.5395,-1.54,-1.5402,-1.5402,-1.54,-1.5399,-1.5397,-1.5731,-1.6395,-1.7118,-1.7549,-1.7686,-1.7686,-1.8159,-1.8997,-1.9146,-1.9126,-1.9063,-2.0068,-1.9936,-1.9069,-1.9217,-1.959,-1.9993,-1.942,-1.9648,-2.0292,-2.0373,-2.0395,-2.036,-2.0304,-2.024,-2.0182,-2.0167,-2.0078,-1.9973,-1.9888,-1.9759,-1.964,-1.9578,-1.946,-1.9516,-2.0168,-2.0311,-2.0101,-1.929,-2.0229,-2.1226,-2.0951,-2.191,-2.2764,-2.2605,-2.2542,-2.2415,-2.2198,-2.1998,-2.1811,-2.1664,-2.1442,-2.1317,-2.1317,-2.1317,-2.1183,-2.0819,-2.0384,-2.0038,-1.9805,-1.9632,-1.9501,-1.9457,-1.9501,-1.9457,-1.9384,-1.9457,-1.9457,-1.9302,-1.9139,-1.9003,-1.8955,-1.8805,-1.8728,-1.8673,-1.8556,-1.8517,-1.8517,-1.8517,-1.8517,-1.8517,-1.8517,-1.8517,-1.8517,-1.8517,-1.8517,-1.8517,-1.8517,-1.8517,-1.8517,-1.5398,-1.54,-1.5397,-1.5395,-1.5387,-1.5392,-1.5392,-1.5387,-1.539,-1.5387,-1.539,-1.539,-1.5387,-1.5391,-1.5391,-1.5399,-1.5404,-1.5403,-1.54,-1.5403,-1.5404,-1.5401,-1.5401,-1.5397,-1.5399,-1.5399,-1.5446,-1.5557,-1.5681,-1.612,-1.6863,-1.6863,-1.7331,-1.8201,-1.8954,-1.8867,-1.8264,-1.983,-1.957,-1.8162,-1.8909,-1.8833,-1.832,-1.8955,-1.9276,-1.9467,-2.015,-2.0324,-2.0233,-2.0217,-2.0167,-2.0096,-2.005,-1.9971,-1.9894,-1.9757,-1.9581,-1.9447,-1.9426,-1.9286,-1.915,-1.9201,-1.9597,-1.9882,-1.9579,-2.0885,-2.2074,-2.1785,-2.2293,-2.2764,-2.2605,-2.2515,-2.2405,-2.2377,-2.2061,-2.1789,-2.1768,-2.1495,-2.1317,-2.1317,-2.1317,-2.1183,-2.0819,-2.0429,-2.0085,-1.9833,-1.9398,-1.9302,-1.9574,-1.9339,-1.9221,-1.9302,-1.9221,-1.9064,-1.8867,-1.886,-1.8805,-1.8757,-1.8595,-1.8556,-1.8517,-1.8517,-1.8517,-1.8517,-1.8517,-1.8517,-1.8517,-1.8517,-1.8517,-1.8517,-1.8517,-1.8517,-1.8517,-1.8517,-1.8517,-1.8471,-1.5402,-1.5404,-1.5397,-1.5399,-1.5397,-1.5405,-1.5403,-1.54,-1.5397,-1.5397,-1.5397,-1.5395,-1.5401,-1.5404,-1.5404,-1.5401,-1.5395,-1.5397,-1.5398,-1.5399,-1.5399,-1.5399,-1.5399,-1.5398,-1.5397,-1.5396,-1.5397,-1.5399,-1.5395,-1.56,-1.5974,-1.5968,-1.6441,-1.7292,-1.7685,-1.7627,-1.7352,-1.8541,-1.832,-1.7207,-1.7587,-1.7806,-1.7939,-1.8288,-1.8717,-1.9238,-2.0011,-2.0235,-2.0141,-2.0142,-2.0098,-2.0031,-1.9971,-1.9872,-1.977,-1.9675,-1.9527,-1.9387,-1.9344,-1.9586,-1.9925,-2.0309,-2.0827,-2.1309,-2.1604,-2.218,-2.2455,-2.1866,-2.2211,-2.2605,-2.2569,-2.2432,-2.2265,-2.2106,-2.1915,-2.1721,-2.1556,-2.1402,-2.1317,-2.1317,-2.1183,-2.1007,-2.0827,-2.0285,-1.9945,-1.9797,-1.9435,-1.9302,-1.9494,-1.9339,-1.9295,-1.9302,-1.9183,-1.9033,-1.8927,-1.8812,-1.8743,-1.8718,-1.8556,-1.8517,-1.8517,-1.8517,-1.8517,-1.8517,-1.8517,-1.8517,-1.8517,-1.8517,-1.8517,-1.8517,-1.8517,-1.8517,-1.8517,-1.8517,-1.8464,-1.8365]}]]